[[{"header":{"parameterUnit":"m.s-1","parameterCategory":1,"la1":30.6,"la2":28.766,"lo1":-90.7593,"lo2":-88.6598,"dy":0.0162,"dx":0.0183,"nx":116,"ny":114,"refTime":"2023-03-03T06:00:00:Z","depth":0,"parameterNumber":2,"parameterNumberName":"U-component_of_WINDS"},"data":[0.0,0.0,0.0,0.0,0.0,0.0,0.0,0.0,0.0,0.0,0.0,0.0,0.0,0.0,0.0,0.0,0.0,0.0,0.0,0.0,0.0,0.0,0.0,0.0,0.0,0.0,0.0,0.0,0.0,0.0,0.0,0.0,0.0,0.0,0.0,0.0,0.0,0.0,0.0,0.0,0.0,0.0,0.0,0.0,0.0,0.0,0.0,0.0,0.0,0.0,0.0,0.0,0.0,0.0,0.0,0.0,0.0,0.0,0.0,0.0,0.0,0.0,0.0,0.0,0.0,0.0,0.0,0.0,0.0,0.0,0.0,0.0,0.0,0.0,0.0,0.0,0.0,0.0,0.0,0.0,0.0,0.0,0.0,0.0,0.0,0.0,0.0,0.0,0.0,0.0,0.0,0.0,0.0,0.0,0.0,0.0,0.0,0.0,0.0,0.0,0.0,0.0,0.0,0.0,0.0,0.0,0.0,0.0,0.0,0.0,0.0,0.0,0.0,0.0,0.0,0.0,0.0,0.0,0.0,0.0,0.0,0.0,0.0,0.0,0.0,0.0,0.0,0.0,0.0,0.0,0.0,0.0,0.0,0.0,0.0,0.0,0.0,0.0,0.0,0.0,0.0,0.0,0.0,0.0,0.0,0.0,0.0,0.0,0.0,0.0,0.0,0.0,0.0,0.0,0.0,0.0,0.0,0.0,0.0,0.0,0.0,0.0,0.0,0.0,0.0,0.0,0.0,0.0,0.0,0.0,0.0,0.0,0.0,0.0,0.0,0.0,0.0,0.0,0.0,0.0,0.0,0.0,0.0,0.0,0.0,0.0,0.0,0.0,0.0,0.0,0.0,0.0,0.0,0.0,0.0,0.0,0.0,0.0,0.0,0.0,0.0,0.0,0.0,0.0,0.0,0.0,0.0,0.0,0.0,0.0,0.0,0.0,0.0,0.0,0.0,0.0,0.0,0.0,0.0,0.0,0.0,0.0,0.0,0.0,0.0,0.0,0.0,0.0,0.0,0.0,0.0,0.0,0.0,0.0,0.0,0.0,0.0,0.0,0.0,0.0,0.0,0.0,0.0,0.0,0.0,0.0,0.0,0.0,0.0,0.0,0.0,0.0,0.0,0.0,0.0,0.0,0.0,0.0,0.0,0.0,0.0,0.0,0.0,0.0,0.0,0.0,0.0,0.0,0.0,0.0,0.0,0.0,0.0,0.0,0.0,0.0,0.0,0.0,0.0,0.0,0.0,0.0,0.0,0.0,0.0,0.0,0.0,0.0,0.0,0.0,0.0,0.0,0.0,0.0,0.0,0.0,0.0,0.0,0.0,0.0,0.0,0.0,0.0,0.0,0.0,0.0,0.0,0.0,0.0,0.0,0.0,0.0,0.0,0.0,0.0,0.0,0.0,0.0,0.0,0.0,0.0,0.0,0.0,0.0,0.0,0.0,0.0,0.0,0.0,0.0,0.0,0.0,0.0,0.0,0.0,0.0,0.0,0.0,0.0,0.0,0.0,0.0,0.0,0.0,0.0,0.0,0.0,0.0,0.0,0.0,0.0,0.0,0.0,0.0,0.0,0.0,0.0,0.0,0.0,0.0,0.0,0.0,0.0,0.0,0.0,0.0,0.0,0.0,0.0,0.0,0.0,0.0,0.0,0.0,0.0,0.0,0.0,0.0,0.0,0.0,0.0,0.0,0.0,0.0,0.0,0.0,0.0,0.0,0.0,0.0,0.0,0.0,0.0,0.0,0.0,0.0,0.0,0.0,0.0,0.0,0.0,0.0,0.0,0.0,0.0,0.0,0.0,0.0,0.0,0.0,0.0,0.0,0.0,0.0,0.0,0.0,0.0,0.0,0.0,0.0,0.0,0.0,0.0,0.0,0.0,0.0,0.0,0.0,0.0,0.0,0.0,0.0,0.0,0.0,0.0,0.0,0.0,0.0,0.0,0.0,0.0,0.0,0.0,0.0,0.0,0.0,0.0,0.0,0.0,0.0,0.0,0.0,0.0,0.0,0.0,0.0,0.0,0.0,0.0,0.0,0.0,0.0,0.0,0.0,0.0,0.0,0.0,0.0,0.0,0.0,0.0,0.0,0.0,0.0,0.0,0.0,0.0,0.0,0.0,0.0,0.0,0.0,0.0,0.0,0.0,0.0,0.0,0.0,0.0,0.0,0.0,0.0,0.0,0.0,0.0,0.0,0.0,0.0,0.0,0.0,0.0,0.0,0.0,0.0,0.0,0.0,0.0,0.0,0.0,0.0,0.0,0.0,0.0,0.0,0.0,0.0,0.0,0.0,0.0,0.0,0.0,0.0,0.0,0.0,0.0,0.0,0.0,0.0,0.0,0.0,0.0,0.0,0.0,0.0,0.0,0.0,0.0,0.0,0.0,0.0,0.0,0.0,0.0,0.0,0.0,0.0,0.0,0.0,0.0,0.0,0.0,0.0,0.0,0.0,0.0,0.0,0.0,0.0,0.0,0.0,0.0,0.0,0.0,0.0,0.0,0.0,0.0,0.0,0.0,0.0,0.0,0.0,0.0,0.0,0.0,0.0,0.0,0.0,0.0,0.0,0.0,0.0,0.0,0.0,0.0,0.0,0.0,0.0,0.0,0.0,0.0,0.0,0.0,0.0,0.0,0.0,0.0,0.0,0.0,0.0,0.0,0.0,0.0,0.0,0.0,0.0,0.0,0.0,0.0,0.0,0.0,0.0,0.0,0.0,0.0,0.0,0.0,0.0,0.0,0.0,0.0,0.0,0.0,0.0,0.0,0.0,0.0,0.0,0.0,0.0,0.0,0.0,0.0,0.0,0.0,0.0,0.0,0.0,0.0,0.0,0.0,0.0,0.0,0.0,0.0,0.0,0.0,0.0,0.0,0.0,0.0,0.0,0.0,0.0,0.0,0.0,0.0,0.0,0.0,0.0,0.0,0.0,0.0,0.0,0.0,0.0,0.0,0.0,0.0,0.0,0.0,0.0,0.0,0.0,0.0,0.0,0.0,0.0,0.0,0.0,0.0,0.0,0.0,0.0,0.0,0.0,0.0,0.0,0.0,0.0,0.0,0.0,0.0,0.0,0.0,0.0,0.0,0.0,0.0,0.0,0.0,0.0,0.0,0.0,0.0,0.0,0.0,0.0,0.0,0.0,0.0,0.0,0.0,0.0,0.0,0.0,0.0,0.0,0.0,0.0,0.0,0.0,0.0,0.0,0.0,0.0,0.0,0.0,0.0,0.0,0.0,0.0,0.0,0.0,0.0,0.0,0.0,0.0,0.0,0.0,0.0,0.0,0.0,0.0,0.0,0.0,0.0,0.0,0.0,0.0,0.0,0.0,0.0,0.0,0.0,0.0,0.0,0.0,0.0,0.0,0.0,0.0,0.0,0.0,0.0,0.0,0.0,0.0,0.0,0.0,0.0,0.0,0.0,0.0,0.0,0.0,0.0,0.0,0.0,0.0,0.0,0.0,0.0,0.0,0.0,0.0,0.0,0.0,0.0,0.0,0.0,0.0,0.0,0.0,0.0,0.0,0.0,0.0,0.0,0.0,0.0,0.0,0.0,0.0,0.0,0.0,0.0,0.0,0.0,0.0,0.0,0.0,0.0,0.0,0.0,0.0,0.0,0.0,0.0,0.0,0.0,0.0,0.0,0.0,0.0,0.0,0.0,0.0,0.0,0.0,0.0,0.0,0.0,0.0,0.0,0.0,0.0,0.0,0.0,0.0,0.0,0.0,0.0,0.0,0.0,0.0,0.0,0.0,0.0,0.0,0.0,0.0,0.0,0.0,0.0,0.0,0.0,0.0,0.0,0.0,0.0,0.0,0.0,0.0,0.0,0.0,0.0,0.0,0.0,0.0,0.0,0.0,0.0,0.0,0.0,0.0,0.0,0.0,0.0,0.0,0.0,0.0,0.0,0.0,0.0,0.0,0.0,0.0,0.0,0.0,0.0,0.0,0.0,0.0,0.0,0.0,0.0,0.0,0.0,0.0,0.0,0.0,0.0,0.0,0.0,0.0,0.0,0.0,0.0,0.0,0.0,0.0,0.0,0.0,0.0,0.0,0.0,0.0,0.0,0.0,0.0,0.0,0.0,0.0,0.0,0.0,0.0,0.0,0.0,0.0,0.0,0.0,0.0,0.0,0.0,0.0,0.0,0.0,0.0,0.0,0.0,0.0,0.0,0.0,0.0,0.0,0.0,0.0,0.0,0.0,0.0,0.0,0.0,0.0,0.0,0.0,0.0,0.0,0.0,0.0,0.0,0.0,0.0,0.0,0.0,0.0,0.0,0.0,0.0,0.0,0.0,0.0,0.0,0.0,0.0,0.0,0.0,0.0,0.0,0.0,0.0,0.0,0.0,0.0,0.0,0.0,0.0,0.0,0.0,0.0,0.0,0.0,0.0,0.0,0.0,0.0,0.0,0.0,0.0,0.0,0.0,0.0,0.0,0.0,0.0,0.0,0.0,0.0,0.0,0.0,0.0,0.0,0.0,0.0,0.0,0.0,0.0,0.0,0.0,0.0,0.0,0.0,0.0,0.0,0.0,0.0,0.0,0.0,0.0,0.0,0.0,0.0,0.0,0.0,0.0,0.0,0.0,0.0,0.0,0.0,0.0,0.0,0.0,0.0,0.0,0.0,0.0,0.0,0.0,0.0,0.0,0.0,0.0,0.0,0.0,0.0,0.0,0.0,0.0,0.0,0.0,0.0,0.0,0.0,0.0,0.0,0.0,0.0,0.0,0.0,0.0,0.0,0.0,0.0,0.0,0.0,0.0,0.0,0.0,0.0,0.0,0.0,0.0,0.0,0.0,0.0,0.0,0.0,0.0,0.0,0.0,0.0,0.0,0.0,0.0,0.0,0.0,0.0,0.0,0.0,0.0,0.0,0.0,0.0,0.0,0.0,0.0,0.0,0.0,0.0,0.0,0.0,0.0,0.0,0.0,0.0,0.0,0.0,0.0,0.0,0.0,0.0,0.0,0.0,0.0,0.0,0.0,0.0,0.0,0.0,0.0,0.0,0.0,0.0,0.0,0.0,0.0,0.0,0.0,0.0,0.0,0.0,0.0,0.0,0.0,0.0,0.0,0.0,0.0,0.0,0.0,0.0,0.0,0.0,0.0,0.0,0.0,0.0,0.0,0.0,0.0,0.0,0.0,0.0,0.0,0.0,0.0,0.0,0.0,0.0,0.0,0.0,0.0,0.0,0.0,0.0,0.0,0.0,0.0,0.0,0.0,0.0,0.0,0.0,0.0,0.0,0.0,0.0,0.0,0.0,0.0,0.0,0.0,0.0,0.0,0.0,0.0,0.0,0.0,0.0,0.0,0.0,0.0,0.0,0.0,0.0,0.0,0.0,0.0,0.0,0.0,0.0,0.0,0.0,0.0,0.0,0.0,0.0,0.0,0.0,0.0,0.0,0.0,0.0,0.0,0.0,0.0,0.0,0.0,0.0,0.0,0.0,0.0,0.0,0.0,0.0,0.0,0.0,0.0,0.0,0.0,0.0,0.0,0.0,0.0,0.0,0.0,0.0,0.0,0.0,0.0,0.0,0.0,0.0,0.0,0.0,0.0,0.0,0.0,0.0,0.0,0.0,0.0,0.0,0.0,0.0,0.0,0.0,0.0,0.0,0.0,0.0,0.0,0.0,0.0,0.0,0.0,0.0,0.0,0.0,0.0,0.0,0.0,0.0,0.0,0.0,0.0,0.0,0.0,0.0,0.0,0.0,0.0,0.0,0.0,0.0,0.0,0.0,0.0,0.0,0.0,0.0,0.0,0.0,0.0,0.0,0.0,0.0,0.0,0.0,0.0,0.0,0.0,0.0,0.0,0.0,0.0,0.0,0.0,0.0,0.0,0.0,0.0,0.0,0.0,0.0,0.0,0.0,0.0,0.0,0.0,0.0,0.0,0.0,0.0,0.0,0.0,0.0,0.0,0.0,0.0,0.0,0.0,0.0,0.0,0.0,0.0,0.0,0.0,0.0,0.0,0.0,0.0,0.0,0.0,0.0,0.0,0.0,0.0,0.0,0.0,0.0,0.0,0.0,0.0,0.0,0.0,0.0,0.0,0.0,0.0,0.0,0.0,0.0,0.0,0.0,0.0,0.0,0.0,0.0,1.2982,0.0,0.0,0.0,0.0,0.0,0.0,0.0,0.0,0.0,0.0,0.0,0.0,0.0,0.0,0.0,0.0,0.0,0.0,0.0,0.0,0.0,0.0,0.0,0.0,0.0,0.0,0.0,0.0,0.0,0.0,0.0,0.0,0.0,0.0,0.0,0.0,0.0,0.0,0.0,0.0,0.0,0.0,0.0,0.0,0.0,0.0,0.0,0.0,0.0,0.0,0.0,0.0,0.0,0.0,0.0,0.0,0.0,0.0,0.0,0.0,0.0,0.0,0.0,0.0,0.0,0.0,0.0,0.0,0.0,0.0,0.0,0.0,0.0,0.0,0.0,0.0,0.0,0.0,0.0,0.0,0.0,0.0,0.0,0.0,0.0,0.0,0.0,0.0,0.0,0.0,0.0,0.0,0.0,0.0,0.0,0.0,0.0,0.0,0.0,0.0,0.0,0.0,0.0,0.0,0.0,0.0,0.0,0.0,0.0,0.0,0.0,0.0,0.0,0.0,0.0,0.0,1.3424,0.0,0.0,0.0,0.0,0.0,0.0,0.0,0.0,0.0,0.0,0.0,0.0,0.0,0.0,0.0,0.0,0.0,0.0,0.0,0.0,0.0,0.0,0.0,0.0,0.0,0.0,0.0,0.0,0.0,0.0,0.0,0.0,0.0,0.0,0.0,0.0,0.0,0.0,0.0,0.0,0.0,0.0,0.0,0.0,0.0,0.0,0.0,0.0,0.0,0.0,0.0,0.0,0.0,0.0,0.0,0.0,0.0,0.0,0.0,0.0,0.0,0.0,0.0,0.0,0.0,0.0,0.0,0.0,0.0,0.0,0.0,0.0,0.0,0.0,0.0,0.0,0.0,0.0,0.0,0.0,0.0,0.0,0.0,0.0,0.0,0.0,0.0,0.0,0.0,0.0,0.0,0.0,0.0,0.0,0.0,0.0,0.0,0.0,0.0,0.0,0.0,0.0,0.0,0.0,0.0,0.0,0.0,0.0,1.3385,1.3907,1.458,1.5095,1.5361,1.5332,1.3978,1.3438,1.3458,1.3195,0.0,0.0,0.0,0.0,0.0,0.0,0.0,0.0,0.0,0.0,0.0,0.0,0.0,0.0,0.0,0.0,0.0,0.0,0.0,0.0,0.0,0.0,0.0,0.0,0.0,0.0,0.0,0.0,0.0,0.0,0.0,0.0,0.0,0.0,0.0,0.0,0.0,0.0,1.0331,1.0836,1.2011,1.3769,0.0,0.0,0.0,0.0,0.0,0.0,0.0,0.0,0.0,0.0,0.0,0.0,0.0,0.0,0.0,0.0,0.0,0.0,0.0,0.0,0.0,0.0,0.0,0.0,0.0,0.0,0.0,0.0,0.0,0.0,0.0,0.0,0.0,0.0,0.0,0.0,0.0,0.0,0.0,0.0,0.0,0.0,0.0,0.0,1.4422,1.5145,0.0,0.0,0.0,0.0,0.0,0.0,0.0,0.0,0.0,0.0,0.0,0.0,0.0,1.2202,1.1712,1.2816,1.334,1.3286,1.3891,1.4256,1.4368,1.512,1.5485,1.5509,1.5482,0.0,1.4467,1.378,0.0,0.0,0.0,0.0,0.0,0.0,0.0,0.0,0.0,0.0,0.0,0.0,0.0,0.0,0.0,0.0,0.0,0.0,0.0,0.0,0.0,0.0,0.0,0.0,0.0,0.0,0.0,0.0,0.0,0.0,0.0,0.0,0.0,0.0,0.0,0.0,1.0003,1.0416,1.1436,1.1872,1.2963,1.4573,1.5613,1.5994,1.5914,1.647,0.0,0.0,0.0,0.0,0.0,0.0,0.0,0.0,0.0,0.0,0.0,0.0,0.0,0.0,0.0,0.0,0.0,0.0,0.0,0.0,0.0,0.0,0.0,0.0,0.0,0.0,0.0,0.0,0.0,0.0,0.0,0.0,0.0,0.0,0.0,0.0,0.0,0.0,0.0,1.3769,1.4027,1.4599,1.4185,1.3815,0.0,0.0,0.0,0.0,0.0,0.0,0.0,0.0,0.0,1.1185,1.1974,1.2552,1.2704,1.327,1.3901,1.4605,1.4943,1.5399,1.5957,1.6308,1.6586,1.6861,1.6615,1.6257,1.5726,1.442,1.3518,1.2918,0.0,0.0,0.0,0.0,1.2608,1.2801,0.0,0.0,0.0,0.0,0.0,0.0,0.0,0.0,0.0,0.0,0.0,0.0,0.0,0.0,0.0,1.2691,0.0,0.0,0.0,0.0,0.0,0.0,0.0,0.0,0.0,0.0,0.0,0.0,1.0572,1.147,1.2855,1.3235,1.4219,1.5806,1.6845,1.7091,1.6747,1.7221,1.6825,0.0,0.0,0.0,0.0,0.0,0.0,0.0,0.0,0.0,0.0,0.0,0.0,0.0,0.0,0.0,0.0,0.0,0.0,0.0,0.0,0.0,0.0,0.0,0.0,0.0,0.0,0.0,0.0,0.0,0.0,0.0,0.0,0.0,0.0,0.0,0.0,0.0,0.0,1.332,1.3616,1.3991,1.3415,1.2946,0.0,0.0,0.0,0.0,0.0,0.0,1.1347,1.2015,1.2225,1.1784,1.2773,1.3466,1.3872,1.4292,1.5085,1.6283,1.6312,1.6806,1.7673,1.7613,1.7797,1.8113,1.7475,1.7019,1.6597,1.4878,1.3791,1.3168,1.2568,1.2642,1.3071,1.3095,1.342,1.3823,0.0,0.0,0.0,0.0,0.0,0.0,0.0,0.0,0.0,0.0,0.0,0.0,0.0,0.0,0.9973,1.0608,1.2189,1.3283,0.0,0.0,0.0,0.0,0.0,0.0,0.0,0.0,0.0,1.039,1.09,1.2163,1.412,1.452,1.5634,1.7312,1.7371,1.7455,1.7571,1.8117,1.7205,1.5485,0.0,0.0,0.0,0.0,0.0,0.0,0.0,0.0,0.0,0.0,0.0,0.0,0.0,0.0,0.0,0.0,0.0,0.0,0.0,0.0,0.0,0.0,0.0,0.0,0.0,0.0,0.0,0.0,0.0,0.0,0.0,0.0,0.0,0.0,0.0,0.0,0.0,0.0,0.0,1.3521,1.2712,0.0,0.0,0.0,0.0,0.9993,1.0982,1.1377,1.0879,1.2256,1.2573,1.1441,1.42,1.5533,1.5105,1.6512,1.7521,1.8156,1.8041,1.8301,1.8897,1.8795,1.8723,1.8725,1.814,1.7463,1.6675,1.5054,1.4389,1.4311,1.3186,1.3308,1.4022,1.4022,1.4389,1.4866,0.0,0.0,0.0,0.0,0.0,0.0,0.0,0.0,0.0,0.0,0.0,0.0,0.0,0.9621,0.9984,1.1765,1.2492,1.2969,1.3271,0.0,0.0,0.0,0.0,0.0,0.0,0.0,1.1066,1.2195,1.3158,1.4217,1.5381,1.5945,1.6812,1.7915,1.827,1.8337,1.814,1.7704,1.6952,1.5992,1.5433,1.4852,0.0,0.0,0.0,0.0,0.0,0.0,0.0,0.0,0.0,0.0,0.0,0.0,0.0,0.0,0.0,0.0,0.0,0.0,0.0,0.0,0.0,0.0,0.0,0.0,0.0,0.0,0.0,0.0,0.0,0.0,0.0,0.0,0.0,0.0,0.0,0.0,0.0,1.3556,1.253,0.0,1.1684,1.14,1.1217,1.1183,1.2298,1.297,1.307,1.4312,1.4944,1.4832,1.6504,1.7495,1.7617,1.8164,1.8702,1.9211,1.9146,1.9248,1.9436,1.9412,1.9361,1.9361,1.9144,1.8654,1.792,1.7433,1.63,1.4813,1.4118,1.4134,1.4633,1.4723,1.5031,1.5424,0.0,0.0,0.0,0.0,0.0,0.0,0.0,0.0,0.0,0.0,0.0,0.9591,0.9882,0.979,1.0504,1.2408,1.2986,1.3338,1.3445,0.0,0.0,0.0,0.0,0.0,0.0,1.106,1.2278,1.3311,1.439,1.5467,1.6436,1.7009,1.764,1.8368,1.8714,1.873,1.8502,1.732,1.6521,1.5938,1.5035,1.4266,1.3599,0.0,0.0,0.0,0.0,0.0,0.0,0.0,0.0,0.0,0.0,0.0,0.0,0.0,0.0,0.0,0.0,0.0,0.0,0.0,0.0,0.0,0.0,0.0,0.0,0.0,0.0,0.0,0.0,0.0,0.0,0.0,0.0,0.0,0.0,0.0,1.3466,1.3564,1.2659,1.1939,1.1807,1.1801,1.1949,1.2397,1.3726,1.4795,1.5376,1.6648,1.7508,1.7831,1.882,1.952,1.9856,1.9766,2.0074,2.0799,2.055,2.0563,2.0738,2.0334,2.0146,2.0119,1.9773,1.9368,1.893,1.8993,1.8066,1.6515,1.5844,1.5832,1.615,1.6245,1.6556,1.689,0.0,0.0,0.0,0.0,0.0,0.0,0.0,0.0,0.0,0.0,0.993,0.9733,0.9893,1.0613,1.1407,1.2285,1.3587,1.4289,1.405,1.2625,0.0,0.0,0.0,0.0,0.9296,1.1147,1.2603,1.3641,1.4468,1.5706,1.7312,1.7544,1.8054,1.8664,1.8577,1.8602,1.8531,1.7099,1.6047,1.5281,1.5025,1.4078,1.2762,0.0,0.0,0.0,0.0,0.0,0.0,0.0,0.0,0.0,0.0,0.0,0.0,0.0,0.0,0.0,0.0,0.0,0.0,0.0,0.0,0.0,0.0,0.0,0.0,0.0,0.0,0.0,0.0,0.0,0.0,0.0,0.0,0.0,1.2298,1.3284,1.3923,1.3588,1.3052,1.263,1.2483,1.2345,1.2653,1.356,1.5289,1.6678,1.7686,1.9177,2.0054,2.0169,2.1043,2.1589,2.1615,2.1402,2.1824,2.2977,2.231,2.2233,2.2791,2.1581,2.1037,2.0957,1.9999,1.9535,1.9553,1.9566,1.9566,1.9405,1.8376,1.8223,1.8642,1.8642,1.8898,1.9266,0.0,0.0,0.0,0.0,0.0,0.0,0.0,0.0,0.0,0.0,1.0203,1.0644,1.0714,1.1704,1.2592,1.3208,1.3629,1.3418,1.2302,0.0,0.0,0.0,0.0,0.0,1.1768,1.3017,1.4059,1.4888,1.5659,1.6388,1.7076,1.7269,1.7585,1.8014,1.776,1.7463,1.7149,1.659,1.5947,1.5193,1.4245,1.3264,1.2307,0.0,0.0,0.0,0.0,0.0,0.0,0.0,0.0,0.0,0.0,0.0,0.0,0.0,0.0,0.0,0.0,0.0,0.0,0.0,0.0,0.0,0.0,0.0,0.0,0.0,0.0,0.0,0.0,0.0,0.0,0.0,0.0,1.396,1.4072,1.4675,1.5063,1.4974,1.4552,1.4205,1.4104,1.5256,1.626,1.6769,1.8833,2.02,2.0499,2.1256,2.155,2.1147,2.2179,2.2546,2.2089,2.2385,2.2694,2.3122,2.2869,2.2764,2.2911,2.2576,2.2137,2.1645,2.1475,2.0906,2.018,2.0678,2.063,2.0151,1.9265,1.9002,1.9106,1.9229,1.9391,1.957,0.0,0.0,0.0,0.0,0.0,0.0,0.0,0.0,0.0,0.0,1.0696,1.1665,1.2024,1.3001,1.3806,1.428,1.4079,1.3338,1.1974,0.0,0.0,0.0,0.0,1.1705,1.2799,1.4181,1.5245,1.5887,1.6552,1.7118,1.7599,1.7817,1.786,1.7763,1.7584,1.7102,1.6471,1.6139,1.5712,1.5129,1.4071,1.3161,1.2287,1.135,1.083,1.0743,1.136,1.1943,1.2457,1.2866,0.0,0.0,0.0,0.0,0.0,0.0,0.0,0.0,0.0,0.0,0.0,0.0,0.0,0.0,0.0,0.0,0.0,0.0,0.0,0.0,0.0,0.0,0.0,0.0,1.5012,1.6001,1.6763,1.6917,1.6973,1.7043,1.7037,1.7035,1.7187,1.8182,1.8993,1.9473,2.0986,2.2146,2.2678,2.3221,2.3402,2.3254,2.3689,2.3744,2.3339,2.3393,2.3514,2.377,2.3715,2.366,2.3524,2.3338,2.3044,2.2644,2.2535,2.2089,2.1511,2.1997,2.193,0.0,0.0,0.0,0.0,0.0,2.0955,2.0852,0.0,0.0,0.0,0.0,0.0,0.0,0.0,0.0,0.0,0.0,0.0,1.2802,1.3386,1.4311,1.4947,1.5107,1.4469,1.3537,0.0,0.0,0.0,0.9125,1.1634,1.3104,1.3135,1.5037,1.6287,1.6805,1.7314,1.7852,1.8427,1.8773,1.85,1.7766,1.7791,1.7276,1.6367,1.5891,1.5451,1.5085,1.4374,1.3497,1.2438,1.15,1.0629,1.0071,1.1277,1.1546,1.149,1.2407,0.0,0.0,0.0,0.0,0.0,0.0,0.0,0.0,0.0,0.0,0.0,0.0,0.0,0.0,0.0,0.0,0.0,0.0,0.0,0.0,0.0,0.0,0.0,0.0,1.6849,1.8275,1.9845,1.98,1.9598,1.9508,1.9889,2.0343,2.0677,2.0911,2.1188,2.1706,2.2405,2.3316,2.4437,0.0,0.0,0.0,0.0,2.4959,2.4778,2.4267,2.4211,2.462,2.462,2.4549,2.4337,2.4016,2.375,2.3657,2.3272,2.3044,2.3029,2.3122,2.3229,2.3229,2.2658,2.2414,2.2481,2.2986,2.294,2.2533,0.0,0.0,0.0,0.0,0.0,0.0,0.0,0.0,0.0,1.0429,1.2681,1.4048,1.3362,1.4858,1.5424,1.4262,1.354,1.2525,0.0,0.0,1.0425,1.1415,1.2822,1.4107,1.5265,1.6645,1.7562,1.8062,1.8249,1.8452,1.8554,1.8508,1.841,1.8261,1.7897,1.741,1.6847,1.6362,1.5831,1.5329,1.481,1.3679,1.223,1.1565,1.0831,1.0223,1.131,1.1618,1.1614,1.255,1.3092,1.3425,1.3886,0.0,0.0,0.0,0.0,0.0,0.0,0.0,0.0,0.0,0.0,0.0,0.0,0.0,0.0,0.0,0.0,0.0,0.0,0.0,0.0,1.81,1.9138,2.0229,2.1941,2.3044,2.305,2.1339,2.1635,2.1837,2.1471,2.2665,2.3545,2.3663,2.4629,2.5509,2.625,2.641,2.6294,2.5842,2.5662,2.532,2.4791,2.4557,2.4557,2.4778,0.0,0.0,2.4708,2.46,2.4249,2.3683,2.3728,2.3447,2.3029,2.3122,2.3473,2.3892,2.3243,2.3013,2.3013,2.3134,2.3264,2.3296,0.0,0.0,0.0,0.0,0.0,0.0,0.0,0.0,0.0,0.0,1.3047,1.425,1.4143,1.4861,1.4961,1.4028,1.2816,0.0,0.0,1.1151,1.1763,1.2377,1.4218,1.5579,1.6232,1.7491,1.8399,1.8882,1.8977,1.9118,1.9387,1.9461,1.9259,1.8882,1.8216,1.7628,1.7057,1.6373,1.6019,1.5917,1.565,1.5146,1.4387,1.2978,1.1883,1.1223,1.2207,1.2238,1.1915,1.2773,1.3022,1.3075,1.3534,1.3363,1.3048,0.0,0.0,0.0,0.0,0.0,0.0,0.0,0.0,0.0,0.0,0.0,0.0,0.0,0.0,1.3922,0.0,0.0,1.7764,2.0273,2.1405,2.2495,2.4134,2.5159,2.5271,2.3892,2.4255,2.4518,2.4203,2.501,2.5488,2.5488,2.6007,2.6619,2.723,2.7271,2.6925,2.6122,2.6109,2.562,2.4549,2.4664,2.4677,2.4677,2.4835,2.4835,2.4778,2.4892,2.4673,2.4348,2.4404,2.4284,2.3987,2.4164,2.4409,2.4641,2.4409,2.4245,2.4123,2.4123,2.385,2.354,0.0,0.0,0.0,0.0,0.0,0.0,0.0,0.0,0.0,0.0,0.0,1.4121,1.4788,1.465,1.4206,0.0,0.0,0.0,0.0,1.2364,1.3205,1.3307,1.5672,1.7008,1.7024,1.8286,1.9201,1.9615,1.9652,1.9883,2.0283,2.0461,2.0165,1.9554,1.8833,1.8186,1.7601,1.6746,1.6553,1.691,1.6809,1.6823,1.6729,1.4874,1.3577,1.2852,1.3549,1.3181,1.246,1.3281,1.3156,1.2741,1.3452,1.3169,1.2669,1.323,1.2751,0.0,0.0,0.0,0.0,0.0,0.0,0.0,0.0,0.0,1.2559,1.3675,1.4727,1.5896,1.7553,1.8634,2.0029,2.2451,2.3616,2.4642,2.604,2.6722,2.6965,2.6633,2.6823,2.6945,2.6837,2.6932,2.6986,2.6986,2.6986,2.7257,2.7841,2.7881,2.7525,2.6778,2.6746,2.6096,2.4766,2.5012,2.4962,2.462,2.5013,2.5057,2.4835,2.4948,2.5005,2.5005,2.5005,2.5005,2.5005,2.5118,2.5174,2.5174,2.5369,2.5382,2.5225,2.5116,2.4628,2.4003,0.0,0.0,0.0,0.0,0.0,0.0,0.0,0.0,0.0,0.0,0.0,0.0,0.0,0.0,0.0,0.0,0.0,0.0,1.2089,1.265,1.3697,1.5461,1.686,1.7848,1.8462,1.9646,2.0306,2.037,2.0508,2.0597,2.0649,2.0562,2.0485,2.037,1.9723,1.9377,1.9263,1.8665,1.839,1.8443,1.8295,1.7744,1.6961,1.6692,1.5995,1.5132,1.5302,1.4413,1.3324,1.4482,1.4021,1.3117,1.4209,1.4127,1.3619,1.3564,0.0,1.2045,1.1418,1.078,1.0257,1.0303,1.028,1.0761,0.0,0.0,1.3369,1.4784,1.713,1.9134,1.9821,2.226,2.4361,2.5133,2.5563,2.6184,2.7171,2.7712,2.8249,2.9021,2.8207,2.7406,2.6877,2.7298,2.761,2.761,2.761,2.7868,2.8465,2.8492,2.8465,2.8333,2.7755,2.705,2.6331,2.6378,2.584,2.4791,2.5476,2.552,2.5005,2.5005,2.5005,2.5005,2.5005,2.5005,2.5005,2.5005,2.5005,2.5061,2.5174,2.5572,2.5997,2.5589,2.5439,2.5465,0.0,0.0,0.0,0.0,0.0,0.0,0.0,0.0,0.0,0.0,0.0,0.0,0.0,0.0,0.0,0.0,0.0,0.0,1.2866,1.4045,1.5242,1.65,1.7678,1.8621,1.9202,2.0423,2.0938,2.0612,2.0989,2.104,2.0699,2.0662,2.0612,2.0612,1.9965,1.9708,1.9708,1.9121,1.9016,1.9226,1.9174,1.8814,1.835,1.7957,1.7429,1.6769,1.5731,1.4888,0.0,0.0,1.4593,1.4037,1.4812,1.4272,1.3377,1.3487,1.2539,0.0,1.1158,1.0919,0.0,0.0,1.1776,1.2355,1.4246,1.4893,1.5762,1.7968,1.9327,2.0741,2.2462,2.3784,2.4963,0.0,2.7139,2.794,2.8576,2.9799,3.0392,2.9615,2.9517,2.9255,2.8424,2.8926,2.9129,2.8763,2.8736,2.8845,2.9089,2.8777,2.8424,2.7958,2.7651,2.7171,2.6444,2.6217,2.5786,2.5347,2.5368,2.5236,2.5005,2.5005,2.5265,2.5707,2.5281,2.5379,2.5794,2.5493,2.5397,2.5439,2.5854,2.5993,2.5882,2.5591,2.5592,2.5673,0.0,0.0,0.0,0.0,0.0,0.0,0.0,0.0,0.0,0.0,0.0,0.0,0.0,0.0,0.0,0.0,0.0,0.0,0.0,1.5169,1.647,1.7435,1.8349,1.9149,1.9898,2.0794,2.1146,2.0948,2.1146,2.1146,2.0935,2.0777,2.0791,2.0884,2.0451,2.0385,2.0473,2.0104,2.003,2.0153,2.0244,1.9925,1.9296,1.8895,1.8215,1.7359,1.6073,1.5447,0.0,0.0,1.4988,1.4754,1.4942,1.4339,1.357,1.3557,1.2312,1.1015,1.1327,0.0,0.0,1.3037,1.3674,1.4459,1.6237,1.7175,1.8302,2.0618,2.1585,2.2613,2.4609,2.5108,2.5737,2.71,2.8381,2.9288,2.9652,3.133,3.1925,3.0168,3.0689,3.0691,2.955,2.9754,2.9835,2.9509,2.9333,2.9224,2.9224,2.8831,2.8333,2.7836,2.7823,2.7476,2.6671,2.6526,2.635,2.6026,2.5652,2.5412,2.5249,2.532,2.5527,2.5887,2.567,2.5768,2.6116,2.5758,2.5633,2.5675,2.6147,2.6133,2.5911,2.5647,2.5647,2.5659,0.0,0.0,0.0,0.0,0.0,0.0,0.0,0.0,0.0,0.0,0.0,0.0,0.0,0.0,0.0,0.0,0.0,0.0,0.0,1.5524,1.6885,1.8642,1.8766,1.9391,2.066,2.0712,2.0949,2.1485,2.0949,2.0949,2.1472,2.0961,2.0949,2.1485,2.1485,2.1786,2.2309,2.2309,2.1995,2.1485,2.1885,2.0882,1.9229,1.9472,1.8296,1.6534,1.6629,0.0,0.0,0.0,1.5152,1.5005,1.4479,1.4662,0.0,1.3873,1.2415,0.0,0.0,0.0,1.3121,1.4783,1.5847,1.692,1.8726,1.9751,2.0739,2.2049,2.3915,2.5378,2.5788,2.6855,2.7802,2.8222,2.919,3.0016,3.0266,3.1617,3.2221,3.123,3.1528,3.1103,0.0,2.9039,2.9107,2.9482,2.894,2.8627,2.8627,2.86,2.8587,2.8573,2.8573,2.8275,2.7678,2.8234,2.7936,2.6796,2.6769,2.6457,2.586,2.6062,2.5819,2.5285,2.6059,2.6047,2.5536,2.5508,2.5494,2.5494,2.5522,2.5966,2.6482,2.5883,2.5674,2.5729,0.0,0.0,0.0,0.0,0.0,0.0,0.0,0.0,0.0,0.0,0.0,0.0,0.0,0.0,0.0,0.0,0.0,0.0,0.0,1.5542,1.6701,1.8291,1.8682,1.9243,2.0074,2.0832,2.1132,2.0949,2.1564,2.1694,2.1511,2.1721,2.1917,2.2113,2.2113,2.2392,2.2923,2.2508,2.2698,2.3188,2.2636,2.1918,2.1043,2.0337,1.8906,1.7103,0.0,0.0,0.0,0.0,0.0,0.0,1.4875,0.0,0.0,1.307,0.0,0.0,0.0,0.0,1.5875,1.7329,1.8465,1.9582,2.0983,2.2071,2.3086,2.4157,2.4475,2.476,2.5357,2.591,2.667,2.789,2.9939,3.1553,3.2168,3.339,3.3521,3.1461,3.1737,0.0,0.0,0.0,0.0,2.9509,2.916,2.9052,2.917,2.8725,2.8444,2.8587,2.8444,2.8414,2.8429,2.8198,2.7974,2.7701,2.7349,2.6987,2.6676,2.6455,2.6489,2.6671,2.6189,2.6106,2.6315,2.5911,2.598,2.6343,2.6259,2.637,2.6566,2.6371,2.6036,2.5729,0.0,0.0,0.0,0.0,0.0,0.0,0.0,0.0,0.0,0.0,0.0,0.0,0.0,0.0,0.0,0.0,0.0,0.0,0.0,0.0,1.6441,1.7547,1.8014,1.8658,1.9514,2.026,2.0721,2.081,2.1573,2.1854,2.1693,2.2081,2.2427,2.2628,2.2628,2.3022,2.3645,2.3247,2.3301,2.3631,2.3107,2.2278,2.1221,2.0429,1.8892,0.0,0.0,0.0,0.0,0.0,0.0,0.0,0.0,0.0,0.0,0.0,0.0,0.0,0.0,1.7328,1.8396,2.0172,2.1263,2.2173,2.3016,2.3765,2.4611,2.5419,2.4793,2.4339,2.5129,2.5597,2.6166,2.6859,2.9217,3.1308,3.2285,3.3084,3.3098,3.1938,3.1986,3.1513,0.0,0.0,0.0,2.9496,2.9416,2.9254,2.917,2.8712,2.8444,2.8587,2.8444,2.8509,2.8716,2.8384,2.8208,2.8201,2.7787,2.7483,2.7157,2.7183,2.7301,2.7443,2.6734,2.6596,2.6764,2.6146,2.6132,2.6483,2.6329,2.6329,2.6315,2.6287,2.6078,2.5784,0.0,0.0,0.0,0.0,0.0,0.0,0.0,0.0,0.0,0.0,0.0,0.0,0.0,0.0,0.0,0.0,0.0,0.0,0.0,0.0,0.0,1.6661,1.697,1.7724,1.9058,1.9114,1.971,2.098,2.1139,2.1447,2.1979,2.2067,2.2376,2.2895,2.2985,2.351,2.4384,2.4345,2.3797,2.301,2.3329,2.1993,1.9918,1.9857,0.0,0.0,0.0,0.0,0.0,0.0,0.0,0.0,0.0,0.0,0.0,0.0,0.0,1.5693,1.8862,1.9992,2.0774,2.309,2.4121,2.4655,2.4747,2.4964,2.529,2.5815,2.4953,2.4317,0.0,0.0,2.6248,2.5464,2.7494,2.9655,3.1071,3.0999,3.1337,0.0,0.0,0.0,0.0,0.0,0.0,2.9523,0.0,2.9224,2.8668,2.8641,2.8641,2.8641,2.86,2.8587,2.8651,2.878,2.862,2.8243,2.8243,2.7986,2.7419,2.8182,2.8172,2.76,2.7717,2.7411,2.6764,2.6174,2.595,2.5936,2.5798,2.5798,2.5936,2.5798,2.5784,2.5893,0.0,0.0,0.0,0.0,0.0,0.0,0.0,0.0,0.0,0.0,0.0,0.0,0.0,0.0,0.0,0.0,0.0,0.0,0.0,0.0,0.0,0.0,0.0,0.0,0.0,0.0,0.0,0.0,0.0,2.1223,2.1695,2.1903,2.1959,2.1846,2.2452,2.2768,2.2878,2.2966,2.3329,2.3773,0.0,2.2154,2.1309,0.0,0.0,0.0,0.0,0.0,0.0,0.0,0.0,0.0,0.0,0.0,1.5002,0.0,0.0,1.9171,2.0102,2.1521,2.3019,2.4097,2.4805,2.5461,2.6333,2.705,2.7197,2.6398,2.5709,2.4906,0.0,0.0,0.0,2.7371,2.9318,0.0,3.3849,3.2996,0.0,3.3062,0.0,3.1245,3.0196,3.0902,0.0,0.0,2.9524,2.9281,2.9265,2.9119,2.9185,2.9383,2.8882,2.878,2.9162,2.9352,2.9268,2.9129,2.9191,2.9094,2.8864,2.8694,2.8545,2.8362,2.7973,2.7411,2.6793,2.6638,2.6582,2.6526,2.6021,2.6119,2.6526,2.6007,2.5893,2.5893,0.0,0.0,0.0,0.0,0.0,0.0,0.0,0.0,0.0,0.0,0.0,0.0,0.0,0.0,0.0,0.0,0.0,0.0,0.0,0.0,0.0,0.0,0.0,0.0,0.0,0.0,0.0,0.0,0.0,0.0,0.0,2.1555,2.183,2.1664,2.2199,2.2488,2.2559,2.2583,0.0,0.0,0.0,0.0,0.0,0.0,0.0,0.0,0.0,0.0,0.0,0.0,0.0,1.4063,1.4996,1.5423,1.5859,1.7017,0.0,2.0728,2.1804,2.3284,2.4777,2.5737,2.6206,2.6557,2.7136,2.7077,2.6668,2.59,2.4898,0.0,0.0,0.0,0.0,0.0,0.0,0.0,3.3511,3.2553,3.2003,0.0,3.261,0.0,3.0878,3.1245,3.1276,0.0,3.0252,2.9902,2.9509,2.9282,2.9227,2.9285,2.8828,2.8844,2.9415,2.9477,2.9477,2.9477,2.954,2.954,2.9477,2.919,2.9083,2.9055,0.0,2.7818,2.7214,2.6933,2.6652,2.6371,2.602,2.6104,2.6357,2.602,2.5893,2.5893,0.0,0.0,0.0,0.0,0.0,0.0,0.0,0.0,0.0,0.0,0.0,0.0,0.0,0.0,0.0,0.0,0.0,0.0,0.0,0.0,0.0,0.0,0.0,0.0,0.0,0.0,0.0,0.0,0.0,0.0,0.0,0.0,0.0,0.0,0.0,0.0,0.0,0.0,0.0,0.0,0.0,0.0,0.0,0.0,0.0,0.0,0.0,0.0,0.0,0.0,1.4992,1.493,1.5953,1.6325,1.679,1.8825,2.0262,2.1655,2.3804,2.5167,2.6258,2.762,2.783,2.7687,2.7565,2.642,2.5333,2.4978,0.0,2.2871,2.3586,0.0,2.674,2.6228,0.0,2.987,3.1967,3.118,3.117,3.3311,3.3031,3.239,3.1743,3.1189,3.0895,3.1066,3.1199,3.0798,2.9659,2.9457,2.9226,2.8871,2.878,2.8972,2.9415,2.9415,2.9477,2.9602,2.9602,2.9602,2.9665,2.9665,2.9727,2.9808,2.9163,2.8528,2.7894,2.7229,2.6526,2.5893,2.5893,2.5893,2.5893,2.5893,2.5893,2.5893,0.0,0.0,0.0,0.0,0.0,0.0,0.0,0.0,0.0,0.0,1.4127,1.3921,0.0,0.0,0.0,0.0,0.0,0.0,0.0,0.0,0.0,0.0,0.0,0.0,0.0,0.0,0.0,0.0,0.0,0.0,0.0,0.0,0.0,0.0,0.0,0.0,0.0,0.0,0.0,0.0,0.0,0.0,0.0,0.0,0.0,0.0,0.0,0.0,0.0,0.0,1.5587,1.5461,1.7048,1.7977,1.8825,2.0499,2.2469,2.4416,2.5871,2.677,2.7633,2.8851,2.8876,2.8418,2.8066,2.7479,0.0,0.0,0.0,2.4206,2.3476,2.4396,0.0,2.772,0.0,0.0,0.0,0.0,3.2104,0.0,0.0,0.0,0.0,0.0,0.0,0.0,0.0,3.0988,3.0283,3.0283,3.0047,2.9331,2.9352,2.9477,2.954,2.954,2.9602,2.9602,2.9602,2.9789,3.0205,3.0205,3.0433,3.0881,3.0303,0.0,2.8524,2.7867,2.6933,2.5893,2.5893,2.5893,2.5893,2.5893,2.5893,2.5893,0.0,0.0,0.0,0.0,0.0,0.0,0.0,1.41,1.5017,1.5705,1.5866,1.5693,1.5091,1.4676,1.4578,0.0,0.0,0.0,0.0,0.0,0.0,0.0,0.0,0.0,0.0,0.0,0.0,0.0,0.0,0.0,0.0,0.0,0.0,0.0,0.0,0.0,0.0,0.0,0.0,0.0,0.0,0.0,0.0,0.0,0.0,0.0,0.0,0.0,0.0,0.0,1.7062,1.7131,1.8722,1.9467,2.0135,2.1775,2.3903,2.5768,2.6109,2.7707,2.9448,2.9763,2.9579,2.916,2.8238,0.0,0.0,0.0,0.0,2.4177,2.4323,0.0,0.0,0.0,0.0,0.0,0.0,0.0,0.0,0.0,0.0,0.0,0.0,0.0,0.0,0.0,0.0,3.1297,3.0459,3.0062,2.9563,2.8999,2.9352,2.954,2.9477,2.9789,2.996,2.996,3.019,3.0433,3.0673,3.0673,3.0837,3.1073,3.0777,3.0075,2.9088,2.9088,2.8208,2.6769,2.6852,2.6798,2.6654,2.6096,2.6111,2.6258,0.0,0.0,0.0,0.0,0.0,0.0,0.0,1.4767,1.567,1.6933,1.7443,1.7391,1.6521,1.5552,1.5094,0.0,0.0,0.0,0.0,0.0,0.0,0.0,0.0,0.0,0.0,0.0,0.0,0.0,0.0,0.0,0.0,0.0,0.0,0.0,0.0,0.0,0.0,0.0,0.0,0.0,0.0,0.0,0.0,0.0,0.0,0.0,0.0,0.0,0.0,0.0,1.8213,1.837,1.9979,2.0521,2.0949,2.2518,2.4628,2.6423,2.637,2.8587,3.0855,3.0434,3.0383,2.9922,2.7981,2.6549,0.0,0.0,0.0,2.374,2.497,0.0,0.0,0.0,0.0,0.0,0.0,0.0,0.0,0.0,0.0,0.0,0.0,0.0,0.0,0.0,0.0,0.0,3.0528,2.969,2.9045,2.8729,2.9352,2.9665,2.954,3.0129,3.0433,3.0433,3.0851,3.1087,3.119,3.119,3.1306,3.1422,3.1306,0.0,2.9653,3.014,2.9333,2.7824,2.7831,2.768,2.7402,2.6301,2.615,2.6472,0.0,0.0,0.0,0.0,0.0,0.0,0.0,1.5467,1.6525,1.8208,1.7993,1.7764,1.788,1.6995,1.6186,0.0,0.0,0.0,0.0,0.0,0.0,0.0,0.0,0.0,0.0,0.0,0.0,0.0,0.0,0.0,0.0,0.0,0.0,0.0,0.0,0.0,0.0,0.0,0.0,0.0,0.0,0.0,0.0,0.0,0.0,0.0,0.0,0.0,0.0,0.0,0.0,1.7877,2.0022,2.0848,2.1204,2.2198,0.0,0.0,2.8019,2.9781,3.1157,3.1061,3.1349,3.0759,2.719,0.0,0.0,0.0,2.2976,2.35,2.441,0.0,0.0,0.0,0.0,0.0,0.0,0.0,0.0,0.0,0.0,0.0,0.0,0.0,0.0,0.0,0.0,0.0,3.0665,3.0021,2.947,2.9063,2.9699,3.0068,3.0068,3.0613,3.097,3.097,3.097,3.1306,3.1823,3.1823,3.2231,3.2881,3.2302,0.0,0.0,3.0462,2.9711,2.8533,2.8021,2.7813,2.7627,2.6363,2.5948,2.5948,0.0,0.0,0.0,0.0,0.0,0.0,1.5595,1.6162,1.7145,1.912,1.9185,1.917,1.9521,1.8588,1.742,1.6172,0.0,0.0,0.0,0.0,0.0,0.0,0.0,0.0,0.0,0.0,0.0,0.0,0.0,0.0,0.0,0.0,0.0,0.0,0.0,0.0,0.0,0.0,0.0,0.0,0.0,0.0,0.0,0.0,0.0,0.0,0.0,0.0,0.0,0.0,0.0,0.0,2.0201,2.0974,0.0,0.0,2.53,2.7453,2.8598,3.0824,3.2752,3.2431,3.1787,3.0572,2.8027,0.0,0.0,2.3416,2.3591,2.4257,2.5025,0.0,0.0,0.0,0.0,0.0,0.0,0.0,0.0,0.0,0.0,0.0,0.0,0.0,0.0,0.0,0.0,0.0,3.1666,3.0388,2.9756,2.9881,3.0007,3.0251,3.0539,3.1131,3.1437,3.1437,3.1709,3.1992,3.2216,3.2216,3.2398,3.2757,3.2468,0.0,0.0,3.1708,3.0724,2.9178,2.9271,2.8606,2.752,2.6716,2.6422,2.6312,0.0,0.0,0.0,0.0,0.0,1.4726,1.6131,1.6558,1.7425,1.9397,1.9618,1.9755,2.0143,1.9252,1.8275,1.7357,1.679,0.0,0.0,0.0,0.0,0.0,0.0,0.0,0.0,0.0,0.0,0.0,0.0,0.0,0.0,0.0,0.0,0.0,0.0,0.0,0.0,0.0,0.0,0.0,0.0,0.0,0.0,0.0,0.0,0.0,0.0,0.0,0.0,0.0,0.0,0.0,0.0,0.0,0.0,0.0,2.5376,2.7549,2.8429,3.0853,3.3029,3.2609,3.1523,3.0063,0.0,0.0,2.494,2.348,2.3955,2.4829,2.5411,2.6229,2.7202,0.0,0.0,3.08,0.0,0.0,0.0,0.0,0.0,0.0,0.0,0.0,0.0,0.0,0.0,0.0,3.2951,3.1363,3.0541,3.0729,3.0614,3.0658,3.1014,3.161,3.1894,3.1894,3.2231,3.2398,3.2453,3.2453,3.2523,3.2648,3.2578,0.0,0.0,3.2307,3.1413,2.9898,2.9754,2.8949,2.769,2.6869,2.6479,2.6418,0.0,0.0,0.0,0.0,0.0,0.0,1.6239,1.6621,1.7347,1.8913,1.8997,1.907,1.9454,1.8739,1.8518,1.9285,1.7854,0.0,0.0,0.0,0.0,0.0,0.0,0.0,0.0,0.0,1.8847,1.9707,2.0643,0.0,0.0,0.0,0.0,0.0,0.0,0.0,0.0,0.0,0.0,0.0,0.0,0.0,0.0,0.0,0.0,0.0,0.0,0.0,0.0,0.0,0.0,0.0,0.0,0.0,0.0,0.0,2.3863,2.6356,2.734,2.9456,3.1246,3.0919,3.0463,2.936,0.0,0.0,2.5249,2.3204,2.3863,2.4936,2.5356,2.6201,2.712,2.7915,2.8925,0.0,0.0,0.0,0.0,0.0,0.0,0.0,0.0,0.0,0.0,0.0,0.0,0.0,3.4298,3.3093,3.2121,3.1482,3.1457,3.148,3.148,3.2104,3.2398,3.2398,3.2398,3.2453,3.2594,3.2594,3.2718,3.2897,0.0,0.0,0.0,3.182,3.1435,3.0743,2.9056,2.839,2.818,2.654,2.5893,2.5893,0.0,0.0,0.0,0.0,0.0,0.0,0.0,1.6915,1.7625,1.9353,1.9105,1.9074,1.9841,1.9448,1.9283,1.9595,1.8578,0.0,0.0,0.0,0.0,0.0,0.0,0.0,0.0,0.0,1.9105,2.0119,2.1038,2.1849,2.2483,2.2699,0.0,0.0,0.0,0.0,0.0,0.0,0.0,0.0,0.0,0.0,0.0,0.0,0.0,0.0,0.0,0.0,0.0,0.0,0.0,0.0,0.0,0.0,0.0,0.0,0.0,0.0,2.8139,2.9467,3.0312,3.0904,2.9629,2.7866,2.6707,0.0,2.4819,2.3914,2.4512,2.5411,2.5823,2.6283,2.703,2.8338,2.9184,0.0,0.0,0.0,0.0,0.0,0.0,0.0,0.0,0.0,0.0,0.0,0.0,0.0,3.5059,3.3828,3.3013,3.2928,3.1989,3.1709,3.2247,3.2342,3.2398,3.2398,3.2398,3.2398,3.2453,3.2453,3.2523,0.0,0.0,3.2594,3.2547,3.1836,3.1052,3.0221,2.9637,2.8689,2.7602,2.7205,2.6816,2.6418,0.0,0.0,0.0,0.0,0.0,0.0,0.0,1.6924,1.7461,1.8859,1.8542,1.8583,1.9519,1.9395,1.9382,1.9658,1.9275,0.0,0.0,0.0,0.0,0.0,0.0,0.0,1.8046,1.8344,1.894,1.9835,2.0816,2.1615,2.2276,2.236,2.2102,2.1565,0.0,0.0,0.0,0.0,0.0,0.0,0.0,0.0,1.9535,0.0,0.0,0.0,0.0,0.0,0.0,0.0,0.0,0.0,0.0,0.0,0.0,0.0,0.0,0.0,0.0,2.8474,2.9027,3.0011,2.8616,0.0,0.0,0.0,2.4673,2.3974,2.4732,2.5647,2.6082,2.663,2.7501,2.8816,2.9743,0.0,0.0,0.0,0.0,0.0,0.0,0.0,0.0,0.0,0.0,0.0,0.0,0.0,3.5453,3.4409,3.3758,3.3604,3.2513,3.2176,3.2718,3.2578,3.2453,3.2453,3.2398,3.2398,3.2398,3.2453,3.2523,0.0,0.0,3.2648,0.0,3.1626,3.0819,3.0179,2.9489,2.8556,2.7595,2.7587,2.7199,2.6669,0.0,0.0,0.0,0.0,0.0,0.0,0.0,1.6773,1.7027,1.7726,1.7589,1.7769,1.8622,1.8767,1.8993,1.9517,0.0,0.0,0.0,0.0,0.0,0.0,0.0,0.0,1.7545,1.7953,1.8502,1.9151,2.0103,2.0865,2.1386,2.1261,2.126,2.1315,2.014,1.9773,1.9944,1.9362,1.9684,2.0599,2.0213,1.9794,0.0,0.0,0.0,0.0,0.0,0.0,0.0,0.0,0.0,0.0,0.0,0.0,0.0,0.0,0.0,0.0,0.0,0.0,0.0,0.0,0.0,0.0,0.0,0.0,0.0,2.3682,2.4571,2.5702,2.6244,2.7161,2.8218,2.9301,3.0371,0.0,0.0,0.0,0.0,0.0,0.0,0.0,0.0,0.0,0.0,0.0,0.0,0.0,3.5644,3.4919,3.4299,3.382,3.302,3.2703,3.2897,3.2648,3.2609,3.2655,3.2484,3.2413,3.2459,3.2539,3.2578,0.0,3.2843,3.2757,3.2408,3.1301,3.0725,3.0401,2.8793,2.8174,2.8125,2.7775,2.7335,2.6951,0.0,0.0,0.0,0.0,0.0,0.0,0.0,0.0,0.0,0.0,1.7856,1.7839,1.8025,1.8992,1.9219,0.0,0.0,0.0,0.0,0.0,0.0,0.0,0.0,0.0,1.8025,1.8095,1.8575,1.9483,2.0024,2.0657,2.1386,2.1103,2.1006,2.1099,2.0793,2.0744,2.0855,2.0428,2.0384,2.0685,2.0737,2.0342,0.0,0.0,0.0,0.0,1.9628,1.9402,0.0,0.0,0.0,0.0,0.0,0.0,0.0,0.0,2.4058,0.0,2.5108,0.0,2.587,2.6638,2.5807,0.0,0.0,0.0,0.0,0.0,0.0,2.6056,2.6759,2.7336,2.7939,2.8757,2.947,0.0,0.0,0.0,0.0,0.0,0.0,0.0,0.0,0.0,0.0,0.0,0.0,3.6477,3.643,3.5182,3.4574,3.4618,3.3324,3.2648,3.2648,3.2523,3.2715,3.3224,3.2644,3.2659,3.3152,3.2755,3.2523,0.0,3.2773,3.2477,3.1796,3.1099,3.051,2.9915,2.906,2.8716,2.8732,2.8919,2.8854,2.8703,0.0,0.0,0.0,0.0,0.0,0.0,0.0,0.0,0.0,0.0,0.0,0.0,0.0,0.0,0.0,0.0,0.0,0.0,0.0,0.0,0.0,0.0,0.0,1.7806,1.7669,1.7679,1.8155,1.9108,1.9746,2.0519,2.1355,2.1214,2.1231,2.1339,2.1003,2.0857,2.0852,2.046,2.0316,2.0368,2.057,0.0,0.0,0.0,0.0,0.0,1.9446,1.916,0.0,1.9371,1.9725,1.9993,0.0,0.0,0.0,0.0,2.3937,2.4589,2.4614,2.4799,2.5092,2.5552,2.4914,2.4085,0.0,0.0,0.0,0.0,0.0,0.0,2.6813,0.0,0.0,0.0,0.0,0.0,0.0,0.0,0.0,0.0,0.0,0.0,0.0,0.0,0.0,0.0,0.0,3.64,3.6274,3.5442,3.4901,3.4694,3.3599,3.3042,3.3184,3.3042,3.3172,3.3527,3.31,3.289,3.2921,3.2693,3.2408,0.0,3.2306,3.1971,3.1203,3.067,3.0235,2.9844,2.9203,2.9218,2.9501,2.9685,2.9816,2.9863,0.0,0.0,0.0,0.0,0.0,0.0,0.0,0.0,0.0,0.0,0.0,0.0,0.0,0.0,0.0,0.0,0.0,0.0,0.0,0.0,0.0,0.0,1.8227,1.802,1.7078,1.7233,1.779,1.8734,1.9498,2.0398,2.1439,2.1528,2.16,2.1652,2.091,2.055,2.0406,2.0181,2.0085,1.9998,2.037,0.0,0.0,0.0,0.0,0.0,0.0,0.0,0.0,1.8883,1.9459,2.0189,2.0373,0.0,0.0,0.0,0.0,0.0,2.4317,2.4554,2.4829,2.4719,2.4359,2.387,2.3303,0.0,0.0,0.0,0.0,0.0,0.0,0.0,0.0,0.0,0.0,0.0,0.0,0.0,0.0,0.0,0.0,0.0,0.0,0.0,0.0,0.0,0.0,3.6292,3.5887,3.5658,3.5214,3.4704,3.3937,3.3743,3.4125,3.3743,3.3624,3.3826,3.3409,3.2998,3.2536,3.257,3.2269,3.1727,0.0,0.0,3.076,3.0347,3.0097,2.9989,2.9485,2.9722,3.0354,3.0464,3.0519,3.0592,0.0,0.0,0.0,0.0,0.0,0.0,0.0,0.0,0.0,0.0,0.0,0.0,0.0,0.0,0.0,0.0,0.0,0.0,0.0,0.0,0.0,1.8352,1.8907,1.8642,1.7365,1.7759,1.8573,1.984,1.9765,2.0528,2.2052,2.1849,2.1511,2.1118,2.0819,2.0458,2.0125,2.0735,2.0758,2.05,0.0,0.0,0.0,0.0,0.0,0.0,0.0,0.0,0.0,2.0656,2.0132,1.9154,2.0161,0.0,0.0,0.0,0.0,0.0,2.4151,2.4275,2.446,2.3945,2.3733,2.3482,2.2686,0.0,0.0,0.0,0.0,0.0,0.0,0.0,0.0,0.0,0.0,0.0,0.0,0.0,0.0,0.0,0.0,0.0,0.0,0.0,0.0,0.0,0.0,3.6507,3.6569,3.5905,3.549,3.5502,3.4719,3.4642,3.5228,3.3486,3.3208,3.4364,3.3121,3.2798,3.3229,3.2786,3.2461,3.2299,0.0,3.2023,3.0822,3.0814,3.0571,3.018,3.0069,3.0449,3.1128,3.1729,3.1584,3.1058,0.0,0.0,0.0,0.0,0.0,0.0,0.0,0.0,0.0,0.0,0.0,0.0,0.0,0.0,0.0,0.0,0.0,0.0,0.0,0.0,1.859,1.738,1.8203,1.8269,1.7379,1.7167,1.7736,1.9078,1.9356,2.0321,2.1873,2.181,2.1524,2.1007,2.0794,2.0609,2.0473,2.0981,2.0811,2.0284,0.0,0.0,0.0,0.0,0.0,0.0,0.0,0.0,0.0,0.0,2.0269,1.9778,2.0344,0.0,0.0,0.0,0.0,0.0,2.3653,2.3672,2.3699,2.3424,2.3335,2.3206,2.2588,0.0,0.0,0.0,0.0,0.0,0.0,0.0,0.0,0.0,0.0,0.0,0.0,0.0,0.0,0.0,0.0,0.0,0.0,0.0,0.0,0.0,0.0,0.0,3.6723,3.6245,3.6091,3.6137,3.5428,3.5337,3.6014,3.3983,3.346,3.446,3.3429,3.2906,3.2844,3.2592,3.2067,3.1351,0.0,3.1368,3.0292,3.0717,3.082,3.0733,3.0733,3.116,3.1871,3.253,3.2222,3.1569,0.0,0.0,0.0,0.0,0.0,0.0,0.0,0.0,0.0,0.0,0.0,0.0,0.0,0.0,0.0,0.0,0.0,0.0,0.0,1.7921,1.7795,1.6655,1.73,1.7486,1.7043,1.6614,1.7084,1.8507,1.9137,2.027,2.182,2.1853,2.1697,2.1328,2.094,2.0833,2.1007,2.0976,2.0688,2.033,0.0,0.0,0.0,0.0,0.0,0.0,0.0,0.0,0.0,0.0,0.0,0.0,0.0,0.0,0.0,2.2556,2.3113,2.3623,2.3113,2.3077,2.3104,2.2937,0.0,2.3342,2.2803,0.0,0.0,0.0,0.0,0.0,0.0,0.0,0.0,0.0,0.0,0.0,0.0,0.0,0.0,0.0,0.0,0.0,0.0,0.0,0.0,0.0,0.0,0.0,3.6662,3.64,3.6322,3.6492,3.5691,3.5568,3.6245,3.4352,3.3767,3.446,3.3583,3.2906,3.2398,3.2398,3.1844,3.092,3.1413,3.1093,3.0292,3.0822,3.1193,3.1394,3.146,3.1792,3.2278,3.2709,3.2285,3.156,0.0,0.0,0.0,0.0,0.0,0.0,0.0,0.0,0.0,0.0,0.0,0.0,0.0,0.0,0.0,0.0,0.0,0.0,0.0,1.7561,1.7587,1.7257,1.6728,1.6371,1.6262,1.6713,1.7797,1.9504,1.9686,2.0718,2.2517,2.2209,2.2185,2.2345,2.1408,2.1175,2.1486,2.0692,2.074,2.1304,2.1296,0.0,0.0,0.0,0.0,0.0,0.0,0.0,0.0,0.0,0.0,0.0,0.0,0.0,2.2317,2.2134,2.2615,2.3128,2.2694,2.2795,2.3,2.2506,0.0,0.0,2.34,2.4682,0.0,0.0,0.0,0.0,0.0,0.0,0.0,0.0,0.0,0.0,0.0,0.0,0.0,0.0,0.0,0.0,0.0,0.0,0.0,0.0,0.0,0.0,3.6492,3.5891,3.5845,3.6476,3.523,3.4876,3.5553,3.4121,3.3767,3.446,3.3106,3.2444,3.2398,3.2398,3.2336,3.2259,3.2305,3.2068,3.168,3.1727,3.1795,3.1934,3.2136,3.2183,3.2127,3.2091,3.1513,3.068,0.0,0.0,0.0,0.0,0.0,0.0,0.0,0.0,0.0,0.0,0.0,0.0,0.0,0.0,0.0,0.0,0.0,0.0,0.0,1.6737,1.6601,1.6201,1.571,1.5854,1.6742,1.6939,1.7783,1.9424,2.0708,2.1748,2.2535,2.2281,2.1999,2.1681,2.1167,2.0887,2.0775,2.0721,2.0474,2.023,2.1154,2.1109,0.0,0.0,0.0,0.0,0.0,0.0,0.0,0.0,2.077,0.0,0.0,0.0,0.0,0.0,2.2484,2.2788,2.1784,2.238,2.3151,2.2551,0.0,0.0,0.0,0.0,0.0,0.0,0.0,0.0,0.0,0.0,0.0,0.0,0.0,0.0,0.0,0.0,0.0,0.0,0.0,0.0,0.0,0.0,0.0,0.0,0.0,0.0,3.6492,3.5845,3.5799,3.6476,3.5183,3.4799,3.5476,3.4106,3.3537,3.3798,3.2844,3.2613,3.3013,3.2582,3.2167,3.1782,3.2213,3.2122,3.171,3.2129,3.2422,3.2545,3.2651,3.2545,3.2422,3.2353,3.1812,3.118,0.0,0.0,0.0,0.0,0.0,0.0,0.0,0.0,0.0,0.0,0.0,0.0,0.0,0.0,0.0,0.0,0.0,0.0,1.6425,1.612,1.5945,1.5936,1.5498,1.6027,1.7684,1.7737,1.8434,1.9763,2.1462,2.2402,2.2544,2.2164,2.1787,2.1424,2.089,2.0637,2.0608,2.0406,2.0079,1.9788,2.0608,2.0571,0.0,0.0,0.0,0.0,0.0,0.0,0.0,0.0,2.0941,0.0,0.0,0.0,0.0,0.0,0.0,2.1837,2.1278,2.1966,2.2848,0.0,0.0,0.0,0.0,0.0,0.0,0.0,0.0,0.0,0.0,0.0,0.0,0.0,0.0,0.0,0.0,0.0,0.0,0.0,0.0,0.0,0.0,0.0,0.0,0.0,0.0,0.0,0.0,3.5537,3.5368,3.583,3.4522,3.4137,3.4814,3.366,3.3183,3.3398,3.2721,3.2628,3.3059,3.2613,3.2136,3.172,3.2198,3.2206,3.1928,3.2392,3.2718,3.2897,3.2843,3.2579,3.23,3.2501,3.1967,3.1182,0.0,0.0,0.0,0.0,0.0,0.0,0.0,0.0,0.0,0.0,0.0,0.0,0.0,0.0,0.0,0.0,0.0,0.0,1.6398,1.5797,1.5861,1.6849,1.6339,1.6975,1.9063,1.9308,1.9877,2.0799,2.1811,2.2432,2.2635,2.1857,2.1679,2.1901,2.0674,2.0553,2.1172,1.9738,1.9602,2.0327,1.966,2.0175,2.1316,0.0,0.0,0.0,0.0,0.0,0.0,0.0,0.0,0.0,0.0,0.0,0.0,0.0,2.0556,2.023,2.1274,2.1664,0.0,0.0,0.0,0.0,0.0,0.0,0.0,0.0,0.0,0.0,0.0,0.0,0.0,0.0,0.0,0.0,0.0,0.0,0.0,0.0,0.0,0.0,0.0,0.0,0.0,0.0,0.0,0.0,0.0,3.4845,3.4475,3.4475,3.3121,3.2721,3.3398,3.2736,3.2736,3.3383,3.2721,3.2398,3.2398,3.2398,3.2398,3.2398,3.2398,3.2453,3.2594,3.2594,3.2718,3.2897,3.2648,3.2176,3.1719,3.2331,3.1689,3.0535,0.0,0.0,0.0,0.0,0.0,0.0,0.0,0.0,0.0,0.0,0.0,0.0,0.0,0.0,0.0,0.0,0.0,0.0,1.6277,1.5968,1.6156,1.6954,1.6743,1.7468,1.9276,2.0476,2.1026,2.0948,2.1387,2.1223,2.0516,2.0426,2.0032,1.9421,2.002,1.9756,1.8894,1.9517,1.9685,1.9526,2.0148,2.0756,2.1358,0.0,0.0,0.0,0.0,0.0,0.0,0.0,0.0,0.0,0.0,0.0,0.0,2.0898,2.0867,2.0806,2.0937,0.0,0.0,0.0,0.0,0.0,0.0,0.0,0.0,0.0,0.0,0.0,0.0,0.0,0.0,0.0,0.0,0.0,0.0,0.0,0.0,0.0,0.0,0.0,0.0,0.0,0.0,0.0,0.0,0.0,0.0,3.4845,3.4475,3.4475,3.3121,3.2721,3.3398,3.2736,3.249,3.269,3.249,3.2644,3.309,3.2613,3.2398,3.2398,3.2398,3.2398,3.2453,3.2453,3.2523,3.2523,3.2453,3.2329,3.2175,3.2391,3.2206,3.1844,0.0,0.0,0.0,0.0,0.0,0.0,0.0,0.0,0.0,0.0,1.7496,0.0,0.0,0.0,0.0,0.0,0.0,0.0,0.0,1.6095,1.6479,1.7546,1.7853,1.8749,2.0335,2.1781,2.1821,2.0415,2.078,2.0431,1.9394,1.9431,1.9106,1.8622,1.9611,1.9387,1.8329,1.9095,1.92,1.8855,1.945,2.02,2.1036,0.0,0.0,0.0,0.0,0.0,0.0,0.0,0.0,0.0,0.0,0.0,0.0,2.0741,2.0356,1.9995,2.0716,0.0,0.0,0.0,0.0,0.0,0.0,0.0,0.0,0.0,0.0,0.0,0.0,0.0,0.0,0.0,0.0,0.0,0.0,0.0,0.0,0.0,0.0,0.0,0.0,0.0,0.0,0.0,0.0,0.0,0.0,3.4691,3.4214,3.366,3.2829,3.2582,3.2998,3.2598,3.2398,3.2398,3.2398,3.2613,3.2982,3.2582,3.2398,3.2398,3.2398,3.2398,3.2398,3.2398,3.2398,3.2398,3.2398,3.2398,3.2398,3.2398,3.2398,3.2398,0.0,0.0,0.0,0.0,0.0,0.0,0.0,0.0,0.0,0.0,1.7448,1.7264,0.0,0.0,0.0,0.0,0.0,0.0,0.0,1.6163,1.6778,1.8452,1.9372,2.0473,2.1781,2.2861,2.2141,1.9531,2.0113,1.9906,1.8993,1.876,1.8718,1.8897,1.9381,1.9276,1.8791,1.8525,1.8411,1.8306,1.8086,1.8992,2.0557,2.0878,0.0,0.0,0.0,0.0,0.0,0.0,0.0,0.0,0.0,0.0,2.0656,2.0671,1.9394,1.8437,0.0,0.0,0.0,0.0,0.0,0.0,0.0,0.0,0.0,0.0,0.0,0.0,0.0,0.0,0.0,0.0,0.0,0.0,0.0,0.0,0.0,0.0,0.0,0.0,0.0,0.0,0.0,0.0,0.0,0.0,0.0,3.4383,3.3767,3.2428,3.2398,3.2398,3.2398,3.2398,3.2398,3.2398,3.2398,3.2398,3.2398,3.2398,3.2398,3.2398,3.2398,3.2398,3.2398,3.2398,3.2398,3.2398,3.2398,3.2398,3.2398,3.2398,3.2398,3.2398,0.0,0.0,0.0,0.0,0.0,0.0,0.0,0.0,0.0,0.0,0.0,0.0,0.0,0.0,0.0,0.0,0.0,0.0,0.0,1.6436,1.7117,1.8528,2.0157,2.1269,2.1781,2.19,2.1212,1.9725,1.9609,1.909,1.8254,1.8188,1.804,1.7903,1.9482,1.9071,1.7252,1.8335,1.846,1.7956,1.8309,1.9387,2.0739,2.0822,2.124,0.0,0.0,0.0,0.0,0.0,0.0,0.0,2.1814,2.0895,2.0152,2.0594,1.9547,1.8846,0.0,0.0,0.0,0.0,0.0,0.0,0.0,0.0,0.0,0.0,0.0,0.0,0.0,0.0,0.0,0.0,0.0,0.0,0.0,0.0,0.0,0.0,0.0,0.0,0.0,0.0,0.0,0.0,0.0,0.0,3.3706,3.3629,3.326,3.2428,3.2398,3.2398,3.2398,3.2398,3.2398,3.2398,3.2398,3.2398,3.2398,3.2398,3.2398,3.2398,3.2398,3.2398,3.2398,3.2398,3.2398,3.2398,3.2398,3.2398,3.2398,3.2398,3.2398,3.2398,0.0,0.0,0.0,0.0,0.0,0.0,0.0,0.0,0.0,0.0,0.0,0.0,0.0,0.0,0.0,0.0,0.0,0.0,0.0,0.0,1.7479,1.9463,2.077,2.154,2.1738,2.1538,2.0632,1.9075,1.8847,1.8435,1.7894,1.7829,1.7994,1.8457,1.939,1.9063,1.7779,1.8155,1.8214,1.805,1.7993,1.9055,2.0629,2.048,2.0786,2.1431,2.2252,0.0,0.0,0.0,0.0,0.0,0.0,0.0,2.0556,2.1061,2.0198,1.9476,0.0,0.0,0.0,0.0,0.0,0.0,0.0,0.0,0.0,0.0,0.0,0.0,0.0,0.0,0.0,0.0,0.0,0.0,0.0,0.0,0.0,0.0,0.0,0.0,0.0,0.0,0.0,0.0,0.0,3.4856,3.3824,3.3721,3.3315,3.2413,3.2398,3.2398,3.2398,3.2398,3.2398,3.2398,3.2398,3.2398,3.2398,3.2398,3.2398,3.2398,3.2398,3.2398,3.2398,3.2398,3.2398,3.2398,3.2398,3.2398,3.2398,3.2398,3.2398,3.2398,0.0,0.0,0.0,0.0,0.0,0.0,0.0,0.0,0.0,0.0,0.0,0.0,0.0,0.0,0.0,0.0,0.0,0.0,0.0,0.0,0.0,2.009,2.0872,2.1283,2.139,2.1209,2.0209,1.8315,1.8129,1.8002,1.7915,1.7727,1.8256,1.9336,1.9412,1.9203,1.8725,1.8173,1.8015,1.813,1.7554,1.8479,2.0191,1.9893,2.0161,2.0812,2.1796,2.1357,2.0569,2.187,0.0,0.0,0.0,0.0,2.1039,2.1574,2.0813,2.0065,0.0,0.0,0.0,0.0,0.0,0.0,0.0,0.0,0.0,0.0,0.0,0.0,0.0,0.0,0.0,0.0,0.0,0.0,0.0,0.0,0.0,0.0,0.0,0.0,0.0,0.0,0.0,0.0,0.0,3.4801,3.4099,3.392,3.3427,3.2413,3.2398,3.2398,3.2398,3.2398,3.2398,3.2398,3.2398,3.2398,3.2398,3.2398,3.2398,3.2398,3.2398,3.2398,3.2398,3.2398,3.2398,3.2398,3.2398,3.2398,3.2398,3.2398,3.2398,3.2398,0.0,0.0,0.0,0.0,0.0,0.0,0.0,0.0,0.0,0.0,1.7496,0.0,0.0,0.0,0.0,0.0,0.0,0.0,0.0,0.0,0.0,1.841,1.9557,2.0186,2.0138,2.0319,1.9811,1.8463,1.7921,1.7966,1.8484,1.8292,1.8465,1.9007,2.0022,1.9651,1.822,1.8642,1.8383,1.767,1.7416,1.7973,1.9006,1.8901,1.9416,2.0294,2.1142,2.1103,2.0798,2.1911,2.1849,0.0,0.0,0.0,0.0,2.1401,2.0721,2.0116,0.0,0.0,0.0,0.0,0.0,0.0,0.0,0.0,0.0,0.0,0.0,0.0,0.0,0.0,0.0,0.0,0.0,0.0,0.0,0.0,0.0,0.0,0.0,0.0,0.0,0.0,0.0,0.0,3.4801,3.4581,3.3403,3.3197,3.2928,3.2398,3.2398,3.2398,3.2398,3.2398,3.2398,3.2398,3.2398,3.2398,3.2398,3.2398,3.2398,3.2398,3.2398,3.2398,3.2398,3.2398,3.2398,3.2398,3.2398,3.2398,3.2398,3.2398,3.2398,3.2398,0.0,0.0,0.0,0.0,0.0,0.0,0.0,0.0,0.0,0.0,0.0,1.7549,0.0,0.0,0.0,0.0,0.0,0.0,0.0,0.0,0.0,1.8563,1.91,1.9621,2.0113,1.9688,1.8899,1.7734,1.7973,1.8056,1.8015,1.8729,1.9371,1.9909,1.9997,1.9727,1.9198,1.8973,1.8835,1.8758,1.8268,1.8657,1.9489,1.9076,1.9417,2.0146,2.0487,2.0415,2.0242,2.0946,2.0766,2.0356,2.091,0.0,0.0,0.0,2.0923,0.0,0.0,0.0,0.0,0.0,0.0,0.0,0.0,0.0,0.0,0.0,0.0,0.0,0.0,0.0,0.0,0.0,0.0,0.0,0.0,0.0,0.0,0.0,0.0,0.0,0.0,0.0,0.0,0.0,3.424,3.4265,3.4102,3.3646,3.3245,3.2841,3.2547,3.2398,3.2398,3.2398,3.2398,3.2398,3.2398,3.2398,3.2398,3.2398,3.2398,3.2453,3.2749,3.2695,3.2453,3.2734,3.2695,3.2398,3.2398,3.2398,3.2398,3.2398,3.2398,3.2336,0.0,0.0,0.0,0.0,0.0,0.0,0.0,0.0,0.0,0.0,0.0,0.0,0.0,0.0,0.0,0.0,0.0,0.0,0.0,0.0,0.0,0.0,1.8562,1.8983,1.9587,1.909,1.8249,1.7064,1.8032,1.8208,1.765,1.8841,1.9767,2.0395,1.9984,1.9758,1.963,1.9277,1.9099,1.9049,1.8616,1.8778,1.9272,1.8918,1.9208,1.9852,1.9949,1.9818,1.9639,1.994,1.9777,1.9479,1.9982,1.9991,0.0,0.0,0.0,0.0,0.0,0.0,0.0,0.0,0.0,0.0,0.0,0.0,0.0,0.0,0.0,0.0,0.0,0.0,0.0,0.0,0.0,0.0,0.0,0.0,0.0,0.0,0.0,0.0,0.0,0.0,0.0,0.0,3.3992,3.4127,3.4593,3.4034,3.3471,3.2986,3.2602,3.2398,3.2398,3.2398,3.2437,3.2586,3.2437,3.2398,3.2398,3.2398,3.2398,3.2453,3.3002,3.2986,3.2641,3.3198,3.3093,3.2586,3.2586,3.2547,3.2398,3.2398,3.2275,3.2059,0.0,0.0,0.0,0.0,0.0,0.0,0.0,0.0,0.0,0.0,0.0,0.0,1.7408,1.7549,1.7439,1.6841,1.6977,1.6952,1.6623,1.6628,1.6659,1.6638,1.7545,0.0,1.764,1.847,1.8288,1.6996,1.7998,1.831,1.7988,1.8393,1.8951,1.9688,2.0332,1.9827,1.8548,1.9602,1.8984,1.7348,1.7631,1.7511,1.7228,1.7757,1.8407,1.9106,1.9572,1.953,1.9258,1.9398,1.9413,1.9457,1.967,1.9912,2.0306,0.0,0.0,0.0,0.0,0.0,0.0,0.0,0.0,0.0,0.0,0.0,0.0,0.0,0.0,0.0,0.0,0.0,0.0,0.0,0.0,0.0,0.0,0.0,0.0,0.0,0.0,0.0,0.0,0.0,0.0,0.0,3.439,3.4487,3.4068,3.3815,3.3314,3.2437,3.2382,3.2398,3.2398,3.2398,3.2641,3.3145,3.2641,3.2398,3.2398,3.2398,3.2398,3.2453,3.3002,3.3182,3.3182,3.3716,3.3665,3.3145,3.3145,3.2841,3.2398,3.2398,3.1982,3.1428,0.0,0.0,0.0,0.0,0.0,0.0,0.0,0.0,0.0,0.0,0.0,0.0,0.0,1.7368,1.7288,1.6914,1.6965,1.6965,1.6743,1.6717,1.7049,1.7749,1.8144,1.8461,1.8726,1.8785,1.8232,1.6996,1.8272,1.8558,1.797,1.8889,1.9593,2.0053,1.9966,1.9389,1.8516,1.9256,1.8849,1.7761,1.8301,1.8422,1.8303,1.9,1.936,0.0,0.0,0.0,0.0,1.9508,1.9325,1.9093,1.9551,1.9625,1.9735,2.0891,2.1801,2.2688,2.4119,0.0,0.0,0.0,0.0,0.0,0.0,0.0,0.0,0.0,0.0,0.0,0.0,0.0,0.0,0.0,0.0,0.0,0.0,0.0,0.0,0.0,0.0,0.0,0.0,0.0,0.0,0.0,0.0,3.4156,3.4431,3.3984,3.3471,3.2949,3.2602,3.2547,3.2895,3.2895,3.2986,3.3182,3.2986,3.2749,3.2382,3.2749,3.2895,3.2933,3.3853,3.3853,3.3287,3.4169,3.4219,3.3716,3.3716,3.3101,3.2269,3.2269,3.1638,3.0705,0.0,0.0,0.0,0.0,0.0,0.0,0.0,0.0,1.7425,1.7526,0.0,0.0,0.0,0.0,1.7117,1.6905,1.6879,1.6811,1.6743,1.6717,1.7133,1.808,1.8253,1.8616,1.9167,1.9045,1.8545,1.7622,1.882,1.904,1.8416,1.9279,1.9828,1.9986,1.9355,1.8843,0.0,0.0,0.0,1.7837,1.8672,1.8834,1.8664,1.931,0.0,0.0,0.0,0.0,0.0,1.9347,1.9258,1.9184,1.942,1.9509,1.971,2.0661,2.165,2.2778,2.423,2.5272,0.0,0.0,0.0,0.0,0.0,0.0,0.0,0.0,0.0,0.0,0.0,0.0,0.0,0.0,0.0,0.0,0.0,0.0,0.0,0.0,0.0,0.0,0.0,0.0,0.0,0.0,0.0,0.0,3.4431,3.3832,3.3298,3.2949,3.2949,3.3108,3.3459,3.3459,3.3459,3.3459,3.3303,3.2949,3.2453,3.2949,3.3182,3.3235,3.4317,3.4415,3.3802,3.4721,3.4636,3.3909,3.3909,3.3144,3.2056,3.2056,3.1428,3.0485,0.0,0.0,0.0,0.0,0.0,0.0,0.0,0.0,1.7126,1.7191,0.0,0.0,0.0,0.0,0.0,1.6811,1.6691,1.6623,1.6623,1.6528,1.6761,1.7379,1.7792,1.8258,1.8805,1.9203,1.9218,1.8805,1.9572,1.9779,1.94,1.9481,1.9498,1.9467,1.8578,1.8285,1.85,0.0,1.8532,1.7434,0.0,1.8579,1.8078,0.0,0.0,0.0,1.8659,1.8979,0.0,1.8993,1.9288,1.9717,1.9273,1.9727,2.0395,2.0495,2.1717,2.3234,0.0,0.0,0.0,0.0,0.0,0.0,0.0,0.0,0.0,0.0,0.0,0.0,0.0,0.0,0.0,0.0,0.0,0.0,0.0,0.0,0.0,0.0,0.0,0.0,0.0,0.0,0.0,0.0,3.3071,3.3282,3.3986,3.3387,3.2873,3.2422,3.3459,3.402,3.4003,3.402,3.402,3.4036,3.3511,3.3002,3.2437,3.2986,3.3235,3.3303,3.4366,3.4816,3.4847,3.5362,3.488,3.3723,3.3723,3.2938,3.1788,3.1788,3.1352,3.0784,0.0,0.0,0.0,0.0,0.0,0.0,1.7248,1.7288,1.7377,0.0,0.0,0.0,1.7032,1.6949,1.693,1.6946,1.6811,1.6743,1.6743,1.6596,1.6761,1.7379,1.7975,1.8451,1.8876,1.9155,1.9171,1.8857,1.9339,1.9487,1.9335,1.9449,1.9449,1.9306,1.8022,1.7514,1.756,1.7685,0.0,0.0,1.8235,1.8329,0.0,0.0,0.0,0.0,0.0,1.9509,0.0,0.0,2.015,1.9788,0.0,1.9912,2.021,2.0788,2.1683,2.2678,2.3394,0.0,0.0,0.0,0.0,0.0,0.0,0.0,0.0,0.0,0.0,0.0,0.0,0.0,0.0,0.0,0.0,0.0,0.0,0.0,0.0,0.0,0.0,0.0,0.0,0.0,0.0,0.0,3.3366,3.3626,3.3933,3.3799,3.3441,3.2761,3.3561,3.3925,3.3787,3.4314,3.4577,3.4577,3.4415,3.407,3.3578,3.4119,3.4366,3.4415,3.5068,3.5076,3.465,3.5296,3.5076,3.4297,3.4297,3.3201,3.1649,3.1649,3.0969,3.0101,0.0,0.0,0.0,0.0,0.0,1.8123,1.8046,1.7609,1.7494,0.0,0.0,0.0,1.7364,1.7295,1.7173,1.6869,1.6743,1.6665,1.6665,1.6501,1.6706,1.7321,1.805,1.8656,1.9091,1.9549,1.9703,1.9535,1.9441,1.9522,1.9703,1.9508,1.9352,1.919,1.8376,0.0,0.0,0.0,0.0,0.0,1.8483,0.0,0.0,1.951,1.9664,0.0,0.0,0.0,2.0448,2.0784,2.0825,0.0,0.0,0.0,2.0929,2.113,2.191,2.2794,2.3273,2.4328,2.541,0.0,0.0,0.0,2.8076,2.8861,2.955,0.0,0.0,0.0,0.0,0.0,0.0,0.0,0.0,0.0,0.0,0.0,0.0,0.0,0.0,0.0,0.0,3.2749,3.2911,3.3351,3.3662,3.3738,3.3498,3.3941,3.3824,3.2919,3.3465,3.3716,3.3723,3.4039,3.4272,3.4369,3.4369,3.4233,3.402,3.4264,3.4369,3.4336,3.4589,3.4455,3.4066,3.4506,3.4252,3.3575,3.3575,3.2723,3.1433,3.1433,3.1,3.0368,0.0,0.0,2.0141,1.9845,1.8988,1.8524,1.9119,1.8113,1.774,0.0,1.8495,1.8003,1.7971,1.7924,1.7606,1.685,1.668,1.6611,1.6611,1.6414,1.6595,1.7277,1.7972,1.8641,1.9276,2.0009,2.0398,2.0423,1.9741,1.969,2.0289,1.9533,1.9144,1.9091,0.0,0.0,0.0,0.0,0.0,1.8361,1.904,1.9749,0.0,0.0,1.9903,0.0,1.9538,2.0057,2.0873,2.079,2.144,0.0,0.0,0.0,0.0,0.0,2.2301,2.3341,2.3436,2.4323,2.5284,0.0,0.0,0.0,2.7643,2.8122,2.8673,2.9196,0.0,0.0,0.0,0.0,0.0,0.0,0.0,0.0,0.0,0.0,0.0,0.0,0.0,0.0,3.3072,3.3061,3.3252,3.3657,3.384,3.368,3.308,3.3951,3.3991,3.2868,3.3184,3.3446,3.352,3.3446,3.3496,3.3653,3.3736,3.3834,3.3925,3.3832,3.3719,3.3665,3.3506,3.3355,3.3288,3.3288,3.2882,3.2313,3.2313,3.1833,3.119,3.119,3.119,3.119,0.0,0.0,2.0781,1.9878,1.9745,1.9673,1.9264,1.9138,1.9137,1.9262,1.8917,1.8901,1.9637,1.9058,1.8406,1.7947,1.7586,1.738,1.738,1.6694,1.6595,1.7277,1.7404,1.7836,1.8671,1.9229,1.9849,2.046,1.9692,1.9641,2.0273,1.8943,1.8619,1.9061,0.0,0.0,0.0,0.0,0.0,1.8941,1.9273,0.0,2.0617,2.0602,2.0652,2.0772,2.0666,2.1045,2.1491,0.0,2.2048,2.2891,0.0,0.0,0.0,0.0,0.0,0.0,0.0,0.0,0.0,0.0,0.0,0.0,2.7997,2.8735,2.9104,0.0,0.0,0.0,0.0,0.0,0.0,0.0,0.0,0.0,0.0,0.0,0.0,0.0,0.0,0.0,3.2766,3.2368,3.2128,3.2192,3.3188,3.3826,3.4013,3.4341,3.3845,3.2463,3.3069,3.3128,3.2572,3.3128,3.3432,3.3481,3.4071,3.4061,3.3527,3.4095,3.4021,3.3465,3.3432,3.3068,3.2493,3.2493,3.2408,3.2313,3.2313,3.1833,3.119,3.119,3.119,3.119,2.1134,0.0,2.0975,2.0222,2.0223,2.0237,2.0118,1.9768,1.9684,2.0173,1.9968,1.9845,2.0029,1.9558,1.9021,1.8438,1.819,1.803,1.8,1.7525,1.739,1.773,1.7805,1.8206,1.8921,1.9263,1.9776,2.0441,1.9352,1.9269,2.0154,1.8707,1.8383,1.8958,0.0,0.0,0.0,0.0,1.9489,2.0208,1.9968,0.0,2.0968,2.067,2.1008,2.1605,2.1183,2.1639,2.2434,2.2701,2.3255,0.0,0.0,2.304,2.3255,0.0,2.3271,2.381,0.0,0.0,0.0,2.5207,0.0,0.0,0.0,2.7689,2.8013,0.0,0.0,0.0,0.0,0.0,0.0,0.0,0.0,0.0,0.0,0.0,0.0,0.0,0.0,0.0,3.3353,3.2982,3.2708,3.2607,3.3827,3.437,3.3895,3.3905,3.3609,3.2865,3.2493,3.229,3.2313,3.229,3.2493,3.2848,3.322,3.3203,3.2848,3.2848,3.2645,3.2273,3.1918,3.1749,3.1732,3.1732,3.1732,3.1732,3.1732,3.1512,3.119,3.119,3.119,3.119,2.0927,0.0,2.1023,2.0595,2.0574,2.0717,2.1022,2.0478,2.0326,2.1199,2.1099,2.0764,2.0241,2.002,1.9672,1.9037,1.8759,1.8653,1.8717,1.8315,1.813,1.8254,1.8346,1.8594,1.8997,1.9358,1.9763,2.0203,1.8918,1.8898,2.0085,1.852,1.8241,0.0,0.0,0.0,0.0,0.0,0.0,2.1332,0.0,2.0952,2.1312,2.0895,2.142,2.2262,2.1734,2.2233,2.3243,2.3866,0.0,2.4405,2.3752,2.3915,0.0,0.0,0.0,0.0,0.0,0.0,0.0,0.0,0.0,2.5577,0.0,0.0,0.0,0.0,0.0,0.0,0.0,0.0,0.0,0.0,0.0,0.0,0.0,0.0,0.0,0.0,0.0,0.0,3.3811,3.3584,3.3412,3.3398,3.4587,3.4823,3.3677,3.3491,3.3339,3.3186,3.1901,3.1478,3.207,3.1495,3.1495,3.207,3.2246,3.2138,3.185,3.1393,3.1123,3.0954,3.0362,3.0531,3.119,3.119,3.119,3.119,3.119,3.119,3.119,3.119,3.119,3.119,2.0828,2.1103,0.0,2.0744,2.1023,2.1319,2.1339,2.1839,2.2086,2.1711,2.1638,2.1474,2.1166,2.0927,2.0654,2.0381,1.9601,0.0,1.9883,0.0,1.7827,1.8436,1.8269,1.7961,1.7543,1.8702,1.9398,1.9524,1.8655,1.8866,2.007,1.8049,1.8044,0.0,1.8467,0.0,0.0,0.0,2.0498,0.0,2.1855,2.1873,0.0,2.216,2.235,2.2446,2.291,2.3163,2.3302,0.0,2.4002,2.4482,0.0,2.4082,0.0,0.0,0.0,0.0,0.0,0.0,0.0,0.0,2.5836,0.0,0.0,0.0,0.0,0.0,0.0,0.0,0.0,0.0,0.0,0.0,0.0,0.0,0.0,0.0,0.0,0.0,0.0,0.0,0.0,3.2799,3.2722,3.3355,3.4167,3.4539,3.437,3.3761,3.3102,3.2425,3.1613,3.1241,3.1309,3.1241,3.1241,3.1326,3.1968,3.1613,3.0378,3.0937,3.0835,3.0226,3.0142,3.0531,3.119,3.119,3.119,3.119,3.119,3.119,3.119,3.119,3.119,3.119,2.0827,2.0893,0.0,0.0,2.1039,2.147,2.1664,2.2356,2.2668,2.229,2.2274,2.222,2.2058,0.0,0.0,0.0,0.0,2.0575,0.0,0.0,1.9421,1.9541,1.9103,1.8917,1.9025,1.9242,1.9502,1.9752,1.8964,1.9049,1.9839,1.8545,1.8846,0.0,1.9827,0.0,2.1066,0.0,0.0,0.0,0.0,0.0,0.0,2.205,2.257,2.2893,2.3575,2.3968,2.4193,0.0,2.4658,0.0,0.0,0.0,0.0,0.0,0.0,0.0,0.0,0.0,0.0,0.0,0.0,0.0,0.0,0.0,2.837,0.0,0.0,0.0,0.0,0.0,0.0,0.0,0.0,0.0,0.0,0.0,0.0,0.0,0.0,0.0,0.0,0.0,0.0,0.0,3.3592,3.4117,3.3254,3.2916,3.2611,3.229,3.1562,3.119,3.119,3.119,3.119,3.119,3.1495,3.0886,2.9482,3.0226,3.0159,2.9482,2.9922,3.0294,3.0565,3.0565,3.0565,3.0565,3.0565,3.0818,3.119,3.119,3.119,3.119,2.1045,0.0,0.0,0.0,0.0,2.1892,2.2474,2.2976,2.3201,2.2898,2.2905,0.0,2.267,2.2734,0.0,0.0,0.0,2.1903,0.0,0.0,2.0601,2.0079,1.9801,0.0,1.9682,1.9641,1.9667,1.9662,1.9163,1.92,1.9675,1.9031,1.9396,2.0602,0.0,2.0931,2.1415,0.0,0.0,2.0972,2.1781,2.1662,2.1093,2.1976,2.2647,2.3259,2.3948,2.4358,2.4532,2.4587,2.483,0.0,2.4372,0.0,0.0,0.0,0.0,0.0,2.533,0.0,0.0,0.0,0.0,0.0,0.0,0.0,0.0,0.0,0.0,0.0,0.0,0.0,2.956,2.9649,0.0,3.0568,0.0,0.0,0.0,0.0,0.0,0.0,0.0,0.0,0.0,3.1918,3.3474,3.3931,3.2662,3.2391,3.2313,3.2313,3.1562,3.119,3.119,3.119,3.1089,3.0903,3.0903,3.0226,2.9045,2.955,2.9617,2.9313,2.9651,2.9922,3.0091,2.9888,2.9922,3.0108,3.0108,3.0548,3.119,3.119,3.119,3.119,2.1647,2.1252,0.0,0.0,0.0,2.2816,2.412,2.4122,2.3853,2.3608,0.0,0.0,0.0,0.0,0.0,0.0,0.0,2.3076,2.2669,0.0,2.0607,0.0,0.0,0.0,0.0,1.951,1.9779,1.885,1.8936,1.9235,1.9711,1.9204,1.9299,1.9843,0.0,2.0822,2.2095,2.0727,2.0983,2.2178,2.1599,2.1723,2.2262,0.0,2.2763,2.3394,2.4071,0.0,0.0,2.3992,2.3827,0.0,0.0,0.0,0.0,0.0,0.0,0.0,0.0,0.0,0.0,2.5663,0.0,0.0,0.0,0.0,2.7176,0.0,0.0,0.0,0.0,2.987,2.9722,3.0103,3.0359,0.0,0.0,0.0,0.0,0.0,0.0,0.0,0.0,0.0,3.3406,3.3339,3.4066,3.4167,3.3406,3.2679,3.2313,3.2313,3.1562,3.119,3.119,3.119,3.0835,3.0142,3.0142,2.9736,2.9011,2.9008,2.9397,3.004,2.9313,2.9431,3.004,2.9313,2.9448,3.0108,3.0108,3.0548,3.119,3.119,3.119,3.119,0.0,0.0,0.0,0.0,0.0,2.3048,2.3802,2.4263,0.0,0.0,0.0,0.0,0.0,0.0,2.4884,0.0,0.0,2.3714,2.314,2.2489,0.0,0.0,0.0,2.1286,0.0,0.0,2.0502,1.9587,1.9502,1.9551,1.969,1.948,2.0119,2.1401,0.0,2.1927,0.0,0.0,0.0,0.0,0.0,2.2117,2.2987,0.0,0.0,2.3732,2.3951,2.4254,0.0,2.4661,2.4276,2.3819,2.3803,2.3594,2.3438,2.3877,2.4084,0.0,0.0,0.0,2.606,2.6904,0.0,0.0,0.0,0.0,0.0,0.0,0.0,0.0,0.0,3.0426,3.0384,3.0526,3.0692,3.0855,0.0,0.0,0.0,0.0,0.0,0.0,0.0,0.0,0.0,3.1935,3.2171,3.2205,3.1952,3.2154,3.207,3.1579,3.1782,3.1681,3.119,3.0717,3.0362,3.0108,3.0108,2.9702,2.9008,3.0006,3.0057,2.9381,2.9617,2.9296,2.8586,2.8315,2.867,2.9364,2.9364,3.0108,3.119,3.119,3.119,3.119,2.196,0.0,0.0,0.0,0.0,0.0,0.0,0.0,0.0,0.0,2.5462,0.0,2.5376,0.0,2.5664,0.0,2.4633,2.4365,2.3567,2.3264,0.0,2.1985,2.2044,0.0,0.0,0.0,2.1019,2.0375,2.0216,2.0264,2.0452,1.9929,2.0399,2.1774,0.0,0.0,0.0,0.0,2.3079,0.0,0.0,2.2429,0.0,0.0,2.2535,2.3597,0.0,2.4072,2.4612,2.4738,2.4412,2.3951,2.3901,2.3612,2.3385,2.3802,2.4045,2.4353,2.5257,2.5462,0.0,2.6767,2.6686,0.0,2.7981,0.0,0.0,0.0,0.0,0.0,0.0,0.0,3.0567,3.0301,3.0606,3.0895,0.0,3.0935,0.0,0.0,0.0,0.0,0.0,0.0,3.1557,3.1151,3.1388,3.1421,0.0,0.0,3.1952,3.1207,3.1901,3.1799,3.0818,3.0345,2.9837,2.9296,2.9567,2.9448,2.9062,3.0243,3.0294,2.9397,2.9617,2.8991,2.7772,2.7537,2.8044,2.9011,2.9011,2.9888,3.119,3.119,3.119,3.119,0.0,0.0,0.0,0.0,2.3335,0.0,0.0,0.0,2.4652,0.0,2.5555,2.5555,2.5524,2.5916,2.5805,2.4966,2.5237,0.0,2.4008,2.3923,0.0,0.0,2.1487,2.1111,2.0268,0.0,0.0,0.0,2.1029,2.1341,2.187,2.0526,2.0337,2.1098,2.1179,0.0,2.2896,2.2959,2.3159,2.3323,2.2617,2.2609,2.3016,2.2886,2.2959,2.3147,2.3266,2.3565,2.3935,2.4294,2.4156,2.3836,2.3869,2.2927,2.2083,2.3384,2.3546,2.3573,2.4998,2.5342,2.5315,2.549,0.0,0.0,0.0,0.0,2.7721,0.0,0.0,0.0,0.0,0.0,3.0286,2.9582,3.0185,3.0692,3.0692,0.0,0.0,0.0,0.0,0.0,0.0,3.189,3.2049,3.1112,3.1645,0.0,0.0,0.0,3.1985,3.1207,3.1901,3.1579,3.0125,3.0074,2.933,2.7892,2.8619,2.9011,2.9008,2.977,3.0074,2.9956,2.9245,2.8484,2.7671,2.703,2.7622,2.9011,2.9047,2.9963,3.123,3.119,3.119,3.119,2.301,2.3061,2.3209,0.0,2.3483,2.3738,0.0,0.0,0.0,0.0,2.6579,2.6718,2.6224,2.6526,2.6261,2.5013,2.4981,0.0,0.0,0.0,0.0,2.3548,2.3173,2.2817,2.2578,2.2344,0.0,2.1987,2.1835,2.1812,2.1979,2.1514,2.1711,2.248,0.0,0.0,2.4296,2.4342,2.4595,2.4867,2.4032,2.4213,0.0,0.0,2.4007,2.4572,2.3962,2.3803,2.3935,2.4294,2.3819,2.3179,2.367,2.3075,2.2344,2.3196,2.301,2.2732,2.3634,2.4409,2.5192,2.6038,2.6419,2.6726,0.0,0.0,0.0,0.0,0.0,0.0,0.0,0.0,0.0,3.0583,3.064,3.0692,3.0692,0.0,0.0,0.0,0.0,0.0,0.0,3.0759,3.0551,3.1189,3.0835,0.0,0.0,0.0,0.0,3.1241,3.1901,3.1579,3.0125,2.955,2.9076,2.8687,2.889,2.9011,2.9008,2.977,2.9482,2.8364,2.8197,2.7689,2.7013,2.7041,2.7978,2.9386,2.9591,3.0595,3.1894,3.1368,3.119,3.119,2.3288,0.0,0.0,2.4444,0.0,0.0,2.5109,0.0,0.0,2.6226,2.6703,0.0,2.5995,2.6386,2.6127,2.4764,2.4639,0.0,0.0,0.0,0.0,2.3887,2.3304,2.2948,2.2918,2.2344,0.0,2.2809,0.0,0.0,2.2909,2.2173,2.2209,2.3036,0.0,2.4311,0.0,2.5046,2.5338,2.5664,2.4509,0.0,0.0,2.4646,2.4558,2.4972,2.43,2.4211,2.443,2.4567,2.401,2.3396,2.4074,2.3366,2.2424,2.3102,2.3025,2.291,2.3771,2.4241,2.4814,2.6172,2.6367,2.6455,2.73,2.7631,2.7789,0.0,0.0,0.0,0.0,0.0,0.0,3.0886,3.0773,3.0609,0.0,0.0,0.0,0.0,0.0,0.0,3.1718,2.9799,2.9111,3.0569,3.0196,0.0,0.0,0.0,0.0,3.1419,3.2083,3.1666,3.0038,2.9775,2.9434,2.8939,2.9109,2.9263,2.9438,2.9833,2.9264,2.7998,2.7998,2.7606,2.694,2.7493,2.8293,2.9288,3.0117,3.0937,3.1707,3.1664,3.1542,3.1428,0.0,0.0,0.0,0.0,0.0,0.0,0.0,2.5087,0.0,2.6364,0.0,2.638,2.5672,2.6026,2.5826,2.4548,0.0,2.4302,2.4302,2.4302,2.404,2.3456,2.2686,2.2416,2.2662,2.1869,0.0,0.0,0.0,2.2922,2.4131,2.2728,2.2475,0.0,0.0,0.0,0.0,2.544,2.573,0.0,2.4562,2.4773,2.5921,2.513,2.4884,2.4909,2.4476,2.4537,2.483,2.4821,2.443,2.4036,2.4634,2.3663,2.2394,2.2994,2.304,2.3157,2.4202,2.4166,2.4222,2.5879,2.579,2.5612,2.6723,2.7341,2.7587,2.7418,2.7452,2.725,0.0,0.0,0.0,3.061,0.0,0.0,0.0,0.0,0.0,0.0,0.0,0.0,0.0,2.9242,0.0,0.0,0.0,0.0,0.0,0.0,0.0,3.1668,3.2273,3.1856,3.0254,0.0,3.0127,2.9347,2.9415,2.9641,2.9983,2.9814,2.9199,2.8178,2.8178,2.7848,2.7296,2.8031,2.8635,2.9233,3.0768,3.1366,3.1454,3.202,3.2091,3.1787,0.0,0.0,0.0,0.0,0.0,2.629,2.6949,2.6934,2.6949,2.7196,2.7703,2.7796,2.7103,2.6611,2.5966,2.521,2.4625,0.0,0.0,0.0,0.0,2.4133,2.2948,2.2987,2.4406,2.2702,2.2877,0.0,2.3919,2.3685,2.4354,2.3849,2.372,0.0,0.0,0.0,2.5885,2.6214,0.0,2.6471,2.5209,2.5254,2.5997,2.5153,2.5035,2.5303,2.4567,2.4177,2.4062,2.4315,2.4348,2.4271,2.4379,2.3458,2.2317,2.2424,2.167,2.1054,2.2079,2.2959,2.384,2.4985,2.5847,2.6337,2.5966,2.6421,2.6539,2.5321,2.5732,2.623,2.6035,0.0,0.0,0.0,0.0,0.0,0.0,0.0,0.0,0.0,0.0,0.0,0.0,0.0,0.0,0.0,0.0,0.0,0.0,0.0,0.0,0.0,3.2088,0.0,0.0,0.0,3.1132,3.1771,3.0464,2.9857,2.9904,2.9225,2.8464,2.7656,2.7656,2.76,2.7552,2.7865,2.8976,3.061,3.2265,3.2845,3.2733,3.2666,3.2537,3.2369,0.0,0.0,0.0,0.0,0.0,0.0,0.0,2.815,0.0,2.7442,2.7673,2.7626,2.6949,2.6872,2.6457,2.541,2.501,2.4687,2.4333,2.4302,2.4302,2.4302,2.3188,0.0,2.4288,2.2537,2.2662,2.4874,2.3766,2.3746,2.4775,2.4533,0.0,2.4492,0.0,2.6156,0.0,0.0,0.0,2.6066,2.5227,2.5351,2.5941,2.5114,2.4918,2.5059,2.4492,2.4225,2.4098,2.4236,2.4071,2.384,2.4194,2.3625,2.2809,2.2809,2.2251,2.1737,2.2439,2.3173,2.3935,2.4579,2.5445,2.593,2.5203,2.5287,2.5402,2.4825,2.4802,2.5172,2.6231,2.7456,0.0,0.0,0.0,0.0,0.0,0.0,0.0,0.0,0.0,0.0,0.0,0.0,0.0,0.0,0.0,0.0,0.0,0.0,3.2619,0.0,0.0,0.0,0.0,0.0,0.0,3.156,3.0141,2.9594,2.9722,2.8912,2.8229,2.7701,2.776,2.7742,2.7806,2.8518,2.9561,3.0923,3.2139,3.2589,3.2565,3.2769,3.2834,3.2737,0.0,2.6329,0.0,0.0,2.7291,0.0,2.8993,2.875,2.8273,2.7873,2.7703,2.7411,2.6872,2.7165,2.6949,2.5857,2.5487,2.5087,2.4564,2.4379,2.4302,2.4302,2.3342,2.3222,2.4119,2.2343,2.2459,0.0,2.3545,2.367,0.0,2.4855,0.0,0.0,0.0,0.0,0.0,0.0,2.6202,2.5763,2.5229,2.5438,2.5937,2.5192,2.4879,2.4775,2.4426,2.4343,2.4426,2.4426,2.4029,2.3579,2.4045,2.3745,2.3173,2.3134,2.2922,2.2805,2.3187,2.3736,2.428,2.4464,2.505,2.5372,2.4458,2.4286,2.4296,2.4402,2.4192,2.4566,2.6552,2.7555,0.0,0.0,0.0,0.0,0.0,0.0,0.0,0.0,0.0,0.0,0.0,0.0,0.0,0.0,0.0,3.0313,3.0483,3.1878,3.2644,0.0,0.0,3.2902,3.2787,0.0,3.1662,3.1534,3.0113,2.9579,2.9808,2.8811,2.8228,2.7971,2.8027,2.8106,2.8319,2.9561,3.0445,3.1092,3.19,3.2224,3.2295,3.2796,3.2979,3.2948,0.0,0.0,0.0,0.0,0.0,0.0,0.0,2.8442,2.8611,2.915,2.8688,2.8288,2.8227,2.7734,2.7349,2.7211,2.6041,2.5287,2.5226,2.4656,2.4302,2.4302,2.3342,2.3612,2.5298,2.2965,2.2936,0.0,0.0,2.3802,2.4393,2.4828,0.0,0.0,0.0,0.0,0.0,2.645,2.6538,2.6438,2.5731,2.568,2.5937,2.5497,2.5153,2.4839,2.4451,2.4533,2.4823,2.4823,2.4567,2.4143,2.3905,2.3378,2.2796,2.2481,2.2424,2.2508,2.2862,2.395,2.493,2.4582,2.505,2.5236,2.3816,2.3494,2.3396,2.2976,2.3769,2.5069,2.6932,2.6943,2.7105,0.0,0.0,0.0,0.0,0.0,0.0,0.0,0.0,0.0,0.0,0.0,0.0,0.0,0.0,3.0992,3.1363,3.1927,3.2616,3.3459,0.0,3.4291,3.5331,3.3619,3.3162,3.3962,3.1649,3.0563,3.0532,2.9026,2.8246,2.8182,2.8182,2.8592,2.9376,3.0945,3.1649,3.1805,3.2599,3.2921,3.2921,3.2993,3.2948,3.2916,0.0,0.0,0.0,0.0,0.0,0.0,0.0,2.9273,2.9119,2.9381,2.8827,2.855,2.8965,2.8411,2.7657,2.6826,2.6272,2.561,2.4764,2.4456,2.4426,2.4639,2.365,2.3552,2.454,2.2934,2.2778,0.0,0.0,2.4343,2.5419,2.4869,0.0,0.0,0.0,2.6085,2.6382,2.6537,2.6387,2.6016,2.6101,2.6115,2.6049,2.5848,2.5572,2.5237,2.5098,2.5121,2.5275,2.5275,2.516,2.5012,2.484,2.4319,2.3827,2.412,2.3762,2.3342,2.3471,2.4429,2.5042,2.3549,2.4408,2.5101,2.319,2.3088,2.3454,2.3624,2.5059,2.6501,2.7236,2.7664,2.7777,0.0,0.0,0.0,0.0,0.0,0.0,0.0,0.0,0.0,0.0,0.0,0.0,0.0,0.0,0.0,3.1839,3.202,3.2876,3.4644,0.0,3.3921,3.5169,3.3219,3.2406,3.2711,3.1267,3.0344,2.9908,2.9265,2.8979,2.8997,2.9405,2.9826,3.0266,3.1291,3.175,3.1821,3.2644,3.2948,3.2948,3.2948,3.2916,3.2916,2.9939,0.0,3.0381,0.0,3.0304,3.0027,3.0104,2.955,2.9196,2.9381,2.8827,2.8581,2.9058,2.8688,2.8011,2.7026,2.6595,2.5964,2.4979,2.4533,2.4492,2.4863,2.3855,0.0,2.4216,2.2979,2.2608,2.3261,2.3516,0.0,2.5018,0.0,0.0,0.0,2.5281,2.5606,2.6435,2.6589,2.632,2.5932,2.6421,2.6469,2.6227,2.6101,2.5868,2.5652,2.554,2.5577,2.5689,2.5689,2.5631,2.5491,2.5134,2.4691,2.43,2.4486,2.4331,2.403,2.3814,2.4658,2.5186,2.3393,2.412,2.4864,2.3308,2.3173,2.3579,2.4191,2.5965,2.7417,2.7417,2.7984,2.814,2.7098,0.0,0.0,0.0,0.0,0.0,0.0,0.0,2.4069,2.4764,0.0,0.0,0.0,0.0,0.0,3.202,3.2347,0.0,0.0,0.0,0.0,3.542,3.3566,3.2552,3.246,3.144,3.0641,3.0065,2.9833,2.9755,2.983,3.054,3.0916,3.1017,3.1505,3.1831,3.2081,3.2402,3.2702,3.2916,3.2916,3.2916,3.2916,3.0246,3.1394,3.2151,3.149,3.1366,3.092,2.9627,2.8842,2.8658,2.9319,2.8827,2.8411,2.8411,2.8411,2.8396,2.8381,2.7149,2.638,2.6364,2.5072,2.4492,0.0,0.0,2.3826,2.496,2.3217,2.2596,2.3217,0.0,0.0,2.2276,0.0,2.4679,2.5438,2.6092,2.6281,2.6123,2.6539,2.664,2.6589,2.6674,2.6657,2.6572,2.6227,2.6104,2.6052,2.5652,2.5762,2.6087,2.6087,2.5882,2.5376,2.4281,2.3918,2.3701,2.2651,2.3359,2.4323,2.3596,2.4492,2.5423,2.4644,2.4506,2.4523,2.4489,2.39,2.3579,2.4191,2.5965,2.7417,2.7417,2.7566,2.7701,2.7683,0.0,0.0,0.0,0.0,0.0,0.0,2.631,2.7014,2.4903,0.0,0.0,0.0,0.0,0.0,0.0,0.0,0.0,3.4782,3.5633,0.0,3.6961,3.538,3.4473,3.4263,3.2715,3.187,3.1653,3.085,3.0493,3.0529,3.1332,3.1689,3.1689,3.1689,3.217,3.2827,3.201,3.2188,3.2916,3.2916,3.2916,3.2916,3.1302,3.1465,3.1442,3.1428,3.1382,3.1089,3.0228,3.0289,3.0351,3.012,2.992,2.9612,2.915,2.8673,2.8227,0.0,2.7319,2.6793,0.0,2.5634,2.5473,2.5705,2.4423,2.4001,2.4656,2.3573,2.3038,2.3137,0.0,0.0,0.0,2.4236,2.4821,2.4729,2.5232,2.5818,2.6435,2.664,2.6708,2.6674,2.6691,2.6708,2.664,2.6556,2.6505,2.6505,2.635,2.6401,2.6505,2.6505,2.6421,2.6184,2.5344,2.4723,2.4351,2.4512,2.4526,2.4455,2.4218,2.4475,2.4661,2.3917,2.412,2.4506,2.4506,2.503,2.557,2.5823,2.7094,2.8139,2.8139,2.8004,2.7811,2.7547,2.7065,0.0,0.0,0.0,0.0,0.0,0.0,2.5209,0.0,2.6348,0.0,0.0,0.0,0.0,0.0,0.0,0.0,0.0,3.4953,0.0,3.7309,3.5429,3.4411,3.4299,3.3242,3.2378,3.1689,3.1421,3.1314,3.1367,3.217,3.2509,3.2509,3.2509,3.2684,3.288,3.263,3.2652,3.2916,3.2916,3.2916,3.2916,3.2239,3.2353,3.2252,3.2198,3.2136,3.1844,3.092,3.092,3.0874,3.0474,3.0428,3.0166,2.9489,2.9042,0.0,2.7827,2.755,2.7194,2.6756,2.6188,2.6086,2.6498,2.5092,2.4347,2.4492,0.0,0.0,2.3103,2.3441,2.3525,2.3406,2.4242,2.4659,2.4777,2.5196,2.5828,2.6606,2.6674,2.6691,2.6691,2.6691,2.6691,2.6657,2.6387,2.6454,2.6657,2.6387,2.6454,2.6691,2.6691,2.6522,2.6201,2.5761,2.5084,2.4557,2.4712,2.4847,2.4729,2.39,2.4069,2.4404,2.3917,2.3934,2.4167,2.4455,2.5747,2.6854,2.663,2.7494,2.8291,2.8317,2.7908,2.7455,2.7086,2.7082,2.6847,2.6149,0.0,0.0,0.0,0.0,0.0,0.0,2.6527,2.7655,0.0,0.0,0.0,0.0,0.0,0.0,3.5732,3.5307,0.0,3.7792,3.6248,3.5263,3.4893,3.3749,3.2822,3.2135,3.2184,3.2005,3.1742,3.2527,3.2706,3.2438,3.2438,3.2616,3.288,3.2563,3.2616,3.2916,3.2916,3.2916,3.2952,3.2862,3.3735,0.0,0.0,3.3398,0.0,3.1659,3.0951,3.0566,3.0566,3.052,3.0243,2.9627,2.9473,2.9166,2.8568,0.0,0.0,0.0,2.6852,2.6422,2.7197,2.5773,2.4846,2.4577,2.445,2.4003,2.3223,2.3203,2.349,2.4042,2.3847,2.4347,2.5443,2.5852,2.6243,2.6606,2.6674,2.6691,2.6691,2.6691,2.6691,2.6623,2.5947,2.6099,2.6607,2.593,2.6116,2.6691,2.6691,2.6234,2.5693,2.5693,2.5203,2.4523,2.3765,2.4492,2.5084,2.3021,2.341,2.4455,2.4506,2.4002,2.3731,2.4438,2.6109,2.735,2.6788,2.7335,2.7971,2.8099,2.7539,2.6957,2.6627,2.6799,2.6668,2.58,0.0,0.0,0.0,0.0,0.0,0.0,2.7683,2.7807,0.0,0.0,0.0,0.0,0.0,3.563,3.4726,3.6342,3.756,3.8216,3.748,3.668,3.5872,3.422,3.3296,3.3005,3.3037,3.2608,3.1813,3.2594,3.2491,3.1849,3.1813,3.2242,3.2884,3.2099,3.2224,3.2898,3.2844,3.2898,3.3062,0.0,0.0,3.334,3.3372,3.3398,3.3121,3.2275,3.2028,3.1921,3.1921,3.1474,3.1089,3.0936,3.0012,2.9484,2.9657,2.9061,2.8661,2.8544,2.8038,2.7696,2.7647,2.5648,2.4774,2.5242,2.4543,2.4264,2.4463,2.4785,2.4729,2.4386,2.4996,2.5447,2.5791,2.6314,2.6572,2.6606,2.6674,2.6691,2.6691,2.6691,2.6691,2.6674,2.6505,2.6539,2.6674,2.6488,2.6539,2.6691,2.6691,2.6573,2.6437,2.6437,2.6319,2.6015,2.5304,2.4932,2.4644,2.4103,2.3816,2.3799,2.4371,2.478,2.5135,2.5304,2.6018,2.6836,2.735,2.7837,2.8407,2.9088,2.9037,2.8747,2.8363,2.8564,2.8229,2.6594,2.7199,0.0,0.0,2.6843,2.7341,2.7459,2.7414,2.8013,0.0,0.0,0.0,0.0,3.3648,3.4528,3.4565,3.5116,3.606,3.738,3.6549,3.5978,3.5652,3.5148,3.4548,3.3892,3.3845,3.3416,3.2711,3.2827,3.3134,3.3491,3.2866,3.308,3.374,3.292,3.2706,3.2844,3.2206,3.2759,3.3669,3.2947,3.32,3.3257,3.3341,3.3398,3.3167,3.249,3.2398,3.2398,3.2398,3.2074,3.172,3.128,3.0616,3.0112,2.997,2.9434,2.909,2.9025,2.858,2.816,2.7823,2.6303,2.5476,2.5544,2.533,2.5295,2.5469,2.5579,2.5415,2.5074,2.5595,2.5811,2.5828,2.64,2.664,2.6554,2.6623,2.6657,2.6657,2.6657,2.6657,2.6607,2.6269,2.6354,2.6607,2.6252,2.6354,2.664,2.6691,2.6691,2.6691,2.6691,2.6471,2.6184,2.6116,2.5812,2.5423,2.5084,2.4949,2.5,2.5389,2.6336,2.6962,2.6268,2.7066,2.7979,2.8119,2.8688,2.9329,2.9844,2.9722,2.9448,2.9064,2.9059,2.8835,2.8035,2.8055,0.0,2.8067,2.8121,2.8442,2.9174,2.8933,2.9278,3.0695,3.1111,0.0,3.2111,3.3304,3.4125,3.4471,3.4781,3.5561,3.6895,3.6461,3.5818,3.495,3.4968,3.449,3.3591,3.3609,3.318,3.2429,3.2787,3.2969,3.2991,3.2952,3.3184,3.3508,3.3062,3.2916,3.2809,3.2127,3.2906,3.4173,3.3104,3.3356,3.3398,3.3341,3.3413,3.3183,3.2505,3.2398,3.2398,3.2398,3.2345,3.2051,3.1328,3.1112,3.0799,3.0113,2.9576,2.9387,2.9558,2.8843,2.8302,2.7992,2.7046,2.6252,2.5762,2.6118,2.6229,2.6168,2.5803,2.5677,2.5738,2.5901,2.5917,2.5811,2.6347,2.6554,2.6485,2.642,2.6471,2.6572,2.6454,2.6488,2.6521,2.5866,2.6017,2.6505,2.5899,2.6034,2.6606,2.664,2.6674,2.6674,2.6674,2.6268,2.5913,2.664,2.686,2.6708,2.5981,2.6302,2.6843,2.6725,2.7672,2.8351,2.7233,2.8266,2.9371,2.9043,2.9669,3.0287,3.0361,3.0078,2.9709,2.9396,2.9158,2.914,2.9444,0.0,2.8909,3.016,2.9779,2.9908,3.1187,3.0721,3.0664,3.1356,3.1544,3.1627,3.1757,3.2926,3.3788,3.4274,3.48,3.5526,3.6481,3.6674,3.599,3.4386,3.4641,3.4163,3.3094,3.3126,3.2697,3.1951,3.2662,3.2697,3.2309,3.2769,3.3162,3.3416,3.3104,3.3033,3.3096,3.243,3.3245,3.4539,3.276,3.3142,3.3341,3.3242,3.3299,3.3126,3.2354,3.2342,3.2398,3.2398,3.2251,3.2112,3.1943,3.131,3.0972,3.1232,3.0655,3.0302,3.0328,2.9437,2.8887,2.8805,2.6792,2.5899,2.6335,2.5679,2.5539,2.6026,2.5452,2.5469,2.5937,2.6154,2.6225,2.6225,2.6434,2.652,2.6452,2.5849,2.595,2.6469,2.5832,2.5967,2.6503,2.6402,2.6419,2.6503,2.6402,2.6419,2.652,2.652,2.6572,2.6606,2.6606,2.6573,2.6674,2.7418,2.7638,2.7486,2.6725,2.708,2.7503,2.686,2.6877,2.725,2.7959,2.8056,2.8368,2.9839,3.041,3.0635,3.0711,3.0529,3.0386,3.0433,3.0321,3.0042,2.9494,0.0,2.9982,2.9619,2.9515,2.9963,3.1169,3.0306,3.0294,3.1847,3.117,3.119,3.2393,3.2204,3.2406,3.3214,3.4339,3.5137,3.559,3.6287,3.6161,3.5214,3.5928,3.548,3.3999,3.3952,3.3505,3.28,3.2894,3.3645,3.4715,3.3448,3.4145,3.584,3.4026,3.3719,3.4213,3.303,3.3595,3.4724,3.2161,3.2479,3.2706,3.2551,3.2706,3.2696,3.2293,3.2287,3.2508,3.2711,3.2645,3.2665,3.2787,3.2448,3.2073,3.1798,3.15,3.1174,3.0814,2.9673,2.8805,2.8311,2.691,2.6084,2.5916,2.5779,2.5675,2.552,2.5622,2.5837,2.6115,2.6222,2.6258,2.6258,2.6347,2.6382,2.6365,2.6031,2.6065,2.6365,2.6015,2.6081,2.6382,2.6382,2.6382,2.6382,2.6382,2.6434,2.6485,2.6554,2.6606,2.6657,2.6606,2.691,2.7368,2.7653,2.8381,2.8975,2.8619,2.8789,2.8975,2.8619,2.8679,2.8836,2.8937,2.9665,3.0423,3.0898,3.151,3.1966,3.2026,3.159,3.1243,3.1386,3.0874,0.0,0.0,3.0535,3.0659,3.1225,3.054,3.051,3.1682,3.1135,3.1081,3.2081,3.1524,3.1526,3.2379,3.1958,3.2377,3.3873,3.427,3.4547,3.47,3.5897,3.6094,3.5307,3.5683,3.5254,3.4145,3.3684,3.3273,3.2948,3.3142,3.39,3.4979,3.425,3.4594,3.553,3.4509,3.4047,3.3933,3.3192,3.3907,3.5069,3.1667,3.191,3.2079,3.1996,3.2206,3.2342,3.2342,3.2453,3.2672,3.3102,3.3103,3.3147,3.337,3.3346,3.3032,3.2328,3.2161,3.1849,3.1278,2.9981,2.8938,2.8275,2.74,2.6488,2.5631,2.588,2.5793,2.5359,2.5756,2.6038,2.622,2.622,2.622,2.6203,2.6241,2.6277,2.626,2.6077,2.611,2.626,2.6077,2.611,2.6277,2.6295,2.6295,2.6295,2.6347,2.6399,2.652,2.6554,2.6589,2.6674,2.6808,2.7281,2.7822,2.8157,2.9239,3.0362,3.0362,3.0362,3.0277,2.9939,3.0238,3.0439,2.9781,3.1054,3.2314,3.1969,3.2536,3.3037,3.2883,3.2265,3.1841,3.1966,0.0,0.0,0.0,3.1408,3.1377,3.2474,3.1528,3.1058,3.1836,3.1793,3.1841,3.2162,3.1961,3.1985,3.2283,3.202,3.2683,3.4481,3.4621,3.4633,3.4633,3.581,3.6006,3.5204,3.5204,3.4811,3.4079,3.3455,3.3202,3.3216,3.3803,3.4506,3.5301,3.5209,3.5274,3.5439,3.5064,3.4532,3.3925,3.3608,3.4263,3.5175,3.148,3.161,3.1796,3.1996,3.215,3.2342,3.2695,3.2873,3.314,3.3591,3.3518,3.337,3.3416,3.316,3.3021,3.311,3.2488,3.2043,3.1951,3.0735,3.0006,2.9956,2.839,2.7121,2.6264,2.556,2.5491,2.6137,2.5508,2.5541,2.622,2.622,2.622,2.622,2.6203,2.6203,2.6154,2.5475,2.5574,2.6154,2.5458,2.559,2.6203,2.6277,2.6295,2.633,2.6434,2.6485,2.6485,2.6485,2.652,2.6637,2.7414,2.7649,2.8005,2.9495,3.0497,3.1123,3.1123,3.1123,3.0784,2.9397,2.9862,3.0491,3.0129,3.0938,3.2049,3.2967,3.3226,3.3046,3.2318,3.1984,3.1841,3.1972,0.0,0.0,3.2688,3.2741,3.2474,3.1849,3.1671,3.1452,3.1056,3.1422,3.181,3.2087,3.2193,3.2283,3.2283,3.2283,3.2825,3.4084,3.5507,3.6238,3.6238,3.6345,3.6006,3.5204,3.5204,3.4811,3.4115,3.4044,3.4056,3.4153,3.5199,3.6194,3.7076,3.6528,3.6767,3.7368,3.6112,3.5525,3.531,3.4833,3.4708,3.4741,3.1102,3.1278,3.1509,3.1682,3.212,3.2547,3.2734,3.314,3.3591,3.4,3.4006,3.4039,3.4279,3.4313,3.4101,3.3589,3.3038,3.2521,3.2027,3.1022,2.9928,2.8682,2.7894,2.6881,2.5629,2.5725,2.5706,2.5524,2.5706,2.5938,2.622,2.622,2.622,2.622,2.622,2.622,2.6187,2.5905,2.5955,2.6187,2.5905,2.5955,2.6203,2.6239,2.6277,2.6295,2.6293,2.638,2.6485,2.6399,2.6753,2.7295,2.7545,2.8339,2.9374,3.0364,3.0853,3.1072,3.1072,3.0813,3.0438,3.0084,3.0491,3.0988,3.1062,3.1862,3.2678,3.3111,3.3152,3.3032,3.2769,3.2242,3.1984,3.2583,0.0,3.1974,3.2809,3.2916,3.2809,3.2474,3.1992,3.1625,3.141,3.1571,3.175,3.1841,3.2146,3.242,3.2672,3.3576,3.455,3.5507,3.6577,3.6899,3.6399,3.5917,3.5757,3.5935,3.4972,3.4383,3.4115,3.4115,3.4243,3.4527,3.5586,3.6683,3.7738,3.753,3.7638,3.7832,3.6795,3.6053,3.5511,3.4988,3.4768,3.4706,3.0821,3.0999,3.1234,3.1379,3.1992,3.2602,3.2895,3.3455,3.4,3.4448,3.4497,3.4594,3.4851,3.4994,3.4795,3.428,3.3689,3.3088,3.2319,3.1225,2.9909,2.831,2.8115,2.7511,2.6227,2.6421,2.6303,2.5789,2.6071,2.622,2.622,2.622,2.622,2.622,2.622,2.622,2.622,2.622,2.622,2.622,2.622,2.622,2.6203,2.6239,2.6241,2.6295,2.631,2.638,2.6485,2.6382,2.6902,2.7662,2.7897,2.908,3.0454,3.0881,3.0975,3.0975,3.0975,3.0779,3.0551,3.0554,3.1289,3.1989,3.1684,3.2616,3.3471,3.317,3.3055,3.3042,3.3086,3.2606,3.2378,3.2965,3.2514,3.2259,3.2813,3.2916,3.2827,3.2545,3.2242,3.1974,3.1706,3.192,3.2063,3.2063,3.2568,3.2977,3.3259,3.4276,3.5221,3.6006,3.656,3.6809,3.6774,3.5989,3.5846,3.6381,3.5079,3.4503,3.4601,3.4852,3.5169,3.5568,3.6656,3.7617,3.8413,3.8552,3.8452,3.8139,3.7291,3.6611,3.5998,3.5101,3.4896,3.5042,3.0762,3.0821,3.0881,3.1219,3.1796,3.2453,3.3093,3.3697,3.43,3.4851,3.4899,3.4899,3.4899,3.4899,3.4947,3.5105,3.4439,3.3689,3.2967,3.1423,3.0195,2.945,2.9536,2.922,2.8445,2.7699,2.7317,2.7317,2.6568,2.622,2.622,2.622,2.622,2.622,2.622,2.622,2.622,2.622,2.622,2.622,2.622,2.622,2.6203,2.6277,2.6295,2.633,2.6434,2.6485,2.6502,2.6502,2.69,2.7581,2.8518,2.9799,3.1015,3.1015,3.0952,3.0912,3.0912,3.1213,3.1333,3.069,3.2214,3.3484,3.1891,3.3069,3.4235,3.3296,3.3086,3.3086,3.3104,3.3042,3.2997,3.3015,3.2965,3.2934,3.2902,3.2916,3.2599,3.1796,3.2402,3.2581,3.1778,3.242,3.2916,3.2916,3.3651,3.4115,3.4115,3.4115,3.4454,3.5204,3.5239,3.5989,3.7559,3.6792,3.6399,3.6381,3.5578,3.537,3.5737,3.6558,3.7124,3.7579,3.8711,3.9245,3.9324,3.9594,3.9241,3.8429,3.7618,3.7254,3.7002,3.5308,3.5208,3.5766,3.0642,3.0642,3.0747,3.1029,3.1905,3.2703,3.313,3.4052,3.4691,3.4899,3.4899,3.4899,3.4899,3.4994,3.4994,3.4947,3.4376,3.3411,3.2077,3.1622,3.1058,3.0228,2.9682,2.9125,2.8445,2.7699,2.7317,2.7317,2.6568,2.622,2.622,2.622,2.622,2.622,2.622,2.622,2.622,2.622,2.622,2.622,2.622,2.622,2.6203,2.6239,2.6241,2.6295,2.6347,2.6681,2.7131,2.7131,2.7948,2.9098,2.9967,3.0503,3.0773,3.0773,3.0773,3.0814,3.1117,3.188,3.2582,3.2433,3.3125,3.3786,3.352,3.3902,3.406,3.3203,3.3042,3.3203,3.3777,3.3852,3.4049,3.4605,3.4592,3.4329,3.3812,3.374,3.3437,3.2634,3.2741,3.2827,3.2563,3.2773,3.3116,3.3705,3.4454,3.4882,3.4882,3.5418,3.581,3.6042,3.6577,3.7095,3.7577,3.6238,3.5966,3.6723,3.5403,3.5211,3.6087,3.6863,3.7426,3.7839,3.8729,3.9264,3.9508,3.9583,3.95,3.9199,3.8329,3.7633,3.699,3.5919,3.5318,3.494,3.0568,3.0642,3.0762,3.0866,3.2003,3.2902,3.313,3.4152,3.4899,3.4994,3.4947,3.4899,3.4899,3.4994,3.4994,3.4899,3.4313,3.3516,3.2531,3.1994,3.148,3.0974,3.0245,2.9516,2.8804,2.8075,2.7599,2.7317,2.6568,2.622,2.622,2.622,2.622,2.622,2.622,2.622,2.622,2.622,2.622,2.622,2.622,2.622,2.622,2.622,2.6239,2.6291,2.6609,2.6992,2.7424,2.7707,2.8588,2.9749,3.054,3.079,3.0733,3.0878,3.0918,3.0942,3.1355,3.2337,3.333,3.37,3.4341,3.4866,3.4679,3.4909,3.4927,3.4038,3.3877,3.402,3.4503,3.4592,3.4753,3.5236,3.5256,3.5043,3.4615,3.4543,3.4365,3.3865,3.3812,3.3812,3.3812,3.3812,3.4133,3.4954,3.5418,3.5685,3.5685,3.6131,3.6451,3.659,3.7057,3.7556,3.7982,3.6717,3.6335,3.6888,3.596,3.5969,3.6897,3.7728,3.8257,3.86,3.9085,3.9406,3.9602,3.9602,3.9602,3.9526,3.8638,3.8,3.7437,3.631,3.5578,3.5052,3.0642,3.0702,3.0821,3.0821,3.2018,3.3039,3.3198,3.4202,3.4947,3.5088,3.4994,3.4899,3.4899,3.4899,3.4851,3.4899,3.4286,3.3806,3.3607,3.2415,3.1626,3.1494,3.0824,3.0112,2.9417,2.8787,2.8146,2.7417,2.6651,2.627,2.622,2.622,2.622,2.622,2.622,2.622,2.622,2.622,2.622,2.622,2.622,2.622,2.622,2.622,2.622,2.6303,2.6985,2.7251,2.7433,2.8246,2.9015,2.9792,3.0475,3.0692,3.0814,3.1179,3.1201,3.1257,3.1726,3.2735,3.3811,3.4621,3.5758,3.6451,3.5507,3.5969,3.6325,3.5382,3.5204,3.5239,3.5293,3.5311,3.5346,3.54,3.5418,3.54,3.5328,3.5311,3.5293,3.5221,3.5204,3.5204,3.5204,3.5275,3.5614,3.6345,3.647,3.647,3.6399,3.647,3.6627,3.6841,3.6961,3.7503,3.8548,3.7845,3.7357,3.7094,3.7021,3.7363,3.8085,3.8821,3.9309,3.9602,3.9602,3.9602,3.9602,3.9602,3.9602,3.9526,3.8732,3.8319,3.8019,3.6554,3.5916,3.5672,3.0762,3.0762,3.0821,3.0821,3.2018,3.3039,3.3198,3.4251,3.5041,3.5105,3.4994,3.4851,3.4739,3.4643,3.4643,3.4739,3.4703,3.3922,3.2199,3.2315,3.1951,3.0808,3.0046,2.9566,2.9417,2.9268,2.8853,2.818,2.7433,2.6766,2.622,2.622,2.622,2.622,2.622,2.622,2.622,2.622,2.622,2.622,2.622,2.622,2.622,2.622,2.622,2.6236,2.646,2.6839,2.7499,2.8754,2.9665,3.0352,3.0502,3.0757,3.1044,3.1123,3.1355,3.1815,3.2841,3.3756,3.4692,3.5758,3.6702,3.7167,3.6328,3.6309,3.622,3.5382,3.5204,3.54,3.6024,3.6131,3.6345,3.697,3.7077,3.6845,3.6238,3.6131,3.5917,3.5275,3.5204,3.5204,3.5204,3.5774,3.6203,3.6381,3.697,3.7059,3.6435,3.6988,3.7059,3.6539,3.7388,3.7954,3.8201,3.829,3.846,3.8607,3.7988,3.8236,3.9239,3.9408,3.9527,3.9602,3.9602,3.9602,3.9602,3.9602,3.9602,3.9583,3.937,3.8507,3.7305,3.6967,3.5987,3.478,3.1087,3.1437,3.1652,3.1652,3.2718,3.3614,3.3665,3.461,3.5291,3.5291,3.5041,3.4899,3.4804,3.4378,3.3985,3.3779,3.4438,3.4104,3.2249,3.2481,3.2199,3.109,3.0328,2.993,2.993,2.993,2.9251,2.7898,2.7499,2.6899,2.622,2.622,2.622,2.622,2.622,2.622,2.622,2.622,2.622,2.622,2.622,2.622,2.6253,2.6584,2.6518,2.6352,2.7383,2.8229,2.8976,2.9905,3.0463,3.0821,3.1004,3.124,3.1414,3.1603,3.1823,3.2179,3.3,3.4057,3.5066,3.5686,3.672,3.747,3.7059,3.697,3.6845,3.6435,3.6345,3.647,3.6881,3.697,3.7095,3.7523,3.7577,3.7434,3.7023,3.697,3.6809,3.6381,3.6345,3.6345,3.6345,3.672,3.697,3.697,3.7345,3.7398,3.6988,3.7362,3.7488,3.7234,3.7932,3.841,3.8566,3.8894,3.9183,3.9335,3.8755,3.8854,3.9602,3.9602,3.9602,3.9602,3.9602,3.9602,3.9602,3.9602,3.9602,3.9602,3.9602,3.8587,3.7099,3.7099,3.6028,3.4517,3.1537,3.2033,3.2492,3.2602,3.3459,3.4185,3.4185,3.4913,3.5492,3.5446,3.5205,3.5032,3.4851,3.4079,3.3304,3.2536,3.374,3.3889,3.2415,3.2431,3.2183,3.1427,3.0725,3.0394,3.0526,3.0278,2.9268,2.7499,2.7499,2.7031,2.622,2.622,2.622,2.622,2.622,2.622,2.622,2.622,2.622,2.622,2.6352,2.6402,2.6468,2.7234,2.7098,2.6816,2.8588,2.9715,3.0369,3.078,3.1021,3.1162,3.1565,3.175,3.1877,3.2197,3.2352,3.2525,3.314,3.4222,3.5275,3.5543,3.6613,3.7577,3.7577,3.7577,3.7577,3.7577,3.7577,3.7577,3.7577,3.7577,3.7577,3.7577,3.7577,3.7577,3.7577,3.7577,3.7577,3.7577,3.7577,3.7577,3.7577,3.7577,3.7577,3.7577,3.7577,3.7577,3.7577,3.7577,3.7721,3.8018,3.841,3.8748,3.8998,3.9388,3.9602,3.9596,3.9309,3.9335,3.9602,3.9602,3.9602,3.9602,3.9602,3.9602,3.9602,3.9602,3.9602,3.9602,3.9602,3.8657,3.7268,3.6986,3.5893,3.4539,3.158,3.1864,3.2089,3.2532,3.3407,3.4086,3.4185,3.4913,3.5446,3.5182,3.5509,3.5464,3.466,3.3985,3.306,3.1693,3.247,3.2365,3.0907,3.1404,3.1437,3.0692,2.9963,2.9864,3.051,2.9301,2.8522,2.8224,2.8224,2.7545,2.622,2.622,2.622,2.622,2.622,2.622,2.622,2.622,2.622,2.627,2.6882,2.7168,2.7251,2.798,2.8213,2.8125,2.8406,2.8969,2.9589,2.9989,3.0581,3.1162,3.1565,3.1949,3.2249,3.2283,3.2539,3.3105,3.4492,3.5043,3.5543,3.6916,3.7434,3.7577,3.7577,3.7577,3.7577,3.7577,3.7577,3.7577,3.7577,3.7577,3.7577,3.7577,3.7577,3.7577,3.7577,3.7577,3.7577,3.7577,3.7577,3.7577,3.7577,3.7577,3.7577,3.7577,3.7577,3.7577,3.7577,3.7577,3.7613,3.7649,3.8263,3.8609,3.8688,3.9309,3.9602,3.9602,3.9552,3.9552,3.9602,3.9602,3.9602,3.9602,3.9602,3.9602,3.9602,3.9602,3.9602,3.9602,3.9602,3.8995,3.7962,3.6503,3.5315,3.4409,3.2185,3.268,3.323,3.3594,3.4118,3.4513,3.4561,3.5024,3.5291,3.5041,3.5051,3.4988,3.4627,3.3937,3.2754,3.1001,3.1902,3.1979,3.0542,3.1179,3.1246,3.0543,3.0212,3.0195,3.0468,2.9499,2.8754,2.8279,2.7959,2.723,2.622,2.622,2.622,2.622,2.622,2.622,2.622,2.622,2.622,2.6236,2.6551,2.6684,2.68,2.8018,2.8201,2.7914,2.8671,2.9559,3.0398,3.0806,3.1328,3.1823,3.2231,3.2488,3.2727,3.317,3.3413,3.3812,3.49,3.5543,3.6042,3.6738,3.7255,3.7577,3.7577,3.7577,3.7577,3.7577,3.7577,3.7577,3.7577,3.7577,3.7577,3.7577,3.7577,3.7577,3.7577,3.7577,3.7577,3.7577,3.7577,3.7577,3.7577,3.7577,3.7577,3.7577,3.7577,3.7685,3.788,3.788,3.7966,3.815,3.8628,3.8865,3.8865,3.9362,3.9602,3.9602,3.9602,3.9602,3.9602,3.9602,3.9602,3.9602,3.9602,3.9602,3.9602,3.9602,3.9602,3.9602,3.9602,3.8788,3.7493,3.6194,3.5198,3.445]},{"header":{"parameterUnit":"m.s-1","parameterCategory":1,"la1":30.6,"la2":28.766,"lo1":-90.7593,"lo2":-88.6598,"dy":0.0162,"dx":0.0183,"nx":116,"ny":114,"refTime":"2023-03-03T06:00:00:Z","depth":0,"parameterNumber":3,"parameterNumberName":"V-component_of_WINDS"},"data":[0.0,0.0,0.0,0.0,0.0,0.0,0.0,0.0,0.0,0.0,0.0,0.0,0.0,0.0,0.0,0.0,0.0,0.0,0.0,0.0,0.0,0.0,0.0,0.0,0.0,0.0,0.0,0.0,0.0,0.0,0.0,0.0,0.0,0.0,0.0,0.0,0.0,0.0,0.0,0.0,0.0,0.0,0.0,0.0,0.0,0.0,0.0,0.0,0.0,0.0,0.0,0.0,0.0,0.0,0.0,0.0,0.0,0.0,0.0,0.0,0.0,0.0,0.0,0.0,0.0,0.0,0.0,0.0,0.0,0.0,0.0,0.0,0.0,0.0,0.0,0.0,0.0,0.0,0.0,0.0,0.0,0.0,0.0,0.0,0.0,0.0,0.0,0.0,0.0,0.0,0.0,0.0,0.0,0.0,0.0,0.0,0.0,0.0,0.0,0.0,0.0,0.0,0.0,0.0,0.0,0.0,0.0,0.0,0.0,0.0,0.0,0.0,0.0,0.0,0.0,0.0,0.0,0.0,0.0,0.0,0.0,0.0,0.0,0.0,0.0,0.0,0.0,0.0,0.0,0.0,0.0,0.0,0.0,0.0,0.0,0.0,0.0,0.0,0.0,0.0,0.0,0.0,0.0,0.0,0.0,0.0,0.0,0.0,0.0,0.0,0.0,0.0,0.0,0.0,0.0,0.0,0.0,0.0,0.0,0.0,0.0,0.0,0.0,0.0,0.0,0.0,0.0,0.0,0.0,0.0,0.0,0.0,0.0,0.0,0.0,0.0,0.0,0.0,0.0,0.0,0.0,0.0,0.0,0.0,0.0,0.0,0.0,0.0,0.0,0.0,0.0,0.0,0.0,0.0,0.0,0.0,0.0,0.0,0.0,0.0,0.0,0.0,0.0,0.0,0.0,0.0,0.0,0.0,0.0,0.0,0.0,0.0,0.0,0.0,0.0,0.0,0.0,0.0,0.0,0.0,0.0,0.0,0.0,0.0,0.0,0.0,0.0,0.0,0.0,0.0,0.0,0.0,0.0,0.0,0.0,0.0,0.0,0.0,0.0,0.0,0.0,0.0,0.0,0.0,0.0,0.0,0.0,0.0,0.0,0.0,0.0,0.0,0.0,0.0,0.0,0.0,0.0,0.0,0.0,0.0,0.0,0.0,0.0,0.0,0.0,0.0,0.0,0.0,0.0,0.0,0.0,0.0,0.0,0.0,0.0,0.0,0.0,0.0,0.0,0.0,0.0,0.0,0.0,0.0,0.0,0.0,0.0,0.0,0.0,0.0,0.0,0.0,0.0,0.0,0.0,0.0,0.0,0.0,0.0,0.0,0.0,0.0,0.0,0.0,0.0,0.0,0.0,0.0,0.0,0.0,0.0,0.0,0.0,0.0,0.0,0.0,0.0,0.0,0.0,0.0,0.0,0.0,0.0,0.0,0.0,0.0,0.0,0.0,0.0,0.0,0.0,0.0,0.0,0.0,0.0,0.0,0.0,0.0,0.0,0.0,0.0,0.0,0.0,0.0,0.0,0.0,0.0,0.0,0.0,0.0,0.0,0.0,0.0,0.0,0.0,0.0,0.0,0.0,0.0,0.0,0.0,0.0,0.0,0.0,0.0,0.0,0.0,0.0,0.0,0.0,0.0,0.0,0.0,0.0,0.0,0.0,0.0,0.0,0.0,0.0,0.0,0.0,0.0,0.0,0.0,0.0,0.0,0.0,0.0,0.0,0.0,0.0,0.0,0.0,0.0,0.0,0.0,0.0,0.0,0.0,0.0,0.0,0.0,0.0,0.0,0.0,0.0,0.0,0.0,0.0,0.0,0.0,0.0,0.0,0.0,0.0,0.0,0.0,0.0,0.0,0.0,0.0,0.0,0.0,0.0,0.0,0.0,0.0,0.0,0.0,0.0,0.0,0.0,0.0,0.0,0.0,0.0,0.0,0.0,0.0,0.0,0.0,0.0,0.0,0.0,0.0,0.0,0.0,0.0,0.0,0.0,0.0,0.0,0.0,0.0,0.0,0.0,0.0,0.0,0.0,0.0,0.0,0.0,0.0,0.0,0.0,0.0,0.0,0.0,0.0,0.0,0.0,0.0,0.0,0.0,0.0,0.0,0.0,0.0,0.0,0.0,0.0,0.0,0.0,0.0,0.0,0.0,0.0,0.0,0.0,0.0,0.0,0.0,0.0,0.0,0.0,0.0,0.0,0.0,0.0,0.0,0.0,0.0,0.0,0.0,0.0,0.0,0.0,0.0,0.0,0.0,0.0,0.0,0.0,0.0,0.0,0.0,0.0,0.0,0.0,0.0,0.0,0.0,0.0,0.0,0.0,0.0,0.0,0.0,0.0,0.0,0.0,0.0,0.0,0.0,0.0,0.0,0.0,0.0,0.0,0.0,0.0,0.0,0.0,0.0,0.0,0.0,0.0,0.0,0.0,0.0,0.0,0.0,0.0,0.0,0.0,0.0,0.0,0.0,0.0,0.0,0.0,0.0,0.0,0.0,0.0,0.0,0.0,0.0,0.0,0.0,0.0,0.0,0.0,0.0,0.0,0.0,0.0,0.0,0.0,0.0,0.0,0.0,0.0,0.0,0.0,0.0,0.0,0.0,0.0,0.0,0.0,0.0,0.0,0.0,0.0,0.0,0.0,0.0,0.0,0.0,0.0,0.0,0.0,0.0,0.0,0.0,0.0,0.0,0.0,0.0,0.0,0.0,0.0,0.0,0.0,0.0,0.0,0.0,0.0,0.0,0.0,0.0,0.0,0.0,0.0,0.0,0.0,0.0,0.0,0.0,0.0,0.0,0.0,0.0,0.0,0.0,0.0,0.0,0.0,0.0,0.0,0.0,0.0,0.0,0.0,0.0,0.0,0.0,0.0,0.0,0.0,0.0,0.0,0.0,0.0,0.0,0.0,0.0,0.0,0.0,0.0,0.0,0.0,0.0,0.0,0.0,0.0,0.0,0.0,0.0,0.0,0.0,0.0,0.0,0.0,0.0,0.0,0.0,0.0,0.0,0.0,0.0,0.0,0.0,0.0,0.0,0.0,0.0,0.0,0.0,0.0,0.0,0.0,0.0,0.0,0.0,0.0,0.0,0.0,0.0,0.0,0.0,0.0,0.0,0.0,0.0,0.0,0.0,0.0,0.0,0.0,0.0,0.0,0.0,0.0,0.0,0.0,0.0,0.0,0.0,0.0,0.0,0.0,0.0,0.0,0.0,0.0,0.0,0.0,0.0,0.0,0.0,0.0,0.0,0.0,0.0,0.0,0.0,0.0,0.0,0.0,0.0,0.0,0.0,0.0,0.0,0.0,0.0,0.0,0.0,0.0,0.0,0.0,0.0,0.0,0.0,0.0,0.0,0.0,0.0,0.0,0.0,0.0,0.0,0.0,0.0,0.0,0.0,0.0,0.0,0.0,0.0,0.0,0.0,0.0,0.0,0.0,0.0,0.0,0.0,0.0,0.0,0.0,0.0,0.0,0.0,0.0,0.0,0.0,0.0,0.0,0.0,0.0,0.0,0.0,0.0,0.0,0.0,0.0,0.0,0.0,0.0,0.0,0.0,0.0,0.0,0.0,0.0,0.0,0.0,0.0,0.0,0.0,0.0,0.0,0.0,0.0,0.0,0.0,0.0,0.0,0.0,0.0,0.0,0.0,0.0,0.0,0.0,0.0,0.0,0.0,0.0,0.0,0.0,0.0,0.0,0.0,0.0,0.0,0.0,0.0,0.0,0.0,0.0,0.0,0.0,0.0,0.0,0.0,0.0,0.0,0.0,0.0,0.0,0.0,0.0,0.0,0.0,0.0,0.0,0.0,0.0,0.0,0.0,0.0,0.0,0.0,0.0,0.0,0.0,0.0,0.0,0.0,0.0,0.0,0.0,0.0,0.0,0.0,0.0,0.0,0.0,0.0,0.0,0.0,0.0,0.0,0.0,0.0,0.0,0.0,0.0,0.0,0.0,0.0,0.0,0.0,0.0,0.0,0.0,0.0,0.0,0.0,0.0,0.0,0.0,0.0,0.0,0.0,0.0,0.0,0.0,0.0,0.0,0.0,0.0,0.0,0.0,0.0,0.0,0.0,0.0,0.0,0.0,0.0,0.0,0.0,0.0,0.0,0.0,0.0,0.0,0.0,0.0,0.0,0.0,0.0,0.0,0.0,0.0,0.0,0.0,0.0,0.0,0.0,0.0,0.0,0.0,0.0,0.0,0.0,0.0,0.0,0.0,0.0,0.0,0.0,0.0,0.0,0.0,0.0,0.0,0.0,0.0,0.0,0.0,0.0,0.0,0.0,0.0,0.0,0.0,0.0,0.0,0.0,0.0,0.0,0.0,0.0,0.0,0.0,0.0,0.0,0.0,0.0,0.0,0.0,0.0,0.0,0.0,0.0,0.0,0.0,0.0,0.0,0.0,0.0,0.0,0.0,0.0,0.0,0.0,0.0,0.0,0.0,0.0,0.0,0.0,0.0,0.0,0.0,0.0,0.0,0.0,0.0,0.0,0.0,0.0,0.0,0.0,0.0,0.0,0.0,0.0,0.0,0.0,0.0,0.0,0.0,0.0,0.0,0.0,0.0,0.0,0.0,0.0,0.0,0.0,0.0,0.0,0.0,0.0,0.0,0.0,0.0,0.0,0.0,0.0,0.0,0.0,0.0,0.0,0.0,0.0,0.0,0.0,0.0,0.0,0.0,0.0,0.0,0.0,0.0,0.0,0.0,0.0,0.0,0.0,0.0,0.0,0.0,0.0,0.0,0.0,0.0,0.0,0.0,0.0,0.0,0.0,0.0,0.0,0.0,0.0,0.0,0.0,0.0,0.0,0.0,0.0,0.0,0.0,0.0,0.0,0.0,0.0,0.0,0.0,0.0,0.0,0.0,0.0,0.0,0.0,0.0,0.0,0.0,0.0,0.0,0.0,0.0,0.0,0.0,0.0,0.0,0.0,0.0,0.0,0.0,0.0,0.0,0.0,0.0,0.0,0.0,0.0,0.0,0.0,0.0,0.0,0.0,0.0,0.0,0.0,0.0,0.0,0.0,0.0,0.0,0.0,0.0,0.0,0.0,0.0,0.0,0.0,0.0,0.0,0.0,0.0,0.0,0.0,0.0,0.0,0.0,0.0,0.0,0.0,0.0,0.0,0.0,0.0,0.0,0.0,0.0,0.0,0.0,0.0,0.0,0.0,0.0,0.0,0.0,0.0,0.0,0.0,0.0,0.0,0.0,0.0,0.0,0.0,0.0,0.0,0.0,0.0,0.0,0.0,0.0,0.0,0.0,0.0,0.0,0.0,0.0,0.0,0.0,0.0,0.0,0.0,0.0,0.0,0.0,0.0,0.0,0.0,0.0,0.0,0.0,0.0,0.0,0.0,0.0,0.0,0.0,0.0,0.0,0.0,0.0,0.0,0.0,0.0,0.0,0.0,0.0,0.0,0.0,0.0,0.0,0.0,0.0,0.0,0.0,0.0,0.0,0.0,0.0,0.0,0.0,0.0,0.0,0.0,0.0,0.0,0.0,0.0,0.0,0.0,0.0,0.0,0.0,0.0,0.0,0.0,0.0,0.0,0.0,0.0,0.0,0.0,0.0,0.0,0.0,0.0,0.0,0.0,0.0,0.0,0.0,0.0,0.0,0.0,0.0,0.0,0.0,0.0,0.0,0.0,0.0,0.0,0.0,0.0,0.0,0.0,0.0,0.0,0.0,0.0,0.0,0.0,0.0,0.0,0.0,0.0,0.0,0.0,0.0,0.0,0.0,0.0,0.0,0.0,0.0,0.0,0.0,0.0,0.0,0.0,0.0,0.0,0.0,0.0,0.0,0.0,0.0,0.0,0.0,0.0,0.0,0.0,0.0,0.0,0.0,0.0,0.0,0.0,0.0,0.0,0.0,0.0,0.0,0.0,0.0,0.0,0.0,0.0,0.0,0.0,0.0,0.0,0.0,0.0,0.0,0.0,0.0,0.0,0.0,0.0,0.0,0.0,0.0,0.0,0.0,0.0,0.0,0.0,0.0,0.0,0.0,0.0,0.0,0.0,0.0,0.0,0.0,0.0,0.0,0.0,0.0,0.0,0.0,0.0,0.0,0.0,0.0,0.0,0.0,0.0,0.0,1.2982,0.0,0.0,0.0,0.0,0.0,0.0,0.0,0.0,0.0,0.0,0.0,0.0,0.0,0.0,0.0,0.0,0.0,0.0,0.0,0.0,0.0,0.0,0.0,0.0,0.0,0.0,0.0,0.0,0.0,0.0,0.0,0.0,0.0,0.0,0.0,0.0,0.0,0.0,0.0,0.0,0.0,0.0,0.0,0.0,0.0,0.0,0.0,0.0,0.0,0.0,0.0,0.0,0.0,0.0,0.0,0.0,0.0,0.0,0.0,0.0,0.0,0.0,0.0,0.0,0.0,0.0,0.0,0.0,0.0,0.0,0.0,0.0,0.0,0.0,0.0,0.0,0.0,0.0,0.0,0.0,0.0,0.0,0.0,0.0,0.0,0.0,0.0,0.0,0.0,0.0,0.0,0.0,0.0,0.0,0.0,0.0,0.0,0.0,0.0,0.0,0.0,0.0,0.0,0.0,0.0,0.0,0.0,0.0,0.0,0.0,0.0,0.0,0.0,0.0,0.0,0.0,1.378,0.0,0.0,0.0,0.0,0.0,0.0,0.0,0.0,0.0,0.0,0.0,0.0,0.0,0.0,0.0,0.0,0.0,0.0,0.0,0.0,0.0,0.0,0.0,0.0,0.0,0.0,0.0,0.0,0.0,0.0,0.0,0.0,0.0,0.0,0.0,0.0,0.0,0.0,0.0,0.0,0.0,0.0,0.0,0.0,0.0,0.0,0.0,0.0,0.0,0.0,0.0,0.0,0.0,0.0,0.0,0.0,0.0,0.0,0.0,0.0,0.0,0.0,0.0,0.0,0.0,0.0,0.0,0.0,0.0,0.0,0.0,0.0,0.0,0.0,0.0,0.0,0.0,0.0,0.0,0.0,0.0,0.0,0.0,0.0,0.0,0.0,0.0,0.0,0.0,0.0,0.0,0.0,0.0,0.0,0.0,0.0,0.0,0.0,0.0,0.0,0.0,0.0,0.0,0.0,0.0,0.0,0.0,0.0,1.7523,1.7563,1.7925,1.7519,1.7286,1.7103,1.5457,1.4601,1.4369,1.44,0.0,0.0,0.0,0.0,0.0,0.0,0.0,0.0,0.0,0.0,0.0,0.0,0.0,0.0,0.0,0.0,0.0,0.0,0.0,0.0,0.0,0.0,0.0,0.0,0.0,0.0,0.0,0.0,0.0,0.0,0.0,0.0,0.0,0.0,0.0,0.0,0.0,0.0,1.7715,1.7342,1.6381,1.496,0.0,0.0,0.0,0.0,0.0,0.0,0.0,0.0,0.0,0.0,0.0,0.0,0.0,0.0,0.0,0.0,0.0,0.0,0.0,0.0,0.0,0.0,0.0,0.0,0.0,0.0,0.0,0.0,0.0,0.0,0.0,0.0,0.0,0.0,0.0,0.0,0.0,0.0,0.0,0.0,0.0,0.0,0.0,0.0,1.4935,1.5211,0.0,0.0,0.0,0.0,0.0,0.0,0.0,0.0,0.0,0.0,0.0,0.0,0.0,1.7754,1.8035,1.8303,1.853,1.8712,1.8268,1.8084,1.8144,1.7471,1.7122,1.7074,1.6675,0.0,1.5857,1.5372,0.0,0.0,0.0,0.0,0.0,0.0,0.0,0.0,0.0,0.0,0.0,0.0,0.0,0.0,0.0,0.0,0.0,0.0,0.0,0.0,0.0,0.0,0.0,0.0,0.0,0.0,0.0,0.0,0.0,0.0,0.0,0.0,0.0,0.0,0.0,0.0,1.8327,1.841,1.7864,1.7436,1.6517,1.5223,1.4816,1.3842,1.2433,1.2021,0.0,0.0,0.0,0.0,0.0,0.0,0.0,0.0,0.0,0.0,0.0,0.0,0.0,0.0,0.0,0.0,0.0,0.0,0.0,0.0,0.0,0.0,0.0,0.0,0.0,0.0,0.0,0.0,0.0,0.0,0.0,0.0,0.0,0.0,0.0,0.0,0.0,0.0,0.0,1.5225,1.5174,1.5117,1.508,1.5077,0.0,0.0,0.0,0.0,0.0,0.0,0.0,0.0,0.0,1.8799,1.8795,1.8697,1.8571,1.8604,1.87,1.8778,1.8535,1.8515,1.8683,1.8352,1.8101,1.7845,1.7432,1.7206,1.7087,1.6371,1.6039,1.5953,0.0,0.0,0.0,0.0,1.55,1.5392,0.0,0.0,0.0,0.0,0.0,0.0,0.0,0.0,0.0,0.0,0.0,0.0,0.0,0.0,0.0,1.6995,0.0,0.0,0.0,0.0,0.0,0.0,0.0,0.0,0.0,0.0,0.0,0.0,1.8591,1.8535,1.794,1.7564,1.6649,1.5263,1.5034,1.3778,1.1836,1.1561,1.1726,0.0,0.0,0.0,0.0,0.0,0.0,0.0,0.0,0.0,0.0,0.0,0.0,0.0,0.0,0.0,0.0,0.0,0.0,0.0,0.0,0.0,0.0,0.0,0.0,0.0,0.0,0.0,0.0,0.0,0.0,0.0,0.0,0.0,0.0,0.0,0.0,0.0,0.0,1.5874,1.5802,1.5471,1.5846,1.6131,0.0,0.0,0.0,0.0,0.0,0.0,1.8884,1.8769,1.9005,1.9807,1.9953,1.9777,1.9181,1.9139,1.9221,1.9405,1.9099,1.9163,1.9542,1.9306,1.9002,1.8675,1.8096,1.7856,1.7798,1.7267,1.6879,1.6629,1.7062,1.7007,1.673,1.6686,1.6426,1.6114,0.0,0.0,0.0,0.0,0.0,0.0,0.0,0.0,0.0,0.0,0.0,0.0,0.0,0.0,1.7808,1.7482,1.6175,1.583,0.0,0.0,0.0,0.0,0.0,0.0,0.0,0.0,0.0,1.8939,1.8785,1.8463,1.7992,1.7772,1.6693,1.4917,1.4968,1.4198,1.2766,1.2048,1.2272,1.2994,0.0,0.0,0.0,0.0,0.0,0.0,0.0,0.0,0.0,0.0,0.0,0.0,0.0,0.0,0.0,0.0,0.0,0.0,0.0,0.0,0.0,0.0,0.0,0.0,0.0,0.0,0.0,0.0,0.0,0.0,0.0,0.0,0.0,0.0,0.0,0.0,0.0,0.0,0.0,1.6922,1.7417,0.0,0.0,0.0,0.0,1.9195,1.8737,1.8935,2.014,2.0298,2.0218,1.9916,2.0954,2.1185,2.0506,2.0482,2.0789,2.1352,2.0391,2.0237,2.0804,1.9806,1.9388,1.9305,1.8703,1.8162,1.7726,1.7861,1.7928,1.7991,1.8831,1.8744,1.8192,1.8192,1.7928,1.756,0.0,0.0,0.0,0.0,0.0,0.0,0.0,0.0,0.0,0.0,0.0,0.0,0.0,1.8,1.8293,1.8557,1.6729,1.6087,1.7217,0.0,0.0,0.0,0.0,0.0,0.0,0.0,2.0172,1.99,1.9325,1.8781,1.825,1.7786,1.6886,1.5711,1.6164,1.5731,1.4624,1.3341,1.3007,1.3301,1.3475,1.3971,0.0,0.0,0.0,0.0,0.0,0.0,0.0,0.0,0.0,0.0,0.0,0.0,0.0,0.0,0.0,0.0,0.0,0.0,0.0,0.0,0.0,0.0,0.0,0.0,0.0,0.0,0.0,0.0,0.0,0.0,0.0,0.0,0.0,0.0,0.0,0.0,0.0,1.7909,1.8664,0.0,1.916,1.9647,2.0133,2.0597,2.0569,2.096,2.1859,2.142,2.1343,2.1682,2.1605,2.1318,2.081,2.0803,2.077,2.0782,2.0442,2.0372,2.0571,2.0189,2.0049,2.0049,1.9824,1.9401,1.8967,1.9704,1.9084,1.7732,1.8315,1.8254,1.7831,1.7782,1.7599,1.7282,0.0,0.0,0.0,0.0,0.0,0.0,0.0,0.0,0.0,0.0,0.0,1.8523,1.8392,1.8706,1.8853,1.8746,1.7311,1.6768,1.7601,0.0,0.0,0.0,0.0,0.0,0.0,2.0264,2.0535,2.0303,1.9626,1.9015,1.8578,1.8081,1.7411,1.6612,1.7073,1.6939,1.6226,1.5323,1.481,1.4668,1.4711,1.5165,1.5713,0.0,0.0,0.0,0.0,0.0,0.0,0.0,0.0,0.0,0.0,0.0,0.0,0.0,0.0,0.0,0.0,0.0,0.0,0.0,0.0,0.0,0.0,0.0,0.0,0.0,0.0,0.0,0.0,0.0,0.0,0.0,0.0,0.0,0.0,0.0,1.8365,1.8584,1.9492,2.0168,2.0246,2.0858,2.1447,2.1912,2.1754,2.2037,2.3012,2.2499,2.2409,2.2925,2.2529,2.216,2.186,2.1571,2.1526,2.1727,2.1561,2.1575,2.1758,2.1334,2.1136,2.1108,2.0655,2.0232,1.9948,2.0637,1.9976,1.8585,1.9135,1.912,1.8826,1.8771,1.8549,1.8272,0.0,0.0,0.0,0.0,0.0,0.0,0.0,0.0,0.0,0.0,1.8676,1.9416,1.9313,1.9751,1.9462,1.7958,1.7787,1.7883,1.8146,1.8718,0.0,0.0,0.0,0.0,1.9823,1.9702,1.9783,2.0129,1.9641,1.9224,1.8893,1.8731,1.8212,1.7558,1.7707,1.7652,1.7585,1.7862,1.7667,1.7121,1.6113,1.641,1.7405,0.0,0.0,0.0,0.0,0.0,0.0,0.0,0.0,0.0,0.0,0.0,0.0,0.0,0.0,0.0,0.0,0.0,0.0,0.0,0.0,0.0,0.0,0.0,0.0,0.0,0.0,0.0,0.0,0.0,0.0,0.0,0.0,0.0,1.8232,1.9238,1.9792,1.9049,2.0099,2.0916,2.0982,2.1063,2.1697,2.3135,2.2245,2.2233,2.3576,2.3576,2.348,2.3408,2.3681,2.3768,2.3692,2.2851,2.3098,2.4319,2.382,2.3946,2.444,2.3245,2.2658,2.2572,2.1167,2.0585,2.0514,2.0528,2.0528,2.0628,2.1421,2.1525,2.1164,2.1164,2.0988,2.057,0.0,0.0,0.0,0.0,0.0,0.0,0.0,0.0,0.0,0.0,1.8126,1.8909,1.8937,1.9193,1.9116,1.8432,1.7681,1.7252,1.7327,0.0,0.0,0.0,0.0,0.0,2.0382,2.0631,2.0649,2.0398,1.9863,1.9445,1.9132,1.9011,1.8693,1.8252,1.8472,1.8727,1.8962,1.9169,1.9431,1.9533,1.8315,1.7762,1.7658,0.0,0.0,0.0,0.0,0.0,0.0,0.0,0.0,0.0,0.0,0.0,0.0,0.0,0.0,0.0,0.0,0.0,0.0,0.0,0.0,0.0,0.0,0.0,0.0,0.0,0.0,0.0,0.0,0.0,0.0,0.0,0.0,2.0503,2.0284,2.0959,2.1713,2.2199,2.2733,2.3067,2.3129,2.3605,2.3994,2.4285,2.4323,2.4505,2.4867,2.456,2.4145,2.3693,2.3889,2.3759,2.3277,2.3589,2.3915,2.4154,2.4099,2.4198,2.4355,2.3999,2.3635,2.3212,2.2729,2.203,2.1265,2.16,2.1457,2.105,2.1024,2.092,2.0851,2.0711,2.0613,2.0443,0.0,0.0,0.0,0.0,0.0,0.0,0.0,0.0,0.0,0.0,1.8068,1.8942,1.8693,1.9006,1.8915,1.8114,1.77,1.7461,1.7342,0.0,0.0,0.0,0.0,2.0688,2.0583,2.0731,2.0791,2.0798,2.0349,2.0132,2.0156,1.9963,1.9662,1.93,1.9358,1.9501,1.963,1.9929,2.0292,2.0634,2.0095,1.9511,1.9012,1.9269,1.8758,1.788,1.8005,1.7458,1.6682,1.6542,0.0,0.0,0.0,0.0,0.0,0.0,0.0,0.0,0.0,0.0,0.0,0.0,0.0,0.0,0.0,0.0,0.0,0.0,0.0,0.0,0.0,0.0,0.0,0.0,2.1439,2.2125,2.2144,2.2248,2.2524,2.3032,2.3449,2.3883,2.4207,2.4571,2.4865,2.5037,2.5122,2.5364,2.5859,2.5452,2.5206,2.5156,2.4963,2.4695,2.438,2.4544,2.4779,2.5048,2.51,2.5152,2.5226,2.4918,2.4604,2.4283,2.3851,2.3277,2.2668,2.2879,2.2808,0.0,0.0,0.0,0.0,0.0,2.1795,2.1405,0.0,0.0,0.0,0.0,0.0,0.0,0.0,0.0,0.0,0.0,0.0,1.907,1.8424,1.8905,1.8707,1.7379,1.7788,1.8046,0.0,0.0,0.0,2.0139,2.0459,2.0669,2.0718,2.0508,2.0661,2.1222,2.0911,2.0995,2.148,2.1126,2.0819,2.0528,2.0377,2.0228,2.0122,2.0524,2.0881,2.1148,2.1614,2.1391,2.0803,2.0534,2.0096,1.966,1.983,1.9311,1.8477,1.7969,0.0,0.0,0.0,0.0,0.0,0.0,0.0,0.0,0.0,0.0,0.0,0.0,0.0,0.0,0.0,0.0,0.0,0.0,0.0,0.0,0.0,0.0,0.0,0.0,2.2666,2.3816,2.3861,2.3389,2.2946,2.274,2.339,2.403,2.4642,2.4701,2.5029,2.564,2.5214,2.5445,2.6669,0.0,0.0,0.0,0.0,2.6073,2.6111,2.5572,2.5625,2.6286,2.6286,2.6326,2.6443,2.5754,2.5469,2.5369,2.4631,2.4283,2.4162,2.4154,2.416,2.416,2.3463,2.321,2.328,2.3906,2.3652,2.293,0.0,0.0,0.0,0.0,0.0,0.0,0.0,0.0,0.0,1.6213,1.7294,1.79,1.7492,1.8025,1.806,1.7073,1.733,1.7887,0.0,0.0,2.0027,2.0916,2.1234,2.1415,2.1499,2.1595,2.1591,2.1431,2.1272,2.1226,2.1344,2.1385,2.1366,2.1287,2.1519,2.1789,2.2055,2.2418,2.282,2.316,2.3472,2.2542,2.0972,2.119,2.0917,2.0393,1.9991,1.9723,1.9521,1.905,1.861,1.8226,1.7853,0.0,0.0,0.0,0.0,0.0,0.0,0.0,0.0,0.0,0.0,0.0,0.0,0.0,0.0,0.0,0.0,0.0,0.0,0.0,0.0,2.4461,2.4606,2.4759,2.5464,2.5481,2.5265,2.4875,2.5444,2.5682,2.525,2.5844,2.6265,2.6396,2.6412,2.6763,2.7541,2.7468,2.7228,2.6877,2.6806,2.6565,2.6125,2.6105,2.6105,2.6111,0.0,0.0,2.615,2.6037,2.5777,2.5397,2.5114,2.4708,2.4162,2.4154,2.4413,2.4741,2.4174,2.3935,2.3935,2.4061,2.3881,2.3603,0.0,0.0,0.0,0.0,0.0,0.0,0.0,0.0,0.0,0.0,1.655,1.7058,1.656,1.6946,1.691,1.6066,1.6778,0.0,0.0,1.961,2.0272,2.0908,2.1178,2.1345,2.1444,2.1599,2.1734,2.1913,2.1831,2.1993,2.2302,2.2289,2.2155,2.1913,2.2394,2.2563,2.2534,2.306,2.3307,2.3377,2.3533,2.2883,2.1839,2.2254,2.1773,2.0887,2.0827,2.0673,2.0432,1.9953,1.9768,1.9569,1.8799,1.8392,1.8042,0.0,0.0,0.0,0.0,0.0,0.0,0.0,0.0,0.0,0.0,0.0,0.0,0.0,0.0,2.2942,0.0,0.0,2.4562,2.5949,2.5967,2.5992,2.6337,2.6745,2.6747,2.6188,2.6703,2.6992,2.6645,2.6938,2.7213,2.7213,2.7286,2.7565,2.8197,2.824,2.8003,2.7527,2.7513,2.7116,2.6326,2.6218,2.6233,2.6233,2.6056,2.6056,2.6111,2.6002,2.5887,2.5657,2.5604,2.5367,2.5057,2.4913,2.5057,2.5294,2.4947,2.4889,2.498,2.498,2.4483,2.3747,0.0,0.0,0.0,0.0,0.0,0.0,0.0,0.0,0.0,0.0,0.0,1.6244,1.572,1.5848,1.5777,0.0,0.0,0.0,0.0,1.998,2.0628,2.0887,2.1083,2.1286,2.1498,2.16,2.1894,2.2466,2.2408,2.2673,2.3231,2.3127,2.2893,2.2494,2.305,2.3069,2.2732,2.3369,2.3531,2.3275,2.3349,2.3049,2.2608,2.3014,2.2375,2.1284,2.1474,2.1404,2.1154,2.0648,2.0751,2.0894,1.9573,1.9341,1.9323,1.8127,1.8467,0.0,0.0,0.0,0.0,0.0,0.0,0.0,0.0,0.0,2.2426,2.3926,2.451,2.5073,2.5902,2.5765,2.5867,2.6876,2.7167,2.7248,2.7201,2.7792,2.8046,2.7579,2.7776,2.7902,2.779,2.7888,2.7945,2.7945,2.7945,2.8226,2.883,2.8872,2.8753,2.8466,2.8308,2.7741,2.6791,2.6588,2.642,2.6286,2.6129,2.606,2.6056,2.5948,2.5893,2.5893,2.5893,2.5893,2.5893,2.5784,2.5729,2.5729,2.5592,2.5716,2.6007,2.5895,2.5061,2.4003,0.0,0.0,0.0,0.0,0.0,0.0,0.0,0.0,0.0,0.0,0.0,0.0,0.0,0.0,0.0,0.0,0.0,0.0,1.9346,2.0147,2.0891,2.1575,2.1775,2.2139,2.2596,2.2801,2.2951,2.3024,2.2876,2.2875,2.2933,2.3037,2.3053,2.3024,2.3505,2.3716,2.3682,2.4107,2.4293,2.4253,2.4389,2.3655,2.2508,2.2661,2.2321,2.1712,2.087,2.1069,2.1637,2.0974,2.1285,2.1831,2.1066,2.046,2.0003,1.9922,0.0,1.8284,1.8452,1.9549,2.103,2.2607,2.3088,2.4028,0.0,0.0,2.5143,2.7087,2.7019,2.6824,2.7533,2.7488,2.7656,2.8408,2.839,2.8326,2.8632,2.933,2.9898,3.0052,2.9209,2.838,2.7832,2.8268,2.8591,2.8591,2.8591,2.8858,2.9476,2.9504,2.9476,2.9468,2.8993,2.8505,2.7868,2.7797,2.723,2.6125,2.6497,2.6427,2.5893,2.5893,2.5893,2.5893,2.5893,2.5893,2.5893,2.5893,2.5893,2.5839,2.5729,2.6022,2.6454,2.5814,2.5329,2.5025,0.0,0.0,0.0,0.0,0.0,0.0,0.0,0.0,0.0,0.0,0.0,0.0,0.0,0.0,0.0,0.0,0.0,0.0,1.9074,1.9874,2.0599,2.1214,2.1446,2.1802,2.2384,2.3186,2.3356,2.2992,2.331,2.3264,2.2888,2.2947,2.2992,2.2992,2.348,2.3696,2.3696,2.4147,2.423,2.4063,2.4105,2.3442,2.236,2.2076,2.1523,2.0801,1.9955,1.9937,0.0,0.0,2.0178,2.0616,2.0766,2.0573,2.0306,2.028,2.0262,0.0,2.1781,2.2511,0.0,0.0,2.4829,2.5614,2.722,2.7006,2.6893,2.8477,2.9062,2.9348,2.9808,2.9371,2.9228,0.0,2.9358,2.9059,2.9721,2.9669,2.9736,3.0401,3.0169,2.977,2.9434,2.9954,3.0164,2.9785,2.9757,2.9869,3.0122,2.9799,2.9434,2.9205,2.9011,2.8632,2.8111,2.7626,2.7173,2.6594,2.6384,2.6132,2.5893,2.5893,2.6049,2.6274,2.5952,2.5939,2.6133,2.5716,2.5508,2.555,2.5854,2.588,2.577,2.5591,2.5369,2.5119,0.0,0.0,0.0,0.0,0.0,0.0,0.0,0.0,0.0,0.0,0.0,0.0,0.0,0.0,0.0,0.0,0.0,0.0,0.0,1.9502,2.0339,2.0963,2.1108,2.1549,2.2294,2.3196,2.3484,2.3163,2.3484,2.3484,2.3149,2.2975,2.2989,2.3194,2.3526,2.3763,2.3971,2.428,2.419,2.3806,2.3703,2.2921,2.181,2.1357,2.0498,1.9534,1.9326,1.9333,0.0,0.0,1.9445,1.9939,2.0286,2.0479,2.06,2.0678,2.1218,2.2094,2.3615,0.0,0.0,2.5449,2.6549,2.7483,2.7565,2.8027,2.8728,2.972,3.0402,3.084,3.0937,3.0458,3.0134,3.0631,2.9907,2.9545,3.0174,2.9861,2.9771,3.0432,3.0823,3.096,3.06,3.1081,3.1166,3.0558,3.0375,3.0263,3.0263,2.9855,2.9468,2.9078,2.9064,2.8828,2.8352,2.7952,2.7526,2.7187,2.668,2.6315,2.6146,2.6105,2.6204,2.6343,2.6008,2.5994,2.6116,2.5534,2.53,2.5341,2.5807,2.5794,2.5463,2.5424,2.5313,2.5106,0.0,0.0,0.0,0.0,0.0,0.0,0.0,0.0,0.0,0.0,0.0,0.0,0.0,0.0,0.0,0.0,0.0,0.0,0.0,1.9171,2.0302,2.1164,2.1211,2.1726,2.2844,2.2902,2.3267,2.3862,2.3267,2.3267,2.3847,2.3178,2.3267,2.3862,2.3862,2.4196,2.4776,2.4776,2.4428,2.3862,2.3469,2.2295,2.0711,2.043,1.9364,1.8122,1.9214,0.0,0.0,0.0,1.9836,2.0652,2.002,2.0273,0.0,2.1568,2.1722,0.0,0.0,0.0,2.534,2.6396,2.8442,3.0214,3.0261,3.056,3.0891,3.1198,3.0886,3.0513,3.0193,3.0221,3.0208,2.987,2.9834,2.9756,2.9613,3.0267,3.071,3.0556,3.1254,3.1513,0.0,3.1005,3.0941,3.053,2.9968,2.9645,2.9645,2.9617,2.9602,2.9588,2.9588,2.9279,2.8661,2.9237,2.8928,2.7748,2.772,2.7397,2.6778,2.6637,2.6273,2.573,2.6173,2.6047,2.5536,2.5508,2.5494,2.5494,2.5522,2.574,2.6024,2.5435,2.523,2.5174,0.0,0.0,0.0,0.0,0.0,0.0,0.0,0.0,0.0,0.0,0.0,0.0,0.0,0.0,0.0,0.0,0.0,0.0,0.0,1.8523,1.9383,2.0404,2.084,2.1465,2.2294,2.3136,2.347,2.3267,2.3844,2.4094,2.3891,2.4123,2.4341,2.4559,2.4559,2.4437,2.4155,2.3822,2.3505,2.3188,2.2051,2.1445,2.1135,2.0072,1.9155,1.8501,0.0,0.0,0.0,0.0,0.0,0.0,1.9211,0.0,0.0,2.1859,0.0,0.0,0.0,0.0,2.7776,2.8984,2.9985,3.0738,3.0962,3.123,3.1341,3.092,3.0495,3.0036,2.9559,2.9415,2.9232,2.8755,2.9165,2.9682,2.9997,3.0197,3.0315,3.0514,3.1737,0.0,0.0,0.0,0.0,3.0558,3.0461,3.0348,3.0207,2.9876,2.9713,2.9602,2.9713,2.9552,2.9184,2.8946,2.8591,2.8066,2.7589,2.7343,2.7265,2.6687,2.6489,2.6555,2.5848,2.5654,2.5748,2.5351,2.542,2.5775,2.5917,2.6027,2.6106,2.5914,2.5586,2.5174,0.0,0.0,0.0,0.0,0.0,0.0,0.0,0.0,0.0,0.0,0.0,0.0,0.0,0.0,0.0,0.0,0.0,0.0,0.0,0.0,1.8259,1.9233,1.9573,2.0096,2.0926,2.1726,2.2124,2.2121,2.2932,2.3231,2.306,2.3473,2.3737,2.395,2.395,2.3736,2.3338,2.3045,2.26,2.194,2.0806,2.0325,2.0226,1.9302,1.8728,0.0,0.0,0.0,0.0,0.0,0.0,0.0,0.0,0.0,0.0,0.0,0.0,0.0,0.0,2.8002,2.8876,3.0189,3.0794,3.1086,3.1247,3.1394,3.1359,3.1112,3.0211,2.9395,2.9163,2.8805,2.8183,2.7332,2.7605,2.819,2.8943,2.9014,2.9411,3.0441,3.1708,3.2068,0.0,0.0,0.0,3.0544,3.0594,3.0559,3.0207,2.9862,2.9713,2.9602,2.9713,2.9651,2.9477,2.901,2.858,2.8201,2.7787,2.7483,2.7395,2.7065,2.6946,2.6969,2.6157,2.5796,2.5846,2.5249,2.5236,2.5575,2.5761,2.5761,2.5748,2.5832,2.5515,2.5118,0.0,0.0,0.0,0.0,0.0,0.0,0.0,0.0,0.0,0.0,0.0,0.0,0.0,0.0,0.0,0.0,0.0,0.0,0.0,0.0,0.0,1.7711,1.7497,1.7879,1.8893,1.8948,1.9539,2.0617,2.0593,2.0893,2.1411,2.1403,2.1703,2.2206,2.2196,2.2213,2.2247,2.2406,2.1615,2.018,1.975,1.9118,1.8332,1.8196,0.0,0.0,0.0,0.0,0.0,0.0,0.0,0.0,0.0,0.0,0.0,0.0,0.0,2.6117,2.7964,2.8419,2.8724,3.0092,3.0874,3.1275,3.1251,3.1104,3.1091,3.1596,3.0003,2.8598,0.0,0.0,2.7299,2.58,2.5415,2.5665,2.6655,2.7185,2.8216,0.0,0.0,0.0,0.0,0.0,0.0,3.0572,0.0,3.0263,2.9687,2.9659,2.9659,2.9659,2.9617,2.9602,2.954,2.9415,2.8997,2.8243,2.8243,2.7864,2.7299,2.7694,2.7564,2.7004,2.6884,2.647,2.5846,2.5276,2.5059,2.5046,2.5131,2.5131,2.5046,2.5131,2.5118,2.5005,0.0,0.0,0.0,0.0,0.0,0.0,0.0,0.0,0.0,0.0,0.0,0.0,0.0,0.0,0.0,0.0,0.0,0.0,0.0,0.0,0.0,0.0,0.0,0.0,0.0,0.0,0.0,0.0,0.0,2.0675,2.0408,2.1152,2.1206,2.0731,2.1028,2.0772,2.0064,1.9964,1.975,1.9337,0.0,1.8507,1.9271,0.0,0.0,0.0,0.0,0.0,0.0,0.0,0.0,0.0,0.0,0.0,2.4845,0.0,0.0,2.7634,2.8842,2.9485,2.9999,3.0843,3.0906,3.0749,3.0832,3.044,2.9941,2.9189,2.8179,2.7299,0.0,0.0,0.0,2.5975,2.6865,0.0,2.7656,2.8936,0.0,3.0296,0.0,3.2925,3.182,3.2281,0.0,0.0,3.0977,3.0588,3.0305,3.0418,3.0355,3.0163,2.9778,2.9415,2.9035,2.8844,2.8762,2.8625,2.8561,2.8466,2.8365,2.7952,2.7686,2.7509,2.7013,2.647,2.5873,2.5724,2.567,2.5615,2.5238,2.5333,2.5615,2.5225,2.5005,2.5005,0.0,0.0,0.0,0.0,0.0,0.0,0.0,0.0,0.0,0.0,0.0,0.0,0.0,0.0,0.0,0.0,0.0,0.0,0.0,0.0,0.0,0.0,0.0,0.0,0.0,0.0,0.0,0.0,0.0,0.0,0.0,1.9494,1.9656,1.9167,1.9297,1.8869,1.8105,1.8044,0.0,0.0,0.0,0.0,0.0,0.0,0.0,0.0,0.0,0.0,0.0,0.0,0.0,2.3062,2.4116,2.5046,2.5879,2.6582,0.0,2.8661,2.8935,2.9669,3.0325,3.0134,2.9883,2.9624,2.9228,2.8533,2.7979,2.7897,2.6935,0.0,0.0,0.0,0.0,0.0,0.0,0.0,2.6895,2.7926,2.9197,0.0,3.2327,0.0,3.2681,3.2925,3.2814,0.0,3.174,3.1237,3.0558,3.0722,3.0531,2.9931,2.9722,2.9352,2.878,2.8716,2.8716,2.8716,2.8651,2.8651,2.8716,2.8311,2.8085,2.8058,0.0,2.6864,2.628,2.6009,2.5738,2.5466,2.5127,2.5208,2.5453,2.5127,2.5005,2.5005,0.0,0.0,0.0,0.0,0.0,0.0,0.0,0.0,0.0,0.0,0.0,0.0,0.0,0.0,0.0,0.0,0.0,0.0,0.0,0.0,0.0,0.0,0.0,0.0,0.0,0.0,0.0,0.0,0.0,0.0,0.0,0.0,0.0,0.0,0.0,0.0,0.0,0.0,0.0,0.0,0.0,0.0,0.0,0.0,0.0,0.0,0.0,0.0,0.0,0.0,2.4828,2.4363,2.4921,2.5749,2.6611,2.7137,2.8275,2.9265,2.8748,2.9337,2.9941,2.8852,2.8568,2.8298,2.7207,2.642,2.6119,2.7021,0.0,2.54,2.6542,0.0,2.4936,2.3616,0.0,2.3973,2.5542,2.6163,2.7699,3.1063,3.2177,3.296,3.3744,3.33,3.2986,3.288,3.2591,3.1893,3.0712,3.0771,3.0397,2.938,2.9415,2.9226,2.878,2.878,2.8716,2.8587,2.8587,2.8587,2.8522,2.8522,2.8457,2.8287,2.7917,2.7309,2.6587,2.618,2.5615,2.5005,2.5005,2.5005,2.5005,2.5005,2.5005,2.5005,0.0,0.0,0.0,0.0,0.0,0.0,0.0,0.0,0.0,0.0,1.4758,1.5059,0.0,0.0,0.0,0.0,0.0,0.0,0.0,0.0,0.0,0.0,0.0,0.0,0.0,0.0,0.0,0.0,0.0,0.0,0.0,0.0,0.0,0.0,0.0,0.0,0.0,0.0,0.0,0.0,0.0,0.0,0.0,0.0,0.0,0.0,0.0,0.0,0.0,0.0,2.4944,2.5229,2.6003,2.6652,2.7137,2.7203,2.8247,2.9357,2.9241,2.9087,2.8866,2.8601,2.813,2.7563,2.6633,2.6652,0.0,0.0,0.0,2.5845,2.5959,2.5934,0.0,2.5401,0.0,0.0,0.0,0.0,2.9289,0.0,0.0,0.0,0.0,0.0,0.0,0.0,0.0,3.2089,3.1359,3.1222,3.0443,2.8949,2.8844,2.8716,2.8651,2.8651,2.8587,2.8587,2.8587,2.8392,2.7921,2.7921,2.7643,2.7082,2.7525,0.0,2.591,2.6445,2.6009,2.5005,2.5005,2.5005,2.5005,2.5005,2.5005,2.5005,0.0,0.0,0.0,0.0,0.0,0.0,0.0,1.3796,1.4251,1.4141,1.4602,1.4958,1.496,1.474,1.4452,0.0,0.0,0.0,0.0,0.0,0.0,0.0,0.0,0.0,0.0,0.0,0.0,0.0,0.0,0.0,0.0,0.0,0.0,0.0,0.0,0.0,0.0,0.0,0.0,0.0,0.0,0.0,0.0,0.0,0.0,0.0,0.0,0.0,0.0,0.0,2.4031,2.458,2.6614,2.7042,2.6842,2.7252,2.836,2.9254,2.8369,2.8442,2.8438,2.7392,2.6985,2.6371,2.4764,0.0,0.0,0.0,0.0,2.5036,2.5519,0.0,0.0,0.0,0.0,0.0,0.0,0.0,0.0,0.0,0.0,0.0,0.0,0.0,0.0,0.0,0.0,3.2551,3.1541,3.0592,2.9822,2.9253,2.8844,2.8651,2.8716,2.8392,2.8183,2.8183,2.7908,2.7643,2.7377,2.7377,2.7162,2.6892,2.7229,2.6961,2.6306,2.6306,2.5735,2.4962,2.493,2.4556,2.4105,2.4765,2.4778,2.4593,0.0,0.0,0.0,0.0,0.0,0.0,0.0,1.3891,1.4296,1.4398,1.4702,1.4854,1.481,1.4566,1.4199,0.0,0.0,0.0,0.0,0.0,0.0,0.0,0.0,0.0,0.0,0.0,0.0,0.0,0.0,0.0,0.0,0.0,0.0,0.0,0.0,0.0,0.0,0.0,0.0,0.0,0.0,0.0,0.0,0.0,0.0,0.0,0.0,0.0,0.0,0.0,2.2897,2.3197,2.6274,2.6622,2.5986,2.6718,2.7837,2.8584,2.7426,2.7727,2.7904,2.6108,2.5836,2.5443,2.3169,2.3283,0.0,0.0,0.0,2.4263,2.5409,0.0,0.0,0.0,0.0,0.0,0.0,0.0,0.0,0.0,0.0,0.0,0.0,0.0,0.0,0.0,0.0,0.0,3.1475,3.0081,2.9428,2.9491,2.8844,2.8522,2.8651,2.7973,2.7643,2.7643,2.7175,2.6905,2.6756,2.6756,2.662,2.6483,2.662,0.0,2.6583,2.597,2.5499,2.5053,2.484,2.4275,2.3611,2.4633,2.4708,2.4363,0.0,0.0,0.0,0.0,0.0,0.0,0.0,1.4486,1.501,1.5551,1.5232,1.4775,1.4479,1.4324,1.4008,0.0,0.0,0.0,0.0,0.0,0.0,0.0,0.0,0.0,0.0,0.0,0.0,0.0,0.0,0.0,0.0,0.0,0.0,0.0,0.0,0.0,0.0,0.0,0.0,0.0,0.0,0.0,0.0,0.0,0.0,0.0,0.0,0.0,0.0,0.0,0.0,2.1306,2.3968,2.4626,2.4501,2.498,0.0,0.0,2.7414,2.717,2.6493,2.5265,2.5499,2.5356,2.3018,0.0,0.0,0.0,2.4212,2.4441,2.5948,0.0,0.0,0.0,0.0,0.0,0.0,0.0,0.0,0.0,0.0,0.0,0.0,0.0,0.0,0.0,0.0,0.0,3.1205,3.055,2.9859,2.919,2.843,2.8039,2.8039,2.7443,2.704,2.704,2.704,2.662,2.6,2.6,2.5523,2.4778,2.5465,0.0,0.0,2.5561,2.56,2.5579,2.501,2.4715,2.4658,2.4909,2.4948,2.4948,0.0,0.0,0.0,0.0,0.0,0.0,1.429,1.4362,1.445,1.4738,1.4588,1.425,1.3732,1.3691,1.3488,1.2864,0.0,0.0,0.0,0.0,0.0,0.0,0.0,0.0,0.0,0.0,0.0,0.0,0.0,0.0,0.0,0.0,0.0,0.0,0.0,0.0,0.0,0.0,0.0,0.0,0.0,0.0,0.0,0.0,0.0,0.0,0.0,0.0,0.0,0.0,0.0,0.0,2.2337,2.2689,0.0,0.0,2.5633,2.6511,2.6205,2.598,2.5588,2.4661,2.4281,2.3778,2.2494,0.0,0.0,2.4142,2.4217,2.4577,2.5465,0.0,0.0,0.0,0.0,0.0,0.0,0.0,0.0,0.0,0.0,0.0,0.0,0.0,0.0,0.0,0.0,0.0,3.1254,3.0654,3.0016,2.9364,2.8475,2.7842,2.7497,2.6824,2.6496,2.6496,2.6139,2.5791,2.5511,2.5511,2.5312,2.4909,2.5253,0.0,0.0,2.5335,2.5215,2.5141,2.5333,2.4758,2.3923,2.5132,2.5074,2.4536,0.0,0.0,0.0,0.0,0.0,1.3792,1.4397,1.4205,1.3923,1.3772,1.3865,1.3704,1.3019,1.2986,1.2856,1.2495,1.2311,0.0,0.0,0.0,0.0,0.0,0.0,0.0,0.0,0.0,0.0,0.0,0.0,0.0,0.0,0.0,0.0,0.0,0.0,0.0,0.0,0.0,0.0,0.0,0.0,0.0,0.0,0.0,0.0,0.0,0.0,0.0,0.0,0.0,0.0,0.0,0.0,0.0,0.0,0.0,2.4613,2.5355,2.4604,2.4432,2.4218,2.3367,2.2903,2.2449,0.0,0.0,2.377,2.3998,2.4271,2.4613,2.519,2.4567,2.3961,0.0,0.0,2.4499,0.0,0.0,0.0,0.0,0.0,0.0,0.0,0.0,0.0,0.0,0.0,0.0,3.1133,3.0419,2.9751,2.9161,2.8053,2.7364,2.696,2.6289,2.5943,2.5943,2.5523,2.5312,2.5241,2.5241,2.5182,2.5052,2.5111,0.0,0.0,2.5015,2.4764,2.4866,2.5189,2.4507,2.3546,2.5055,2.5128,2.4421,0.0,0.0,0.0,0.0,0.0,0.0,1.4304,1.4071,1.3676,1.2999,1.3117,1.3045,1.2394,1.2169,1.2257,1.2584,1.1986,0.0,0.0,0.0,0.0,0.0,0.0,0.0,0.0,0.0,1.1892,1.2136,1.3858,0.0,0.0,0.0,0.0,0.0,0.0,0.0,0.0,0.0,0.0,0.0,0.0,0.0,0.0,0.0,0.0,0.0,0.0,0.0,0.0,0.0,0.0,0.0,0.0,0.0,0.0,0.0,2.235,2.2911,2.284,2.2603,2.2185,2.1151,2.143,2.1725,0.0,0.0,2.3442,2.4346,2.4389,2.4504,2.5246,2.454,2.3994,2.4481,2.3527,0.0,0.0,0.0,0.0,0.0,0.0,0.0,0.0,0.0,0.0,0.0,0.0,0.0,3.0882,2.9797,2.8922,2.8347,2.7105,2.6414,2.6414,2.5652,2.5312,2.5312,2.5312,2.5241,2.5123,2.5123,2.4992,2.479,0.0,0.0,0.0,2.4527,2.445,2.5006,2.4381,2.414,2.4175,2.4749,2.5005,2.5005,0.0,0.0,0.0,0.0,0.0,0.0,0.0,1.2862,1.2114,1.2152,1.1996,1.1861,1.1687,1.2035,1.2226,1.2244,1.195,0.0,0.0,0.0,0.0,0.0,0.0,0.0,0.0,0.0,1.1996,1.3128,1.3793,1.4121,1.4254,1.5455,0.0,0.0,0.0,0.0,0.0,0.0,0.0,0.0,0.0,0.0,0.0,0.0,0.0,0.0,0.0,0.0,0.0,0.0,0.0,0.0,0.0,0.0,0.0,0.0,0.0,0.0,2.1592,2.1213,2.093,2.0649,2.0268,2.0061,2.0217,0.0,2.2842,2.3398,2.4405,2.508,2.4937,2.4509,2.4125,2.399,2.3951,0.0,0.0,0.0,0.0,0.0,0.0,0.0,0.0,0.0,0.0,0.0,0.0,0.0,3.0075,2.902,2.832,2.7999,2.6961,2.6139,2.5535,2.5382,2.5312,2.5312,2.5312,2.5312,2.5241,2.5241,2.5182,0.0,0.0,2.5123,2.5087,2.4539,2.437,2.4472,2.4322,2.3967,2.3679,2.4603,2.4681,2.4421,0.0,0.0,0.0,0.0,0.0,0.0,0.0,1.2127,1.1448,1.1276,1.1196,1.1166,1.127,1.1711,1.1994,1.2105,1.187,0.0,0.0,0.0,0.0,0.0,0.0,0.0,1.1331,1.1518,1.2182,1.3379,1.3454,1.3836,1.4397,1.5224,1.5765,1.6103,0.0,0.0,0.0,0.0,0.0,0.0,0.0,0.0,2.1412,0.0,0.0,0.0,0.0,0.0,0.0,0.0,0.0,0.0,0.0,0.0,0.0,0.0,0.0,0.0,0.0,1.9845,1.9764,1.9304,1.894,0.0,0.0,0.0,2.251,2.3253,2.4517,2.5313,2.4751,2.4509,2.4331,2.418,2.4409,0.0,0.0,0.0,0.0,0.0,0.0,0.0,0.0,0.0,0.0,0.0,0.0,0.0,2.8966,2.8113,2.7459,2.7091,2.6328,2.5594,2.4992,2.5111,2.5241,2.5241,2.5312,2.5312,2.5312,2.5241,2.5182,0.0,0.0,2.5052,0.0,2.4267,2.397,2.3899,2.3668,2.3331,2.3053,2.3876,2.417,2.4118,0.0,0.0,0.0,0.0,0.0,0.0,0.0,1.1799,1.1431,1.039,1.0621,1.0889,1.1024,1.1276,1.1582,1.196,0.0,0.0,0.0,0.0,0.0,0.0,0.0,0.0,1.0805,1.1659,1.2421,1.3101,1.3117,1.3485,1.4222,1.4408,1.5095,1.6208,1.6529,1.7265,1.8275,1.8862,1.9259,1.9548,2.1207,2.1413,0.0,0.0,0.0,0.0,0.0,0.0,0.0,0.0,0.0,0.0,0.0,0.0,0.0,0.0,0.0,0.0,0.0,0.0,0.0,0.0,0.0,0.0,0.0,0.0,0.0,2.3578,2.4678,2.5257,2.458,2.4564,2.4638,2.4696,2.4814,0.0,0.0,0.0,0.0,0.0,0.0,0.0,0.0,0.0,0.0,0.0,0.0,0.0,2.7723,2.716,2.6557,2.5834,2.5337,2.4981,2.479,2.5052,2.5135,2.5171,2.5265,2.5324,2.536,2.5194,2.5111,0.0,2.4861,2.4909,2.498,2.3694,2.3258,2.3328,2.2597,2.231,2.2372,2.2896,2.345,2.3949,0.0,0.0,0.0,0.0,0.0,0.0,0.0,0.0,0.0,0.0,1.0205,1.0351,1.0459,1.1243,1.1548,0.0,0.0,0.0,0.0,0.0,0.0,0.0,0.0,0.0,1.1762,1.1977,1.2766,1.4155,1.3762,1.3802,1.4222,1.464,1.4914,1.5119,1.6245,1.7483,1.8695,1.9133,1.9857,2.0775,2.1948,2.2103,0.0,0.0,0.0,0.0,1.9289,1.8737,0.0,0.0,0.0,0.0,0.0,0.0,0.0,0.0,1.9482,0.0,1.8242,0.0,1.8115,1.8137,1.8408,0.0,0.0,0.0,0.0,0.0,0.0,2.4835,2.3989,2.4398,2.4719,2.413,2.5281,0.0,0.0,0.0,0.0,0.0,0.0,0.0,0.0,0.0,0.0,0.0,0.0,2.8371,2.808,2.7363,2.6649,2.6205,2.5455,2.5052,2.5052,2.5182,2.5445,2.5841,2.5504,2.5516,2.5901,2.5362,2.5182,0.0,2.4921,2.4696,2.4398,2.3541,2.2991,2.2645,2.1898,2.1639,2.1749,2.2594,2.3055,2.3243,0.0,0.0,0.0,0.0,0.0,0.0,0.0,0.0,0.0,0.0,0.0,0.0,0.0,0.0,0.0,0.0,0.0,0.0,0.0,0.0,0.0,0.0,0.0,1.1453,1.1806,1.2379,1.3191,1.4204,1.3955,1.3971,1.4269,1.4444,1.4729,1.5221,1.6484,1.7501,1.8287,1.8666,1.9195,1.9929,2.1487,0.0,0.0,0.0,0.0,0.0,1.8861,1.8341,0.0,1.8544,1.8965,1.9307,0.0,0.0,0.0,0.0,1.9384,1.8614,1.8548,1.8267,1.8064,1.8226,1.8604,1.9073,0.0,0.0,0.0,0.0,0.0,0.0,2.4569,0.0,0.0,0.0,0.0,0.0,0.0,0.0,0.0,0.0,0.0,0.0,0.0,0.0,0.0,0.0,0.0,2.8311,2.7834,2.7442,2.7024,2.6621,2.5898,2.5469,2.5348,2.5469,2.5684,2.5959,2.5745,2.5697,2.5721,2.5314,2.498,0.0,2.4566,2.4201,2.3727,2.3007,2.2577,2.2285,2.1609,2.1423,2.173,2.2268,2.2775,2.3227,0.0,0.0,0.0,0.0,0.0,0.0,0.0,0.0,0.0,0.0,0.0,0.0,0.0,0.0,0.0,0.0,0.0,0.0,0.0,0.0,0.0,0.0,1.1556,1.1984,1.1737,1.2927,1.3775,1.4246,1.4101,1.4216,1.4529,1.4114,1.4501,1.5588,1.6633,1.7167,1.7429,1.8013,1.8324,1.8648,2.0729,0.0,0.0,0.0,0.0,0.0,0.0,0.0,0.0,1.8235,1.8791,1.9412,1.9588,0.0,0.0,0.0,0.0,0.0,1.8999,1.8756,1.8457,1.8375,1.8946,1.9589,1.9991,0.0,0.0,0.0,0.0,0.0,0.0,0.0,0.0,0.0,0.0,0.0,0.0,0.0,0.0,0.0,0.0,0.0,0.0,0.0,0.0,0.0,0.0,2.8227,2.7537,2.761,2.7512,2.6992,2.6514,2.6127,2.595,2.5775,2.5801,2.5956,2.5985,2.5781,2.542,2.5218,2.4873,2.4455,0.0,0.0,2.3179,2.2558,2.2271,2.2089,2.1521,2.1594,2.2053,2.2134,2.2686,2.3368,0.0,0.0,0.0,0.0,0.0,0.0,0.0,0.0,0.0,0.0,0.0,0.0,0.0,0.0,0.0,0.0,0.0,0.0,0.0,0.0,0.0,1.1579,1.2161,1.2633,1.2849,1.3688,1.4708,1.5782,1.4759,1.4575,1.5156,1.4121,1.4104,1.4856,1.5405,1.5912,1.6516,1.7945,1.8773,1.9284,0.0,0.0,0.0,0.0,0.0,0.0,0.0,0.0,0.0,1.9687,1.9104,1.8177,1.9216,0.0,0.0,0.0,0.0,0.0,1.921,1.9834,2.0163,1.9651,2.045,2.1236,2.1063,0.0,0.0,0.0,0.0,0.0,0.0,0.0,0.0,0.0,0.0,0.0,0.0,0.0,0.0,0.0,0.0,0.0,0.0,0.0,0.0,0.0,0.0,2.8395,2.806,2.7801,2.7603,2.7365,2.7004,2.6944,2.7399,2.6044,2.5829,2.6728,2.5877,2.5624,2.5961,2.5385,2.5134,2.5121,0.0,2.4131,2.3226,2.301,2.2518,2.1927,2.1847,2.2122,2.2616,2.3052,2.3052,2.2877,0.0,0.0,0.0,0.0,0.0,0.0,0.0,0.0,0.0,0.0,0.0,0.0,0.0,0.0,0.0,0.0,0.0,0.0,0.0,0.0,1.1786,1.2057,1.2924,1.3334,1.3156,1.4026,1.4686,1.5108,1.4719,1.4495,1.4478,1.3894,1.3978,1.4709,1.5108,1.5813,1.6801,1.8078,1.8656,1.8915,0.0,0.0,0.0,0.0,0.0,0.0,0.0,0.0,0.0,0.0,1.8901,1.8768,1.9306,0.0,0.0,0.0,0.0,0.0,1.9759,2.0669,2.1433,2.1184,2.157,2.2022,2.2101,0.0,0.0,0.0,0.0,0.0,0.0,0.0,0.0,0.0,0.0,0.0,0.0,0.0,0.0,0.0,0.0,0.0,0.0,0.0,0.0,0.0,0.0,0.0,2.8179,2.8191,2.8071,2.798,2.7555,2.7609,2.8138,2.655,2.6142,2.6923,2.6117,2.5709,2.5661,2.5349,2.4941,2.4494,0.0,2.3961,2.2827,2.3042,2.2805,2.2329,2.2329,2.2639,2.3155,2.3743,2.3734,2.3467,0.0,0.0,0.0,0.0,0.0,0.0,0.0,0.0,0.0,0.0,0.0,0.0,0.0,0.0,0.0,0.0,0.0,0.0,0.0,1.1527,1.2003,1.2494,1.3577,1.3972,1.3557,1.4379,1.4851,1.4853,1.4618,1.4127,1.3437,1.3457,1.3889,1.4727,1.5006,1.5842,1.7011,1.7994,1.8384,1.8548,0.0,0.0,0.0,0.0,0.0,0.0,0.0,0.0,0.0,0.0,0.0,0.0,0.0,0.0,0.0,2.0221,2.0092,1.9734,2.0359,2.1332,2.2214,2.2442,0.0,2.2838,2.3103,0.0,0.0,0.0,0.0,0.0,0.0,0.0,0.0,0.0,0.0,0.0,0.0,0.0,0.0,0.0,0.0,0.0,0.0,0.0,0.0,0.0,0.0,0.0,2.8259,2.8311,2.8378,2.851,2.7885,2.7789,2.8318,2.6839,2.6382,2.6923,2.6238,2.5709,2.5312,2.5312,2.4879,2.4157,2.4542,2.3966,2.2827,2.3226,2.3187,2.2914,2.2857,2.3098,2.3559,2.4093,2.4108,2.3999,0.0,0.0,0.0,0.0,0.0,0.0,0.0,0.0,0.0,0.0,0.0,0.0,0.0,0.0,0.0,0.0,0.0,0.0,0.0,1.2069,1.2777,1.3123,1.3913,1.442,1.4514,1.5181,1.5815,1.6439,1.4767,1.339,1.2353,1.2822,1.3662,1.472,1.4713,1.5314,1.6338,1.7363,1.8029,1.8601,2.0034,0.0,0.0,0.0,0.0,0.0,0.0,0.0,0.0,0.0,0.0,0.0,0.0,0.0,1.94,1.9755,2.0008,2.0283,2.0795,2.1632,2.2406,2.2902,0.0,0.0,2.4021,2.5117,0.0,0.0,0.0,0.0,0.0,0.0,0.0,0.0,0.0,0.0,0.0,0.0,0.0,0.0,0.0,0.0,0.0,0.0,0.0,0.0,0.0,0.0,2.851,2.8041,2.8005,2.8498,2.7524,2.7248,2.7777,2.6659,2.6382,2.6923,2.5865,2.5348,2.5312,2.5312,2.5264,2.5204,2.524,2.4718,2.3873,2.3908,2.385,2.363,2.3455,2.349,2.3665,2.3746,2.3639,2.3542,0.0,0.0,0.0,0.0,0.0,0.0,0.0,0.0,0.0,0.0,0.0,0.0,0.0,0.0,0.0,0.0,0.0,0.0,0.0,1.2384,1.2854,1.3355,1.3899,1.4528,1.5207,1.5454,1.5595,1.552,1.3902,1.2875,1.2363,1.2735,1.3481,1.4555,1.4753,1.5245,1.6013,1.693,1.7409,1.7663,1.9469,2.0032,0.0,0.0,0.0,0.0,0.0,0.0,0.0,0.0,1.9453,0.0,0.0,0.0,0.0,0.0,2.0067,2.0518,2.0853,2.2089,2.3252,2.3049,0.0,0.0,0.0,0.0,0.0,0.0,0.0,0.0,0.0,0.0,0.0,0.0,0.0,0.0,0.0,0.0,0.0,0.0,0.0,0.0,0.0,0.0,0.0,0.0,0.0,0.0,2.851,2.8005,2.7969,2.8498,2.7488,2.7188,2.7717,2.6647,2.6202,2.6406,2.5661,2.548,2.5793,2.5456,2.5131,2.4831,2.5168,2.4871,2.4222,2.4542,2.4543,2.4413,2.4271,2.4413,2.4543,2.4602,2.441,2.4142,0.0,0.0,0.0,0.0,0.0,0.0,0.0,0.0,0.0,0.0,0.0,0.0,0.0,0.0,0.0,0.0,0.0,0.0,1.2377,1.2708,1.3144,1.361,1.4078,1.4686,1.5441,1.5351,1.5129,1.4893,1.3346,1.2482,1.2304,1.2861,1.3747,1.4793,1.5108,1.5551,1.6101,1.6821,1.7149,1.7278,1.8967,1.9521,0.0,0.0,0.0,0.0,0.0,0.0,0.0,0.0,1.9613,0.0,0.0,0.0,0.0,0.0,0.0,2.0542,2.1093,2.2255,2.325,0.0,0.0,0.0,0.0,0.0,0.0,0.0,0.0,0.0,0.0,0.0,0.0,0.0,0.0,0.0,0.0,0.0,0.0,0.0,0.0,0.0,0.0,0.0,0.0,0.0,0.0,0.0,0.0,2.7765,2.7633,2.7993,2.6971,2.6671,2.72,2.6298,2.5925,2.6093,2.5564,2.5492,2.5829,2.548,2.5107,2.4783,2.5155,2.5049,2.461,2.4968,2.4992,2.479,2.4861,2.4886,2.4897,2.5052,2.4752,2.4362,0.0,0.0,0.0,0.0,0.0,0.0,0.0,0.0,0.0,0.0,0.0,0.0,0.0,0.0,0.0,0.0,0.0,0.0,1.2413,1.3138,1.3667,1.3889,1.4456,1.4887,1.5096,1.4749,1.4641,1.4767,1.3301,1.2307,1.1846,1.3263,1.4417,1.5407,1.5792,1.6203,1.6616,1.7007,1.7342,1.767,1.8495,1.9483,2.0495,0.0,0.0,0.0,0.0,0.0,0.0,0.0,0.0,0.0,0.0,0.0,0.0,0.0,2.0378,2.0318,2.1648,2.1949,0.0,0.0,0.0,0.0,0.0,0.0,0.0,0.0,0.0,0.0,0.0,0.0,0.0,0.0,0.0,0.0,0.0,0.0,0.0,0.0,0.0,0.0,0.0,0.0,0.0,0.0,0.0,0.0,0.0,2.7224,2.6935,2.6935,2.5877,2.5564,2.6093,2.5576,2.5576,2.6081,2.5564,2.5312,2.5312,2.5312,2.5312,2.5312,2.5312,2.5241,2.5123,2.5123,2.4992,2.479,2.5052,2.4801,2.4339,2.492,2.4536,2.3857,0.0,0.0,0.0,0.0,0.0,0.0,0.0,0.0,0.0,0.0,0.0,0.0,0.0,0.0,0.0,0.0,0.0,0.0,1.2603,1.2931,1.3318,1.3729,1.3987,1.4336,1.4791,1.4138,1.3524,1.3026,1.241,1.2068,1.1965,1.3265,1.4092,1.4502,1.5362,1.5574,1.5369,1.6088,1.6739,1.7427,1.8544,1.961,2.0535,0.0,0.0,0.0,0.0,0.0,0.0,0.0,0.0,0.0,0.0,0.0,0.0,1.9573,1.9975,2.0625,2.1213,0.0,0.0,0.0,0.0,0.0,0.0,0.0,0.0,0.0,0.0,0.0,0.0,0.0,0.0,0.0,0.0,0.0,0.0,0.0,0.0,0.0,0.0,0.0,0.0,0.0,0.0,0.0,0.0,0.0,0.0,2.7224,2.6935,2.6935,2.5877,2.5564,2.6093,2.5576,2.5384,2.554,2.5384,2.5504,2.5853,2.548,2.5312,2.5312,2.5312,2.5312,2.5241,2.5241,2.5182,2.5182,2.5241,2.5145,2.5025,2.5193,2.5049,2.4879,0.0,0.0,0.0,0.0,0.0,0.0,0.0,0.0,0.0,0.0,1.0774,0.0,0.0,0.0,0.0,0.0,0.0,0.0,0.0,1.2803,1.3167,1.377,1.3886,1.4064,1.4239,1.361,1.2982,1.2327,1.2363,1.2337,1.2415,1.386,1.4595,1.4614,1.5599,1.5629,1.5042,1.574,1.6254,1.6829,1.7745,1.8919,2.0138,0.0,0.0,0.0,0.0,0.0,0.0,0.0,0.0,0.0,0.0,0.0,0.0,1.9768,1.983,2.0083,2.1265,0.0,0.0,0.0,0.0,0.0,0.0,0.0,0.0,0.0,0.0,0.0,0.0,0.0,0.0,0.0,0.0,0.0,0.0,0.0,0.0,0.0,0.0,0.0,0.0,0.0,0.0,0.0,0.0,0.0,0.0,2.7103,2.6731,2.6298,2.5648,2.5456,2.5781,2.5468,2.5312,2.5312,2.5312,2.548,2.5769,2.5456,2.5312,2.5312,2.5312,2.5312,2.5312,2.5312,2.5312,2.5312,2.5312,2.5312,2.5312,2.5312,2.5312,2.5312,0.0,0.0,0.0,0.0,0.0,0.0,0.0,0.0,0.0,0.0,1.085,1.1105,0.0,0.0,0.0,0.0,0.0,0.0,0.0,1.2685,1.3168,1.3841,1.4075,1.4005,1.361,1.3332,1.2977,1.2563,1.2813,1.2989,1.3054,1.4723,1.543,1.5303,1.6191,1.6103,1.5217,1.5752,1.6004,1.6124,1.6573,1.7866,1.9423,1.9048,0.0,0.0,0.0,0.0,0.0,0.0,0.0,0.0,0.0,0.0,1.9517,2.0761,1.9908,1.9176,0.0,0.0,0.0,0.0,0.0,0.0,0.0,0.0,0.0,0.0,0.0,0.0,0.0,0.0,0.0,0.0,0.0,0.0,0.0,0.0,0.0,0.0,0.0,0.0,0.0,0.0,0.0,0.0,0.0,0.0,0.0,2.6863,2.6382,2.5336,2.5312,2.5312,2.5312,2.5312,2.5312,2.5312,2.5312,2.5312,2.5312,2.5312,2.5312,2.5312,2.5312,2.5312,2.5312,2.5312,2.5312,2.5312,2.5312,2.5312,2.5312,2.5312,2.5312,2.5312,0.0,0.0,0.0,0.0,0.0,0.0,0.0,0.0,0.0,0.0,0.0,0.0,0.0,0.0,0.0,0.0,0.0,0.0,0.0,1.233,1.2724,1.3772,1.4049,1.4011,1.361,1.3751,1.3776,1.3747,1.2979,1.312,1.407,1.4533,1.4871,1.5156,1.5636,1.5306,1.4413,1.5249,1.5977,1.6599,1.7223,1.8158,1.9171,1.908,1.8791,0.0,0.0,0.0,0.0,0.0,0.0,0.0,2.0165,2.0003,2.0064,2.0865,2.033,1.9946,0.0,0.0,0.0,0.0,0.0,0.0,0.0,0.0,0.0,0.0,0.0,0.0,0.0,0.0,0.0,0.0,0.0,0.0,0.0,0.0,0.0,0.0,0.0,0.0,0.0,0.0,0.0,0.0,0.0,0.0,2.6334,2.6274,2.5985,2.5336,2.5312,2.5312,2.5312,2.5312,2.5312,2.5312,2.5312,2.5312,2.5312,2.5312,2.5312,2.5312,2.5312,2.5312,2.5312,2.5312,2.5312,2.5312,2.5312,2.5312,2.5312,2.5312,2.5312,2.5312,0.0,0.0,0.0,0.0,0.0,0.0,0.0,0.0,0.0,0.0,0.0,0.0,0.0,0.0,0.0,0.0,0.0,0.0,0.0,0.0,1.2526,1.3439,1.3878,1.3988,1.3716,1.392,1.4048,1.4051,1.3568,1.3766,1.4555,1.4697,1.4834,1.4946,1.5217,1.5096,1.4787,1.5099,1.5694,1.6468,1.656,1.7308,1.8332,1.7881,1.7675,1.7666,1.8019,0.0,0.0,0.0,0.0,0.0,0.0,0.0,1.9764,2.1061,2.0734,2.0345,0.0,0.0,0.0,0.0,0.0,0.0,0.0,0.0,0.0,0.0,0.0,0.0,0.0,0.0,0.0,0.0,0.0,0.0,0.0,0.0,0.0,0.0,0.0,0.0,0.0,0.0,0.0,0.0,0.0,2.6505,2.5604,2.5642,2.5563,2.5324,2.5312,2.5312,2.5312,2.5312,2.5312,2.5312,2.5312,2.5312,2.5312,2.5312,2.5312,2.5312,2.5312,2.5312,2.5312,2.5312,2.5312,2.5312,2.5312,2.5312,2.5312,2.5312,2.5312,2.5312,0.0,0.0,0.0,0.0,0.0,0.0,0.0,0.0,0.0,0.0,0.0,0.0,0.0,0.0,0.0,0.0,0.0,0.0,0.0,0.0,0.0,1.2922,1.3619,1.3954,1.3825,1.4171,1.4349,1.4309,1.4356,1.4578,1.4899,1.4941,1.4915,1.4905,1.503,1.5139,1.5299,1.5047,1.5386,1.5969,1.553,1.6134,1.7169,1.6399,1.6473,1.7004,1.7182,1.6761,1.6215,1.7087,0.0,0.0,0.0,0.0,1.9364,2.1293,2.1087,2.0508,0.0,0.0,0.0,0.0,0.0,0.0,0.0,0.0,0.0,0.0,0.0,0.0,0.0,0.0,0.0,0.0,0.0,0.0,0.0,0.0,0.0,0.0,0.0,0.0,0.0,0.0,0.0,0.0,0.0,2.5634,2.4774,2.4985,2.5189,2.5324,2.5312,2.5312,2.5312,2.5312,2.5312,2.5312,2.5312,2.5312,2.5312,2.5312,2.5312,2.5312,2.5312,2.5312,2.5312,2.5312,2.5312,2.5312,2.5312,2.5312,2.5312,2.5312,2.5312,2.5312,0.0,0.0,0.0,0.0,0.0,0.0,0.0,0.0,0.0,0.0,1.0774,0.0,0.0,0.0,0.0,0.0,0.0,0.0,0.0,0.0,0.0,1.2418,1.3441,1.3939,1.3905,1.4898,1.5408,1.5492,1.5104,1.5142,1.5648,1.4747,1.4687,1.5323,1.5294,1.4943,1.4493,1.5029,1.5222,1.5159,1.5273,1.5555,1.5878,1.579,1.5934,1.6215,1.6592,1.6861,1.7144,1.7351,1.7772,0.0,0.0,0.0,0.0,2.1495,2.1178,2.065,0.0,0.0,0.0,0.0,0.0,0.0,0.0,0.0,0.0,0.0,0.0,0.0,0.0,0.0,0.0,0.0,0.0,0.0,0.0,0.0,0.0,0.0,0.0,0.0,0.0,0.0,0.0,0.0,2.5634,2.5472,2.4269,2.4452,2.4813,2.5312,2.5312,2.5312,2.5312,2.5312,2.5312,2.5312,2.5312,2.5312,2.5312,2.5312,2.5312,2.5312,2.5312,2.5312,2.5312,2.5312,2.5312,2.5312,2.5312,2.5312,2.5312,2.5312,2.5312,2.5312,0.0,0.0,0.0,0.0,0.0,0.0,0.0,0.0,0.0,0.0,0.0,1.0649,0.0,0.0,0.0,0.0,0.0,0.0,0.0,0.0,0.0,1.2818,1.3312,1.3996,1.4815,1.5313,1.5579,1.5621,1.5555,1.5489,1.5386,1.4699,1.473,1.5346,1.5069,1.5069,1.5271,1.5364,1.5595,1.5809,1.5602,1.5655,1.5782,1.5517,1.5654,1.6025,1.6223,1.6532,1.6835,1.6587,1.6967,1.7696,1.8338,0.0,0.0,0.0,2.0923,0.0,0.0,0.0,0.0,0.0,0.0,0.0,0.0,0.0,0.0,0.0,0.0,0.0,0.0,0.0,0.0,0.0,0.0,0.0,0.0,0.0,0.0,0.0,0.0,0.0,0.0,0.0,0.0,0.0,2.431,2.4104,2.2894,2.3559,2.4154,2.4636,2.5087,2.5312,2.5312,2.5312,2.5312,2.5312,2.5312,2.5312,2.5312,2.5312,2.5312,2.5241,2.4791,2.4862,2.5241,2.4779,2.4862,2.5312,2.5312,2.5312,2.5312,2.5312,2.5312,2.5264,0.0,0.0,0.0,0.0,0.0,0.0,0.0,0.0,0.0,0.0,0.0,0.0,0.0,0.0,0.0,0.0,0.0,0.0,0.0,0.0,0.0,0.0,1.3362,1.4175,1.5441,1.5807,1.5863,1.5636,1.5814,1.5551,1.4942,1.4523,1.4627,1.5091,1.4923,1.5093,1.5544,1.561,1.5674,1.5703,1.5552,1.548,1.5398,1.5183,1.5416,1.5862,1.6083,1.6337,1.6552,1.6219,1.6448,1.7008,1.7678,1.8079,0.0,0.0,0.0,0.0,0.0,0.0,0.0,0.0,0.0,0.0,0.0,0.0,0.0,0.0,0.0,0.0,0.0,0.0,0.0,0.0,0.0,0.0,0.0,0.0,0.0,0.0,0.0,0.0,0.0,0.0,0.0,0.0,2.3472,2.3345,2.2145,2.3065,2.3875,2.4409,2.5016,2.5312,2.5312,2.5312,2.5229,2.5004,2.5229,2.5312,2.5312,2.5312,2.5312,2.5241,2.442,2.4409,2.4933,2.412,2.4264,2.5004,2.5004,2.5087,2.5312,2.5312,2.5216,2.5047,0.0,0.0,0.0,0.0,0.0,0.0,0.0,0.0,0.0,0.0,0.0,0.0,1.0878,1.0649,1.0791,1.1737,1.1505,1.1542,1.2077,1.2136,1.2159,1.2255,1.3646,0.0,1.5133,1.6557,1.6758,1.571,1.5853,1.5432,1.4502,1.4113,1.4152,1.4568,1.5045,1.4873,1.4296,1.5453,1.5101,1.3738,1.4599,1.4499,1.3889,1.4508,1.5039,1.5541,1.6206,1.668,1.6964,1.6863,1.6876,1.7063,1.8024,1.8166,1.8283,0.0,0.0,0.0,0.0,0.0,0.0,0.0,0.0,0.0,0.0,0.0,0.0,0.0,0.0,0.0,0.0,0.0,0.0,0.0,0.0,0.0,0.0,0.0,0.0,0.0,0.0,0.0,0.0,0.0,0.0,0.0,2.3857,2.3924,2.2979,2.335,2.4093,2.5229,2.53,2.5312,2.5312,2.5312,2.4933,2.4192,2.4933,2.5312,2.5312,2.5312,2.5312,2.5241,2.442,2.4108,2.4108,2.339,2.3463,2.4192,2.4192,2.4636,2.5312,2.5312,2.4987,2.4554,0.0,0.0,0.0,0.0,0.0,0.0,0.0,0.0,0.0,0.0,0.0,0.0,0.0,1.0905,1.1067,1.1734,1.166,1.166,1.1943,1.1979,1.2387,1.3314,1.386,1.4817,1.6207,1.6258,1.606,1.571,1.5537,1.5163,1.4617,1.4364,1.4631,1.5318,1.5045,1.4545,1.4016,1.4977,1.4926,1.4254,1.4953,1.5051,1.4888,1.5455,1.5818,0.0,0.0,0.0,0.0,1.6735,1.6947,1.7267,1.7222,1.7286,1.7692,1.8976,1.963,2.0073,2.06,0.0,0.0,0.0,0.0,0.0,0.0,0.0,0.0,0.0,0.0,0.0,0.0,0.0,0.0,0.0,0.0,0.0,0.0,0.0,0.0,0.0,0.0,0.0,0.0,0.0,0.0,0.0,0.0,2.3475,2.2467,2.3139,2.3875,2.4492,2.5016,2.5087,2.4564,2.4564,2.4409,2.4108,2.4409,2.4791,2.53,2.4791,2.4564,2.448,2.3158,2.3158,2.3963,2.2723,2.2649,2.339,2.339,2.372,2.4097,2.4097,2.4058,2.3989,0.0,0.0,0.0,0.0,0.0,0.0,0.0,0.0,1.0888,1.0687,0.0,0.0,0.0,0.0,1.133,1.1782,1.1819,1.1881,1.1943,1.1979,1.2505,1.3686,1.4006,1.4874,1.6443,1.6195,1.5909,1.5659,1.5583,1.5281,1.478,1.4594,1.4806,1.5405,1.4784,1.4328,0.0,0.0,0.0,1.4252,1.5053,1.5319,1.5249,1.5847,0.0,0.0,0.0,0.0,0.0,1.6892,1.6964,1.7047,1.6808,1.7033,1.7514,1.8119,1.8738,1.9283,1.9797,2.0465,0.0,0.0,0.0,0.0,0.0,0.0,0.0,0.0,0.0,0.0,0.0,0.0,0.0,0.0,0.0,0.0,0.0,0.0,0.0,0.0,0.0,0.0,0.0,0.0,0.0,0.0,0.0,0.0,2.2467,2.3361,2.4082,2.4492,2.4492,2.4276,2.3756,2.3756,2.3756,2.3756,2.3975,2.4492,2.5241,2.4492,2.4108,2.4036,2.2499,2.2349,2.3231,2.1907,2.1748,2.2338,2.2338,2.2567,2.2865,2.2865,2.2834,2.2764,0.0,0.0,0.0,0.0,0.0,0.0,0.0,0.0,1.1282,1.1217,0.0,0.0,0.0,0.0,0.0,1.1881,1.2016,1.2077,1.2077,1.2174,1.2516,1.3156,1.4026,1.4851,1.557,1.6401,1.6414,1.557,1.5991,1.5733,1.4886,1.4747,1.4693,1.4669,1.432,1.4094,1.4004,0.0,1.4284,1.3438,0.0,1.5045,1.4639,0.0,0.0,0.0,1.7248,1.7391,0.0,1.7404,1.6989,1.6398,1.6976,1.7377,1.7651,1.7505,1.7902,1.8481,0.0,0.0,0.0,0.0,0.0,0.0,0.0,0.0,0.0,0.0,0.0,0.0,0.0,0.0,0.0,0.0,0.0,0.0,0.0,0.0,0.0,0.0,0.0,0.0,0.0,0.0,0.0,0.0,2.436,2.407,2.3032,2.3925,2.4659,2.5217,2.3756,2.2947,2.2936,2.2947,2.2947,2.2957,2.3683,2.442,2.5229,2.4409,2.4036,2.3975,2.2424,2.1756,2.1669,2.0934,2.0751,2.1073,2.1073,2.1288,2.1644,2.1644,2.1347,2.0862,0.0,0.0,0.0,0.0,0.0,0.0,1.1309,1.1067,1.0964,0.0,0.0,0.0,1.1597,1.1649,1.1745,1.1756,1.1881,1.1943,1.1943,1.2113,1.2516,1.3156,1.3855,1.4611,1.5422,1.5512,1.5524,1.5476,1.5314,1.5157,1.4971,1.4789,1.4789,1.4881,1.4017,1.3622,1.3658,1.3879,0.0,0.0,1.4505,1.5042,0.0,0.0,0.0,0.0,0.0,1.8113,0.0,0.0,1.7516,1.6312,0.0,1.656,1.666,1.6909,1.7325,1.7798,1.8277,0.0,0.0,0.0,0.0,0.0,0.0,0.0,0.0,0.0,0.0,0.0,0.0,0.0,0.0,0.0,0.0,0.0,0.0,0.0,0.0,0.0,0.0,0.0,0.0,0.0,0.0,0.0,2.402,2.3655,2.3213,2.3338,2.3307,2.3153,2.3066,2.2561,2.1629,2.1966,2.2134,2.2134,2.2349,2.2872,2.3621,2.2798,2.2424,2.2349,2.1385,2.0765,2.0411,2.0584,2.0456,2.0202,2.0202,2.0246,2.026,2.026,2.0304,2.0303,0.0,0.0,0.0,0.0,0.0,1.211,1.1944,1.1435,1.1253,0.0,0.0,0.0,1.2046,1.211,1.208,1.1867,1.1943,1.2052,1.2052,1.221,1.2589,1.3231,1.3725,1.438,1.5186,1.5205,1.5325,1.5539,1.5121,1.5048,1.5325,1.4969,1.4916,1.5061,1.4422,0.0,0.0,0.0,0.0,0.0,1.457,0.0,0.0,1.6371,1.6944,0.0,0.0,0.0,1.7619,1.8067,1.763,0.0,0.0,0.0,1.6797,1.6733,1.7195,1.7808,1.802,1.8922,1.9853,0.0,0.0,0.0,2.1738,2.2447,2.3087,0.0,0.0,0.0,0.0,0.0,0.0,0.0,0.0,0.0,0.0,0.0,0.0,0.0,0.0,0.0,0.0,2.4791,2.4576,2.4009,2.357,2.3187,2.2915,2.2147,2.1861,2.2308,2.1732,2.1376,2.1073,2.0859,2.1002,2.1476,2.1476,2.2019,2.2947,2.1934,2.1476,2.1455,2.0476,1.9893,1.9668,1.9922,1.9775,1.9385,1.9385,1.9179,1.898,1.898,1.909,1.9253,0.0,0.0,1.4038,1.4287,1.3234,1.2494,1.2835,1.216,1.191,0.0,1.2711,1.2665,1.2878,1.2844,1.2617,1.213,1.223,1.2291,1.2291,1.2425,1.2734,1.3257,1.3666,1.4175,1.4791,1.5215,1.5511,1.5671,1.5148,1.5246,1.578,1.5193,1.5024,1.5186,0.0,0.0,0.0,0.0,0.0,1.4345,1.4809,1.536,0.0,0.0,1.648,0.0,1.7059,1.7206,1.7206,1.7215,1.7439,0.0,0.0,0.0,0.0,0.0,1.7424,1.8154,1.8064,1.8833,1.9665,0.0,0.0,0.0,2.1211,2.1774,2.2402,2.2811,0.0,0.0,0.0,0.0,0.0,0.0,0.0,0.0,0.0,0.0,0.0,0.0,0.0,0.0,2.4028,2.391,2.3609,2.3132,2.2933,2.2611,2.2103,2.0703,2.0525,2.1858,2.0236,1.98,2.0844,1.98,1.9829,2.0927,2.0978,2.1555,2.2561,2.145,2.0968,2.0833,1.9736,1.9258,1.9219,1.9219,1.8984,1.8562,1.8562,1.8379,1.8008,1.8008,1.8008,1.8008,0.0,0.0,1.4349,1.4442,1.389,1.327,1.2933,1.2488,1.2309,1.2689,1.3062,1.3358,1.3496,1.3406,1.3008,1.2162,1.2544,1.2861,1.2861,1.2637,1.2734,1.3257,1.3476,1.3748,1.407,1.4755,1.5231,1.5558,1.5179,1.5277,1.5768,1.4933,1.4744,1.5162,0.0,0.0,0.0,0.0,0.0,1.4999,1.4923,0.0,1.6995,1.6983,1.7561,1.8377,1.8526,1.8214,1.7716,0.0,1.7303,1.8127,0.0,0.0,0.0,0.0,0.0,0.0,0.0,0.0,0.0,0.0,0.0,0.0,2.1776,2.245,2.2739,0.0,0.0,0.0,0.0,0.0,0.0,0.0,0.0,0.0,0.0,0.0,0.0,0.0,0.0,0.0,2.2943,2.2455,2.2081,2.2022,2.1656,2.124,2.0639,2.0127,1.9738,1.9313,1.9285,1.9223,1.909,1.9223,1.9399,1.9624,1.9969,2.0064,2.0046,2.0083,1.994,1.9614,1.9399,1.9092,1.876,1.876,1.8711,1.8562,1.8562,1.8379,1.8008,1.8008,1.8008,1.8008,1.4457,0.0,1.4619,1.4963,1.416,1.3586,1.3762,1.3022,1.2722,1.3543,1.4047,1.4221,1.396,1.395,1.3693,1.3031,1.3276,1.3525,1.3564,1.3447,1.3526,1.379,1.3724,1.3907,1.4388,1.4648,1.5038,1.5614,1.4916,1.5055,1.5888,1.4947,1.482,1.5352,0.0,0.0,0.0,0.0,1.5502,1.5788,1.5461,0.0,1.6904,1.6589,1.7165,1.8129,1.7932,1.7997,1.8167,1.7896,1.8169,0.0,0.0,1.8001,1.8169,0.0,1.8181,1.8602,0.0,0.0,0.0,1.9605,0.0,0.0,0.0,2.1536,2.1788,0.0,0.0,0.0,0.0,0.0,0.0,0.0,0.0,0.0,0.0,0.0,0.0,0.0,0.0,0.0,2.2816,2.1934,2.114,2.0573,2.0831,2.0652,1.9767,1.9674,1.9404,1.8975,1.876,1.8643,1.8562,1.8643,1.876,1.8965,1.918,1.917,1.8965,1.8965,1.8848,1.8633,1.8428,1.833,1.832,1.832,1.832,1.832,1.832,1.8193,1.8008,1.8008,1.8008,1.8008,1.4585,0.0,1.4789,1.5379,1.4339,1.3712,1.4516,1.3683,1.3453,1.4706,1.5119,1.5017,1.4305,1.4412,1.4293,1.3705,1.3755,1.3866,1.4041,1.4054,1.4101,1.4197,1.4078,1.4204,1.4577,1.4587,1.4893,1.5572,1.4648,1.4832,1.5976,1.4931,1.4903,0.0,0.0,0.0,0.0,0.0,0.0,1.6443,0.0,1.6296,1.6501,1.6178,1.6585,1.7315,1.7134,1.7606,1.8406,1.8815,0.0,1.8727,1.839,1.8434,0.0,0.0,0.0,0.0,0.0,0.0,0.0,0.0,0.0,1.9893,0.0,0.0,0.0,0.0,0.0,0.0,0.0,0.0,0.0,0.0,0.0,0.0,0.0,0.0,0.0,0.0,0.0,0.0,2.2379,2.1293,2.0275,1.938,2.0171,2.0308,1.9443,1.9336,1.9248,1.916,1.8418,1.8174,1.8516,1.8184,1.8184,1.8516,1.8523,1.8555,1.8389,1.8125,1.7969,1.7871,1.7529,1.7627,1.8008,1.8008,1.8008,1.8008,1.8008,1.8008,1.8008,1.8008,1.8008,1.8008,1.4994,1.464,0.0,1.521,1.4652,1.4111,1.4258,1.4387,1.4827,1.5774,1.5939,1.5602,1.4479,1.4653,1.4395,1.3299,1.3097,0.0,1.3793,0.0,1.3373,1.383,1.4146,1.4096,1.3584,1.448,1.4952,1.4981,1.4509,1.4873,1.5964,1.4551,1.4742,0.0,1.5427,0.0,0.0,0.0,1.6304,0.0,1.7075,1.686,0.0,1.6775,1.7073,1.7301,1.7819,1.8097,1.8205,0.0,1.8417,1.8786,0.0,1.8312,0.0,0.0,0.0,0.0,0.0,0.0,0.0,0.0,2.0005,0.0,0.0,0.0,0.0,0.0,0.0,0.0,0.0,0.0,0.0,0.0,0.0,0.0,0.0,0.0,0.0,0.0,0.0,0.0,0.0,1.932,1.8987,1.9258,1.9727,1.9941,1.9844,1.9492,1.9111,1.8721,1.8252,1.8037,1.8076,1.8037,1.8037,1.8086,1.8457,1.8252,1.7539,1.7861,1.7803,1.7451,1.7402,1.7627,1.8008,1.8008,1.8008,1.8008,1.8008,1.8008,1.8008,1.8008,1.8008,1.8008,1.5062,1.4971,0.0,0.0,1.4731,1.4414,1.5029,1.5437,1.5946,1.6569,1.6557,1.6367,1.6026,0.0,0.0,0.0,0.0,1.4744,0.0,0.0,1.4502,1.4927,1.4791,1.4713,1.4797,1.4899,1.5169,1.5641,1.522,1.5426,1.6281,1.5424,1.5674,0.0,1.6417,0.0,1.6907,0.0,0.0,0.0,0.0,0.0,0.0,1.6919,1.7555,1.7967,1.8585,1.8558,1.8231,0.0,1.7997,0.0,0.0,0.0,0.0,0.0,0.0,0.0,0.0,0.0,0.0,0.0,0.0,0.0,0.0,0.0,2.033,0.0,0.0,0.0,0.0,0.0,0.0,0.0,0.0,0.0,0.0,0.0,0.0,0.0,0.0,0.0,0.0,0.0,0.0,0.0,1.9394,1.9697,1.9199,1.9004,1.8828,1.8643,1.8223,1.8008,1.8008,1.8008,1.8008,1.8008,1.8184,1.7832,1.7021,1.7451,1.7412,1.7021,1.7275,1.749,1.7646,1.7646,1.7646,1.7646,1.7646,1.7793,1.8008,1.8008,1.8008,1.8008,1.536,0.0,0.0,0.0,0.0,1.4766,1.5883,1.6389,1.6779,1.7255,1.7182,0.0,1.7006,1.6822,0.0,0.0,0.0,1.5336,0.0,0.0,1.5174,1.5477,1.5262,0.0,1.5447,1.5277,1.5434,1.6065,1.5657,1.5827,1.6509,1.5969,1.6203,1.6983,0.0,1.695,1.7034,0.0,0.0,1.6238,1.6788,1.6622,1.6112,1.7015,1.7774,1.8418,1.8964,1.8691,1.807,1.8028,1.7386,0.0,1.6362,0.0,0.0,0.0,0.0,0.0,1.9349,0.0,0.0,0.0,0.0,0.0,0.0,0.0,0.0,0.0,0.0,0.0,0.0,0.0,2.0506,2.0377,0.0,1.9008,0.0,0.0,0.0,0.0,0.0,0.0,0.0,0.0,0.0,1.8428,1.9326,1.959,1.8857,1.8701,1.8562,1.8562,1.8223,1.8008,1.8008,1.8008,1.7949,1.7842,1.7842,1.7451,1.6685,1.7061,1.71,1.6924,1.7119,1.7275,1.7373,1.7256,1.7275,1.7383,1.7383,1.7637,1.8008,1.8008,1.8008,1.8008,1.6091,1.5441,0.0,0.0,0.0,1.5317,1.6422,1.6969,1.741,1.7709,0.0,0.0,0.0,0.0,0.0,0.0,0.0,1.4003,1.4581,0.0,1.4564,0.0,0.0,0.0,0.0,1.5381,1.5733,1.5608,1.5472,1.5785,1.6466,1.5761,1.5768,1.643,0.0,1.6712,1.7496,1.6487,1.6541,1.7327,1.6799,1.6895,1.7315,0.0,1.7625,1.8277,1.8806,0.0,0.0,1.7352,1.6606,0.0,0.0,0.0,0.0,0.0,0.0,0.0,0.0,0.0,0.0,1.9781,0.0,0.0,0.0,0.0,1.8073,0.0,0.0,0.0,0.0,2.0053,2.0237,1.9736,1.9341,0.0,0.0,0.0,0.0,0.0,0.0,0.0,0.0,0.0,1.9287,1.9248,1.9668,1.9727,1.9287,1.8867,1.8562,1.8562,1.8223,1.8008,1.8008,1.8008,1.7803,1.7402,1.7402,1.7168,1.6665,1.6748,1.6973,1.7344,1.6924,1.6992,1.7344,1.6924,1.7002,1.7383,1.7383,1.7637,1.8008,1.8008,1.8008,1.8008,0.0,0.0,0.0,0.0,0.0,1.6289,1.7214,1.7709,0.0,0.0,0.0,0.0,0.0,0.0,1.7343,0.0,0.0,1.5696,1.5535,1.5894,0.0,0.0,0.0,1.6407,0.0,0.0,1.6235,1.6003,1.6076,1.6261,1.6522,1.6346,1.6585,1.7176,0.0,1.752,0.0,0.0,0.0,0.0,0.0,1.6895,1.7718,0.0,0.0,1.7641,1.7804,1.7221,0.0,1.6246,1.5765,1.5174,1.5164,1.584,1.6718,1.711,1.7821,0.0,0.0,0.0,1.9906,2.0182,0.0,0.0,0.0,0.0,0.0,0.0,0.0,0.0,0.0,1.9198,1.9264,1.9075,1.8808,1.8539,0.0,0.0,0.0,0.0,0.0,0.0,0.0,0.0,0.0,1.8437,1.8574,1.8594,1.8447,1.8564,1.8516,1.8232,1.835,1.8291,1.8008,1.7734,1.7529,1.7383,1.7383,1.7148,1.6748,1.7324,1.7353,1.6963,1.71,1.6914,1.6504,1.6348,1.6553,1.6953,1.6953,1.7383,1.8008,1.8008,1.8008,1.8008,1.7003,0.0,0.0,0.0,0.0,0.0,0.0,0.0,0.0,0.0,1.9626,0.0,1.9737,0.0,1.8306,0.0,1.7089,1.6824,1.6501,1.6825,0.0,1.7099,1.6991,0.0,0.0,0.0,1.6496,1.6426,1.6591,1.6779,1.701,1.6722,1.6891,1.7398,0.0,0.0,0.0,0.0,1.747,0.0,0.0,1.6446,0.0,0.0,1.6828,1.7065,0.0,1.6699,1.5529,1.5912,1.5552,1.4966,1.5008,1.5777,1.6758,1.7214,1.7874,1.8602,1.938,1.9626,0.0,2.017,1.9657,0.0,1.852,0.0,0.0,0.0,0.0,0.0,0.0,0.0,1.8824,1.866,1.8572,1.8472,0.0,1.8405,0.0,0.0,0.0,0.0,0.0,0.0,1.8036,1.8076,1.8213,1.8233,0.0,0.0,1.8447,1.8018,1.8418,1.8359,1.7793,1.7519,1.7227,1.6914,1.707,1.7002,1.6694,1.7461,1.749,1.6973,1.71,1.6738,1.6115,1.5898,1.6191,1.6665,1.6665,1.7256,1.8008,1.8008,1.8008,1.8008,0.0,0.0,0.0,0.0,1.8479,0.0,0.0,0.0,1.9174,0.0,1.9698,1.9698,1.9674,1.9089,1.8577,1.8139,1.7589,0.0,1.7363,1.7381,0.0,0.0,1.6562,1.6346,1.6122,0.0,0.0,0.0,1.6953,1.7282,1.7869,1.6921,1.669,1.7085,1.6922,0.0,1.6865,1.6681,1.6367,1.603,1.5472,1.5758,1.6569,1.6781,1.6681,1.6587,1.7772,1.6809,1.5175,1.6233,1.5913,1.5112,1.5133,1.5537,1.6192,1.7224,1.7824,1.8334,1.9269,1.9622,1.9689,1.9559,0.0,0.0,0.0,0.0,1.6739,0.0,0.0,0.0,0.0,0.0,1.8833,1.8485,1.8588,1.8808,1.8808,0.0,0.0,0.0,0.0,0.0,0.0,1.8043,1.804,1.8144,1.8547,0.0,0.0,0.0,1.8467,1.8018,1.8418,1.8232,1.7393,1.7363,1.6934,1.6103,1.6523,1.6665,1.6748,1.7187,1.7363,1.7295,1.6885,1.6445,1.6056,1.5527,1.5867,1.6665,1.6602,1.7125,1.794,1.8008,1.8008,1.8008,1.8385,1.8509,1.8544,0.0,1.8763,1.8882,0.0,0.0,0.0,0.0,2.0672,2.078,2.0397,1.9808,1.908,1.8173,1.7984,0.0,0.0,0.0,0.0,1.8398,1.7862,1.7587,1.7482,1.7145,0.0,1.7255,1.7446,1.7663,1.7798,1.7656,1.7817,1.8204,0.0,0.0,1.7896,1.7767,1.7382,1.6852,1.6516,1.6563,0.0,0.0,1.6655,1.5881,1.7092,1.6436,1.5175,1.6233,1.6447,1.6306,1.6728,1.6919,1.7145,1.7799,1.7816,1.776,1.8382,1.8561,1.8556,1.8487,1.7904,1.7191,0.0,0.0,0.0,0.0,0.0,0.0,0.0,0.0,0.0,1.8195,1.8593,1.8808,1.8808,0.0,0.0,0.0,0.0,0.0,0.0,1.6701,1.6674,1.7736,1.7803,0.0,0.0,0.0,0.0,1.8037,1.8418,1.8232,1.7393,1.7061,1.6787,1.6562,1.668,1.6665,1.6748,1.7187,1.7021,1.6458,1.6279,1.5986,1.5517,1.4989,1.5191,1.5872,1.5486,1.5842,1.6603,1.7657,1.8008,1.8008,1.8943,0.0,0.0,1.9531,0.0,0.0,1.9794,0.0,0.0,2.049,2.0863,0.0,2.031,2.0155,1.9688,1.8576,1.8483,0.0,0.0,0.0,0.0,1.8662,1.8044,1.7769,1.7745,1.7145,0.0,1.7661,0.0,0.0,1.8386,1.8116,1.8226,1.8571,0.0,1.8236,0.0,1.7213,1.6851,1.6746,1.6299,0.0,0.0,1.758,1.6957,1.5909,1.7493,1.6874,1.5489,1.6806,1.7126,1.7076,1.7571,1.7608,1.752,1.8049,1.7989,1.7819,1.8076,1.7938,1.7781,1.7988,1.7205,1.6451,1.6566,1.6357,1.6125,0.0,0.0,0.0,0.0,0.0,0.0,1.8103,1.8674,1.8942,0.0,0.0,0.0,0.0,0.0,0.0,1.6688,1.5761,1.5806,1.756,1.7698,0.0,0.0,0.0,0.0,1.7686,1.8059,1.7643,1.6309,1.6504,1.6232,1.5549,1.6053,1.6138,1.5817,1.6114,1.6055,1.568,1.568,1.5381,1.501,1.4773,1.4807,1.4923,1.5016,1.534,1.5809,1.6748,1.7304,1.751,0.0,0.0,0.0,0.0,0.0,0.0,0.0,1.96,0.0,2.0598,0.0,2.061,2.0057,2.0334,2.0177,1.9179,0.0,1.8987,1.8987,1.8987,1.8782,1.8326,1.7724,1.7435,1.7468,1.6705,0.0,0.0,0.0,1.8151,1.9109,1.8487,1.8363,0.0,0.0,0.0,0.0,1.5974,1.569,0.0,1.5572,1.5858,1.6673,1.7843,1.7343,1.6331,1.8277,1.7664,1.6202,1.7705,1.7912,1.7624,1.8063,1.7831,1.7496,1.7965,1.8001,1.785,1.7827,1.7478,1.7198,1.7621,1.6588,1.5695,1.6537,1.6347,1.6007,1.583,1.585,1.5417,0.0,0.0,0.0,1.7762,0.0,0.0,0.0,0.0,0.0,0.0,0.0,0.0,0.0,1.5141,0.0,0.0,0.0,0.0,0.0,0.0,0.0,1.7194,1.7432,1.676,1.5002,0.0,1.5683,1.4234,1.5231,1.5348,1.4624,1.4703,1.4797,1.4983,1.4983,1.4729,1.4437,1.4592,1.4355,1.4022,1.4841,1.5129,1.5172,1.5704,1.6175,1.6724,0.0,0.0,0.0,0.0,0.0,2.0725,2.1055,2.1043,2.1055,2.1247,2.1644,2.1716,2.1175,2.0791,2.0378,1.9696,1.9239,0.0,0.0,0.0,0.0,1.8855,1.7929,1.7559,1.7977,1.657,1.6394,0.0,1.7618,1.8092,1.8857,1.9056,1.9123,0.0,0.0,0.0,1.6729,1.5985,0.0,1.5593,1.5753,1.6011,1.6482,1.7776,1.7775,1.7148,1.8513,1.8219,1.7322,1.849,1.8768,1.8708,1.8792,1.8163,1.7436,1.752,1.6931,1.6228,1.6263,1.6076,1.5929,1.6071,1.5761,1.5359,1.5219,1.5331,1.5322,1.4619,1.441,1.4316,1.4062,0.0,0.0,0.0,0.0,0.0,0.0,0.0,0.0,0.0,0.0,0.0,0.0,0.0,0.0,0.0,0.0,0.0,0.0,0.0,0.0,0.0,1.6526,0.0,0.0,0.0,1.5692,1.5324,1.5106,1.4967,1.4828,1.4571,1.4347,1.4168,1.4168,1.4063,1.3812,1.3441,1.3282,1.331,1.3862,1.4196,1.4403,1.4887,1.5259,1.5613,0.0,0.0,0.0,0.0,0.0,0.0,0.0,2.1993,0.0,2.144,2.162,2.1584,2.1055,2.0995,2.067,1.9853,1.954,1.9287,1.9011,1.8987,1.8987,1.8987,1.7713,0.0,1.7809,1.5928,1.5648,1.7015,1.7031,1.7491,1.8333,1.8655,0.0,1.8709,0.0,1.756,0.0,0.0,0.0,1.5125,1.5687,1.615,1.6606,1.7831,1.8104,1.7875,1.8709,1.8672,1.8324,1.885,1.8806,1.8626,1.8903,1.8458,1.782,1.782,1.7074,1.6232,1.5932,1.5557,1.5175,1.4915,1.4988,1.4971,1.4551,1.46,1.4518,1.3831,1.3467,1.3314,1.3222,1.4216,0.0,0.0,0.0,0.0,0.0,0.0,0.0,0.0,0.0,0.0,0.0,0.0,0.0,0.0,0.0,0.0,0.0,0.0,1.7071,0.0,0.0,0.0,0.0,0.0,0.0,1.43,1.4296,1.4036,1.3623,1.3328,1.3314,1.3511,1.339,1.3381,1.3338,1.2921,1.293,1.3126,1.356,1.3749,1.3907,1.4419,1.4705,1.4919,0.0,2.1704,0.0,0.0,2.21,0.0,2.2754,2.2462,2.2089,2.1777,2.1644,2.1416,2.0995,2.1223,2.1055,2.0201,1.9913,1.96,1.9191,1.9047,1.8987,1.8987,1.751,1.6949,1.7443,1.5284,1.4866,0.0,1.6258,1.6728,0.0,1.8058,0.0,0.0,0.0,0.0,0.0,0.0,1.5511,1.5025,1.5536,1.605,1.6684,1.7722,1.8159,1.8333,1.8827,1.8934,1.8827,1.8827,1.8606,1.8422,1.8618,1.8303,1.7862,1.7591,1.6962,1.6192,1.564,1.5268,1.4879,1.4267,1.4463,1.4648,1.4121,1.3951,1.3816,1.318,1.2661,1.2315,1.2241,1.3365,0.0,0.0,0.0,0.0,0.0,0.0,0.0,0.0,0.0,0.0,0.0,0.0,0.0,0.0,0.0,1.7063,1.7159,1.7218,1.6813,0.0,0.0,1.4649,1.3833,0.0,1.4263,1.3386,1.3565,1.3324,1.2653,1.2304,1.2421,1.2895,1.2773,1.2883,1.298,1.293,1.3002,1.3278,1.3623,1.3761,1.3792,1.426,1.4425,1.4497,0.0,0.0,0.0,0.0,0.0,0.0,0.0,2.2221,2.2354,2.2775,2.2414,2.2101,2.2053,2.1668,2.1368,2.126,2.0346,1.9756,1.9708,1.9263,1.8987,1.8987,1.751,1.6843,1.7225,1.4914,1.4193,0.0,0.0,1.6055,1.6922,1.7628,0.0,0.0,0.0,0.0,0.0,1.5972,1.571,1.5573,1.5233,1.566,1.6684,1.7279,1.7776,1.8213,1.8762,1.8655,1.8201,1.8201,1.8513,1.8778,1.7932,1.7299,1.6639,1.5668,1.5268,1.5039,1.4495,1.4893,1.5202,1.4336,1.4463,1.457,1.375,1.3564,1.3304,1.241,1.1593,1.1161,1.1432,1.2421,1.344,0.0,0.0,0.0,0.0,0.0,0.0,0.0,0.0,0.0,0.0,0.0,0.0,0.0,0.0,1.6306,1.7385,1.6709,1.6173,1.5959,0.0,1.5178,1.4635,1.4618,1.4592,1.4416,1.3761,1.3369,1.3196,1.2546,1.2428,1.2621,1.2621,1.2805,1.3156,1.3616,1.3761,1.3747,1.4174,1.4314,1.4314,1.4346,1.4497,1.4569,0.0,0.0,0.0,0.0,0.0,0.0,0.0,2.2871,2.2751,2.2955,2.2522,2.2306,2.263,2.2197,2.1608,2.0959,2.0526,2.0009,1.9348,1.9107,1.8827,1.8483,1.7025,1.6111,1.586,1.4123,1.3551,0.0,0.0,1.5733,1.6586,1.7092,0.0,0.0,0.0,1.6779,1.6009,1.5788,1.5466,1.5172,1.5375,1.5847,1.6436,1.6786,1.7168,1.7589,1.782,1.7754,1.7534,1.7534,1.7699,1.7841,1.7474,1.7028,1.6606,1.6422,1.5728,1.4942,1.4738,1.4897,1.4825,1.3665,1.4092,1.4492,1.3389,1.333,1.3202,1.2102,1.142,1.1045,1.1212,1.2534,1.3623,0.0,0.0,0.0,0.0,0.0,0.0,0.0,0.0,0.0,0.0,0.0,0.0,0.0,0.0,0.0,1.6751,1.6403,1.6571,1.7273,0.0,1.5192,1.575,1.4704,1.4175,1.4308,1.3758,1.3431,1.316,1.2877,1.2751,1.2759,1.3092,1.3202,1.3317,1.385,1.397,1.4002,1.4364,1.4497,1.4497,1.4497,1.4569,1.4569,2.457,0.0,2.3737,0.0,2.3676,2.346,2.352,2.3087,2.2811,2.2955,2.2522,2.233,2.2702,2.2414,2.1885,2.1115,2.0779,2.0286,1.9516,1.9167,1.8709,1.8147,1.6703,0.0,1.5205,1.3671,1.3185,1.377,1.4481,0.0,1.6092,0.0,0.0,0.0,1.6972,1.6549,1.5884,1.5662,1.5426,1.5123,1.5486,1.5826,1.6151,1.6389,1.6719,1.6978,1.7146,1.709,1.6922,1.6922,1.6725,1.6475,1.6557,1.6342,1.6084,1.5978,1.5352,1.4726,1.4593,1.467,1.4541,1.3506,1.3926,1.4355,1.3457,1.3379,1.3138,1.193,1.1357,1.1077,1.1077,1.2679,1.3725,1.3143,0.0,0.0,0.0,0.0,0.0,0.0,0.0,1.1096,1.064,0.0,0.0,0.0,0.0,0.0,1.6403,1.6749,0.0,0.0,0.0,0.0,1.6049,1.4595,1.3986,1.4198,1.3752,1.3483,1.3386,1.3282,1.317,1.3048,1.3518,1.3684,1.3648,1.3945,1.4172,1.4283,1.4426,1.4474,1.4569,1.4569,1.4569,1.4569,2.5605,2.5536,2.5119,2.4602,2.4506,2.4157,2.3147,2.2534,2.239,2.2907,2.2522,2.2197,2.2197,2.2197,2.2185,2.2173,2.1211,2.061,2.0598,1.9588,1.8709,0.0,0.0,1.5845,1.5673,1.3882,1.3244,1.3882,0.0,0.0,1.5381,0.0,1.8429,1.7401,1.7932,1.7478,1.6244,1.5633,1.5536,1.5662,1.5478,1.5546,1.573,1.6151,1.6312,1.6358,1.6978,1.681,1.6301,1.6301,1.5628,1.4873,1.4952,1.5018,1.4738,1.3343,1.3486,1.4043,1.3623,1.4141,1.4678,1.4228,1.4077,1.4087,1.4068,1.3799,1.3138,1.193,1.1357,1.1077,1.1077,1.2418,1.3511,1.3502,0.0,0.0,0.0,0.0,0.0,0.0,1.262,1.2453,1.0958,0.0,0.0,0.0,0.0,0.0,0.0,0.0,0.0,1.6497,1.6616,0.0,1.4933,1.4205,1.4103,1.4456,1.3803,1.3693,1.4093,1.3735,1.3576,1.3592,1.395,1.4109,1.4109,1.4109,1.4323,1.453,1.4252,1.4331,1.4569,1.4569,1.4569,1.4569,2.5803,2.548,2.501,2.4554,2.4518,2.429,2.3616,2.3664,2.3713,2.3532,2.3376,2.3135,2.2775,2.2402,2.2053,0.0,2.1344,2.0652,0.0,1.9142,1.8338,1.6933,1.586,1.507,1.4596,1.3817,1.3571,1.3902,0.0,0.0,0.0,1.7448,1.7705,1.6916,1.6622,1.629,1.5884,1.5536,1.542,1.5478,1.541,1.542,1.5536,1.5642,1.569,1.569,1.5911,1.5864,1.569,1.569,1.5486,1.5194,1.4929,1.4636,1.4344,1.4223,1.416,1.4048,1.3912,1.4131,1.4238,1.3809,1.3926,1.4077,1.4077,1.3661,1.3099,1.2595,1.1992,1.1584,1.1584,1.2395,1.3191,1.3734,1.4164,0.0,0.0,0.0,0.0,0.0,0.0,1.1422,0.0,1.1456,0.0,0.0,0.0,0.0,0.0,0.0,0.0,0.0,1.6953,0.0,1.6223,1.4857,1.4253,1.4471,1.4111,1.3995,1.4109,1.3989,1.3942,1.3966,1.4323,1.4474,1.4474,1.4474,1.4466,1.4553,1.4443,1.4538,1.4569,1.4569,1.4569,1.4569,2.6107,2.5966,2.5654,2.5155,2.5107,2.4879,2.4157,2.4157,2.4121,2.3809,2.3773,2.3568,2.3039,2.269,0.0,2.174,2.1524,2.0867,1.9529,1.9114,1.8181,1.6638,1.5756,1.492,1.4141,0.0,0.0,1.3882,1.5005,1.5942,1.6695,1.7372,1.7427,1.6949,1.6284,1.5905,1.5672,1.5478,1.541,1.541,1.541,1.541,1.5391,1.5234,1.5273,1.5391,1.5234,1.5273,1.541,1.541,1.5312,1.5127,1.4873,1.4482,1.4107,1.4268,1.4346,1.4277,1.3799,1.3896,1.4019,1.3809,1.3818,1.3883,1.4048,1.369,1.3243,1.2988,1.253,1.2228,1.2166,1.294,1.3614,1.3652,1.4173,1.42,1.3037,0.0,0.0,0.0,0.0,0.0,0.0,1.1534,1.2025,0.0,0.0,0.0,0.0,0.0,0.0,1.8108,1.703,0.0,1.6139,1.4922,1.4337,1.4364,1.4065,1.4101,1.4307,1.4245,1.4166,1.4132,1.4482,1.4561,1.4442,1.4442,1.4522,1.4553,1.4498,1.4522,1.4569,1.4569,1.4569,1.4585,2.6611,2.6834,0.0,0.0,2.6093,0.0,2.4735,2.4181,2.3881,2.3881,2.3845,2.3628,2.3147,2.3027,2.2787,2.2219,0.0,0.0,0.0,1.933,1.8245,1.6995,1.6105,1.5151,1.4189,1.433,1.428,1.4023,1.5651,1.6678,1.7149,1.7485,1.7527,1.7324,1.6708,1.6161,1.5672,1.5478,1.541,1.541,1.541,1.541,1.5371,1.498,1.5068,1.5361,1.4971,1.5078,1.541,1.541,1.5146,1.4834,1.4834,1.4551,1.4087,1.3721,1.4141,1.4482,1.3291,1.3516,1.4048,1.4077,1.3857,1.3701,1.4038,1.3882,1.3562,1.3065,1.2965,1.2895,1.2805,1.3881,1.4409,1.3348,1.4249,1.4329,1.2237,0.0,0.0,0.0,0.0,0.0,0.0,1.2253,1.2453,0.0,0.0,0.0,0.0,0.0,1.8647,1.675,1.685,1.6332,1.5054,1.4575,1.4264,1.413,1.4,1.4133,1.4609,1.4537,1.4348,1.4164,1.4427,1.4466,1.418,1.4164,1.4355,1.4641,1.4291,1.4347,1.4561,1.4537,1.4561,1.472,0.0,0.0,2.6639,2.619,2.6093,2.5877,2.5216,2.5023,2.4939,2.4939,2.459,2.429,2.4169,2.3448,2.2726,2.2045,2.1504,2.0728,1.9709,1.8646,1.7559,1.6367,1.5259,1.4666,1.4794,1.4747,1.4942,1.5435,1.6483,1.6916,1.676,1.694,1.7003,1.6909,1.6046,1.5652,1.5672,1.5478,1.541,1.541,1.541,1.541,1.54,1.5303,1.5322,1.54,1.5293,1.5322,1.541,1.541,1.5342,1.5264,1.5264,1.5195,1.5019,1.4609,1.4394,1.4228,1.3916,1.375,1.374,1.4,1.4307,1.4512,1.4609,1.4053,1.3453,1.3339,1.2907,1.2499,1.2648,1.3004,1.3405,1.3757,1.3701,1.3314,1.2613,1.2611,0.0,0.0,1.1881,1.1817,1.1025,1.1496,1.2181,0.0,0.0,0.0,0.0,1.8174,1.7974,1.6858,1.675,1.6055,1.4724,1.4489,1.4445,1.4676,1.4919,1.4932,1.4825,1.498,1.479,1.4308,1.453,1.4752,1.4911,1.4633,1.4728,1.5022,1.4657,1.4561,1.4537,1.4339,1.4585,1.499,2.6443,2.6408,2.6336,2.6166,2.6093,2.5913,2.5384,2.5312,2.5312,2.5312,2.5059,2.456,2.3786,2.3176,2.2383,2.1181,2.1092,2.0464,1.903,1.8207,1.7257,1.6145,1.5262,1.4857,1.4897,1.5144,1.5577,1.6147,1.677,1.6982,1.6754,1.6781,1.6842,1.6853,1.5941,1.5614,1.5798,1.5604,1.5546,1.5546,1.5546,1.5546,1.5517,1.532,1.5369,1.5517,1.531,1.5369,1.5536,1.541,1.541,1.541,1.541,1.5283,1.5117,1.5078,1.4902,1.4678,1.4482,1.4404,1.4434,1.4658,1.5205,1.5566,1.5166,1.4619,1.4179,1.3943,1.353,1.3212,1.3209,1.3623,1.3888,1.3785,1.3705,1.3446,1.285,1.2712,0.0,1.235,1.2373,1.2073,1.1199,1.1911,1.2503,1.2557,1.4756,0.0,1.7525,1.7989,1.7859,1.7093,1.659,1.5926,1.5094,1.4917,1.4836,1.4836,1.4843,1.4818,1.478,1.4788,1.46,1.4269,1.4426,1.4593,1.4689,1.4585,1.4688,1.4919,1.472,1.4569,1.4522,1.3886,1.4053,1.4418,2.6214,2.6178,2.6093,2.6166,2.6105,2.5925,2.5396,2.5312,2.5312,2.5312,2.5157,2.4483,2.2971,2.2604,2.1767,2.0216,2.0518,2.0103,1.856,1.7936,1.7174,1.6243,1.5615,1.5233,1.4949,1.5538,1.6073,1.6431,1.6676,1.6834,1.6955,1.674,1.6751,1.6842,1.6066,1.5798,1.5914,1.5718,1.5671,1.573,1.5661,1.568,1.57,1.5312,1.5402,1.569,1.5256,1.5412,1.5672,1.5536,1.5478,1.5478,1.5478,1.5166,1.4961,1.5381,1.5508,1.542,1.5,1.5186,1.5498,1.543,1.5977,1.6286,1.5486,1.5109,1.4804,1.4323,1.4151,1.4123,1.3916,1.4427,1.4651,1.363,1.3907,1.3899,1.2956,0.0,1.3099,1.3507,1.3259,1.2618,1.1506,1.2647,1.2937,1.1724,1.4709,1.6817,1.7153,1.7784,1.7871,1.7182,1.6413,1.591,1.5579,1.5473,1.5184,1.4862,1.4615,1.459,1.4648,1.4576,1.4387,1.4142,1.4371,1.4387,1.43,1.4419,1.4592,1.479,1.448,1.4449,1.4305,1.3267,1.3179,1.3518,2.6766,2.6481,2.6166,2.6324,2.6251,2.5997,2.562,2.5382,2.5312,2.5312,2.4413,2.3653,2.3421,2.2026,2.0793,1.9897,1.953,1.9212,1.8951,1.76,1.6762,1.6631,1.5625,1.5256,1.5746,1.5736,1.6036,1.6581,1.6137,1.6147,1.6684,1.6343,1.6228,1.6228,1.5961,1.5856,1.5894,1.5455,1.5515,1.5826,1.5445,1.5525,1.5846,1.5786,1.5796,1.5846,1.5786,1.5796,1.5856,1.5856,1.573,1.5672,1.5672,1.5497,1.54,1.583,1.5957,1.5869,1.543,1.5635,1.5879,1.5508,1.5518,1.5496,1.5102,1.4373,1.3836,1.3835,1.3619,1.34,1.3274,1.3592,1.3768,1.347,1.3579,1.3533,1.3132,0.0,1.3427,1.3187,1.2987,1.2488,1.1499,1.2321,1.2859,1.2625,1.4951,1.6847,1.7863,1.7394,1.714,1.7198,1.6563,1.6013,1.5475,1.5684,1.563,1.5311,1.5529,1.5335,1.4872,1.5028,1.483,1.4347,1.4474,1.4804,1.5185,1.4718,1.5024,1.5584,1.4007,1.3623,1.365,1.2267,1.2145,1.2639,2.6511,2.6184,2.5899,2.6125,2.5899,2.566,2.5572,2.5453,2.517,2.4874,2.4377,2.3624,2.2639,2.1784,2.0828,1.9581,1.9209,1.8917,1.8607,1.7392,1.6631,1.651,1.5694,1.5288,1.5495,1.5797,1.5966,1.6102,1.6088,1.6223,1.6477,1.6306,1.6249,1.6249,1.6066,1.6009,1.5999,1.5796,1.5816,1.5999,1.5786,1.5827,1.6009,1.6009,1.6009,1.6009,1.6009,1.5961,1.5914,1.5798,1.5672,1.5546,1.5672,1.5772,1.5801,1.6127,1.6468,1.6728,1.6523,1.6621,1.6728,1.6523,1.6143,1.5738,1.5386,1.4871,1.443,1.4244,1.4029,1.3816,1.3677,1.3654,1.3666,1.3484,1.3585,0.0,0.0,1.3675,1.3731,1.3902,1.3518,1.2951,1.2241,1.2976,1.3353,1.288,1.5206,1.6674,1.6856,1.6903,1.6944,1.6981,1.6163,1.5562,1.5268,1.5795,1.5882,1.5536,1.5701,1.5512,1.5024,1.4909,1.4727,1.4497,1.3897,1.3955,1.431,1.3925,1.4065,1.4355,1.3593,1.3326,1.3026,1.1348,1.1181,1.1649,2.622,2.5955,2.5746,2.591,2.5618,2.5382,2.5382,2.5241,2.4957,2.4383,2.4051,2.3318,2.1878,2.1449,2.0741,1.9425,1.9134,1.8854,1.8516,1.7484,1.6792,1.6572,1.5979,1.5603,1.5401,1.5782,1.5961,1.5846,1.6094,1.627,1.6384,1.6384,1.6384,1.6374,1.6239,1.6181,1.6171,1.6058,1.6079,1.6171,1.6058,1.6079,1.6181,1.6114,1.6114,1.6114,1.6066,1.6019,1.5856,1.5798,1.5662,1.5556,1.5791,1.5989,1.6225,1.6503,1.7052,1.7529,1.7529,1.7529,1.748,1.7285,1.6675,1.6015,1.5503,1.5146,1.4812,1.4485,1.4316,1.4194,1.3958,1.3862,1.3762,1.3569,0.0,0.0,0.0,1.4066,1.4134,1.4458,1.4037,1.3504,1.2862,1.3577,1.3762,1.2994,1.5244,1.6385,1.5833,1.6315,1.6563,1.6447,1.5778,1.5419,1.5419,1.5944,1.6031,1.5674,1.5674,1.5499,1.5173,1.4895,1.4696,1.4615,1.3572,1.3332,1.3551,1.3076,1.3013,1.3074,1.2849,1.2654,1.2264,1.0516,1.0312,1.067,2.6414,2.6289,2.6094,2.591,2.5688,2.5382,2.4862,2.4659,2.4299,2.374,2.2608,2.1878,2.17,2.0721,1.9939,1.9601,1.9232,1.9064,1.9103,1.8014,1.7324,1.7295,1.6723,1.6296,1.6016,1.5817,1.5929,1.6332,1.5939,1.596,1.6384,1.6384,1.6384,1.6384,1.6374,1.6374,1.6343,1.5918,1.598,1.6343,1.5908,1.5991,1.6374,1.6181,1.6114,1.6056,1.5961,1.5914,1.5914,1.5914,1.5856,1.5926,1.6148,1.6287,1.6414,1.7115,1.7607,1.7969,1.7969,1.7969,1.7773,1.6973,1.6468,1.5957,1.4858,1.4344,1.4018,1.3909,1.3848,1.3772,1.3386,1.3576,1.3762,1.3654,0.0,0.0,1.4554,1.4577,1.4458,1.418,1.4101,1.3676,1.2705,1.35,1.3832,1.3127,1.4841,1.5833,1.5833,1.5833,1.5745,1.5354,1.5809,1.6134,1.6134,1.6182,1.6031,1.5674,1.5674,1.5499,1.5189,1.5157,1.4985,1.4762,1.4132,1.3894,1.377,1.2756,1.2481,1.2594,1.1213,1.0861,1.0964,0.9824,0.9544,0.9716,2.6918,2.6714,2.644,2.6233,2.5664,2.5087,2.4779,2.4299,2.374,2.315,2.2615,2.2211,2.1838,2.1234,2.0795,2.0584,1.9949,1.9444,1.9243,1.864,1.7805,1.6727,1.6678,1.6392,1.5706,1.5997,1.6063,1.5949,1.6063,1.6208,1.6384,1.6384,1.6384,1.6384,1.6384,1.6384,1.6363,1.6187,1.6218,1.6363,1.6187,1.6218,1.6374,1.6316,1.6181,1.6114,1.6192,1.6087,1.5914,1.6019,1.6075,1.6158,1.6387,1.6693,1.713,1.7797,1.8083,1.8212,1.8212,1.788,1.7397,1.659,1.5957,1.5281,1.4402,1.4103,1.404,1.397,1.4072,1.4106,1.3825,1.3769,1.3824,1.3915,0.0,1.4236,1.4522,1.4569,1.4522,1.4458,1.4244,1.3915,1.3576,1.3892,1.397,1.3762,1.499,1.5551,1.5062,1.5479,1.5745,1.5809,1.6285,1.6428,1.6206,1.5991,1.592,1.5999,1.557,1.5308,1.5189,1.5189,1.4801,1.4125,1.3571,1.308,1.2535,1.2104,1.1958,1.1928,1.1249,1.0937,1.0772,0.9703,0.9397,0.9625,2.7268,2.7066,2.6794,2.6564,2.5791,2.5016,2.4564,2.3863,2.315,2.2478,2.2402,2.2252,2.1883,2.1655,2.1532,2.1213,2.0645,1.998,1.9515,1.9134,1.8328,1.701,1.7144,1.6859,1.6151,1.643,1.6436,1.6115,1.6291,1.6384,1.6384,1.6384,1.6384,1.6384,1.6384,1.6384,1.6384,1.6384,1.6384,1.6384,1.6384,1.6384,1.6374,1.6316,1.6239,1.6114,1.6202,1.6087,1.5914,1.6009,1.6244,1.6457,1.6597,1.7129,1.776,1.819,1.8337,1.8337,1.8337,1.786,1.7197,1.6503,1.5771,1.5002,1.4356,1.4182,1.4122,1.408,1.4201,1.4281,1.4129,1.4009,1.3995,1.4163,1.4222,1.4363,1.4609,1.4569,1.453,1.449,1.4355,1.4236,1.4117,1.4212,1.4275,1.4275,1.51,1.5378,1.4808,1.5261,1.5682,1.6031,1.6277,1.6389,1.6373,1.6023,1.596,1.6198,1.5618,1.5182,1.4955,1.5064,1.4567,1.3564,1.2981,1.2404,1.1836,1.1511,1.1299,1.1117,1.0958,1.0845,1.0578,0.9734,0.9596,0.98,2.7335,2.7268,2.7201,2.6782,2.6094,2.5241,2.4264,2.3486,2.2703,2.1883,2.1807,2.1807,2.1807,2.1807,2.1731,2.1512,2.1104,2.0645,2.0103,1.9445,1.8868,1.8402,1.8189,1.7994,1.7688,1.7224,1.6987,1.6987,1.6601,1.6384,1.6384,1.6384,1.6384,1.6384,1.6384,1.6384,1.6384,1.6384,1.6384,1.6384,1.6384,1.6384,1.6374,1.6181,1.6114,1.6056,1.5961,1.5914,1.5924,1.5924,1.6323,1.6819,1.6967,1.7641,1.8269,1.8269,1.8414,1.8482,1.8482,1.793,1.7279,1.6663,1.5974,1.5259,1.4702,1.4464,1.4268,1.4133,1.4129,1.4129,1.4137,1.4281,1.4433,1.4441,1.4505,1.4577,1.4649,1.4569,1.4514,1.4156,1.4426,1.4506,1.4148,1.4434,1.4569,1.4569,1.4982,1.5189,1.5189,1.5189,1.534,1.5674,1.569,1.6023,1.6722,1.6381,1.6206,1.6198,1.584,1.5196,1.4258,1.4678,1.4251,1.3123,1.2578,1.2186,1.1929,1.1073,1.0514,1.0297,1.008,1.0156,1.0262,0.9792,0.993,1.0256,2.7469,2.7469,2.7323,2.6973,2.5836,2.4755,2.4181,2.2968,2.2101,2.1807,2.1807,2.1807,2.1807,2.1655,2.1655,2.1731,2.1169,2.0575,1.9947,1.9569,1.9219,1.8889,1.8547,1.8111,1.7688,1.7224,1.6987,1.6987,1.6601,1.6384,1.6384,1.6384,1.6384,1.6384,1.6384,1.6384,1.6384,1.6384,1.6384,1.6384,1.6384,1.6384,1.6374,1.6316,1.6239,1.6114,1.6066,1.627,1.6544,1.6544,1.7043,1.7744,1.8006,1.8328,1.8674,1.8674,1.8674,1.8607,1.8056,1.7581,1.7142,1.6794,1.6156,1.5397,1.4749,1.4653,1.4633,1.4351,1.4281,1.4351,1.4599,1.4719,1.4805,1.5047,1.5221,1.5284,1.5054,1.5022,1.4887,1.453,1.4577,1.453,1.4498,1.4506,1.4744,1.5006,1.534,1.5531,1.5531,1.5769,1.5944,1.6047,1.6285,1.6516,1.673,1.6134,1.5638,1.5305,1.4665,1.4048,1.3403,1.3783,1.3437,1.2478,1.2584,1.2192,1.1516,1.1257,1.1047,1.0963,1.081,1.0614,1.0519,1.0215,1.0044,1.0019,2.7523,2.7469,2.7335,2.7188,2.5685,2.4457,2.4181,2.282,2.1807,2.1655,2.1731,2.1807,2.1807,2.1655,2.1655,2.1807,2.1234,2.074,2.0327,1.9895,1.9576,1.9354,1.8899,1.8444,1.7999,1.7543,1.7162,1.6987,1.6601,1.6384,1.6384,1.6384,1.6384,1.6384,1.6384,1.6384,1.6384,1.6384,1.6384,1.6384,1.6384,1.6384,1.6384,1.6384,1.6316,1.6269,1.6386,1.6622,1.6888,1.7062,1.7605,1.8141,1.8532,1.8684,1.8741,1.8462,1.8395,1.8317,1.756,1.7104,1.68,1.6802,1.6288,1.5615,1.5169,1.5179,1.5187,1.4977,1.4906,1.4969,1.5182,1.5221,1.5292,1.5504,1.5605,1.5602,1.5411,1.538,1.53,1.5078,1.5054,1.5054,1.5054,1.5054,1.5197,1.5562,1.5769,1.5888,1.5888,1.6087,1.6039,1.572,1.5921,1.5845,1.5636,1.5115,1.4865,1.4904,1.4438,1.3717,1.2705,1.2991,1.2708,1.1893,1.2043,1.186,1.1262,1.1262,1.1262,1.1241,1.1079,1.0896,1.0735,1.0412,1.0202,1.0051,2.7469,2.7403,2.7268,2.7268,2.5697,2.4337,2.412,2.2745,2.1731,2.1502,2.1655,2.1807,2.1807,2.1807,2.1883,2.1807,2.1424,2.1124,2.1,2.0255,1.9858,1.9775,1.9261,1.8816,1.8382,1.7988,1.7503,1.7049,1.6653,1.6415,1.6384,1.6384,1.6384,1.6384,1.6384,1.6384,1.6384,1.6384,1.6384,1.6384,1.6384,1.6384,1.6384,1.6384,1.6384,1.6436,1.6781,1.6946,1.7059,1.7564,1.7955,1.8257,1.8675,1.8808,1.8607,1.791,1.7833,1.7774,1.7047,1.659,1.6399,1.6699,1.639,1.5944,1.5809,1.5827,1.5889,1.5753,1.5674,1.569,1.5713,1.5721,1.5737,1.5761,1.5769,1.5761,1.5729,1.5721,1.5713,1.5682,1.5674,1.5674,1.5674,1.5705,1.5856,1.6182,1.6238,1.6238,1.6206,1.6238,1.5831,1.5072,1.4933,1.4678,1.4126,1.3774,1.3967,1.4705,1.4676,1.3784,1.21,1.2427,1.2112,1.1262,1.1262,1.1262,1.1262,1.1262,1.1262,1.1241,1.1106,1.0988,1.0902,1.0482,1.0299,1.0229,2.7335,2.7335,2.7268,2.7268,2.5697,2.4337,2.412,2.267,2.1578,2.1512,2.1655,2.1883,2.2025,2.2176,2.2176,2.2025,2.179,2.1197,2.012,2.0193,1.9965,1.9251,1.8775,1.8475,1.8382,1.8288,1.803,1.7523,1.7059,1.6726,1.6384,1.6384,1.6384,1.6384,1.6384,1.6384,1.6384,1.6384,1.6384,1.6384,1.6384,1.6384,1.6384,1.6384,1.6384,1.6394,1.6294,1.6609,1.71,1.7968,1.8537,1.8874,1.8967,1.8664,1.8104,1.7969,1.756,1.7005,1.6553,1.6555,1.664,1.639,1.6437,1.6451,1.6174,1.6071,1.6032,1.5753,1.5674,1.5761,1.6039,1.6087,1.6182,1.646,1.6508,1.6404,1.6134,1.6087,1.5991,1.5705,1.5674,1.5674,1.5674,1.5928,1.6118,1.6198,1.646,1.65,1.6222,1.6468,1.6403,1.5888,1.5487,1.5238,1.5144,1.4316,1.362,1.3199,1.2895,1.2332,1.153,1.158,1.1521,1.1262,1.1262,1.1262,1.1262,1.1262,1.1262,1.1257,1.1289,1.1042,1.0697,1.06,1.0404,1.022,2.6905,2.6496,2.6208,2.6208,2.4767,2.3537,2.3463,2.2155,2.1205,2.1205,2.1578,2.1807,2.1959,2.1901,2.1755,2.1313,2.1624,2.1311,2.0151,2.0296,2.012,1.9427,1.8951,1.8702,1.8702,1.8702,1.8278,1.7348,1.71,1.6808,1.6384,1.6384,1.6384,1.6384,1.6384,1.6384,1.6384,1.6384,1.6384,1.6384,1.6384,1.6384,1.6405,1.6612,1.657,1.6467,1.7028,1.7554,1.8018,1.8147,1.8395,1.8519,1.8172,1.7765,1.7413,1.707,1.6655,1.6219,1.5652,1.5881,1.6259,1.5982,1.6349,1.6683,1.65,1.646,1.6404,1.6222,1.6182,1.6238,1.642,1.646,1.6516,1.6706,1.673,1.6667,1.6484,1.646,1.6389,1.6198,1.6182,1.6182,1.6182,1.6349,1.646,1.646,1.6627,1.6651,1.6468,1.6635,1.6398,1.5805,1.5133,1.4552,1.4132,1.3203,1.2448,1.2026,1.2312,1.2064,1.1262,1.1262,1.1262,1.1262,1.1262,1.1262,1.1262,1.1262,1.1262,1.1262,1.1262,1.0974,1.0638,1.0638,1.0331,1.0143,2.6346,2.5709,2.5158,2.5016,2.3756,2.2734,2.2734,2.1711,2.0906,2.0984,2.1573,2.189,2.1883,2.1607,2.1115,2.0429,2.1083,2.1176,2.0255,2.0265,2.011,1.9734,1.9199,1.8992,1.9075,1.892,1.8288,1.71,1.71,1.6891,1.6384,1.6384,1.6384,1.6384,1.6384,1.6384,1.6384,1.6384,1.6384,1.6384,1.6467,1.6498,1.6539,1.6935,1.6933,1.6757,1.7864,1.8568,1.8885,1.8131,1.791,1.7901,1.7139,1.6793,1.6594,1.5965,1.5692,1.5513,1.4929,1.5237,1.5705,1.5825,1.6301,1.673,1.673,1.673,1.673,1.673,1.673,1.673,1.673,1.673,1.673,1.673,1.673,1.673,1.673,1.673,1.673,1.673,1.673,1.673,1.673,1.673,1.673,1.673,1.673,1.673,1.673,1.673,1.6402,1.565,1.4552,1.3626,1.2954,1.1854,1.1262,1.1354,1.2112,1.2026,1.1262,1.1262,1.1262,1.1262,1.1262,1.1262,1.1262,1.1262,1.1262,1.1262,1.1262,1.1085,1.0686,1.0606,1.0377,1.0067,2.6264,2.5918,2.5639,2.5075,2.3829,2.2883,2.2734,2.1711,2.0984,2.1349,2.1973,2.2376,2.2294,2.1755,2.1062,2.0191,2.0388,2.0224,1.9313,1.9624,1.9644,1.9178,1.8723,1.8661,1.9065,1.8309,1.7823,1.7636,1.7636,1.7212,1.6384,1.6384,1.6384,1.6384,1.6384,1.6384,1.6384,1.6384,1.6384,1.6415,1.6798,1.6894,1.6946,1.7399,1.7544,1.7574,1.775,1.8102,1.84,1.7665,1.7656,1.7901,1.7139,1.6455,1.5903,1.5833,1.5346,1.4913,1.5447,1.5602,1.5825,1.6436,1.6667,1.673,1.673,1.673,1.673,1.673,1.673,1.673,1.673,1.673,1.673,1.673,1.673,1.673,1.673,1.673,1.673,1.673,1.673,1.673,1.673,1.673,1.673,1.673,1.673,1.673,1.673,1.673,1.6648,1.6566,1.488,1.3957,1.3795,1.2112,1.1262,1.1262,1.1435,1.1435,1.1262,1.1262,1.1262,1.1262,1.1262,1.1262,1.1262,1.1262,1.1262,1.1262,1.1262,1.1182,1.0885,1.0726,1.0545,1.0438,2.5487,2.485,2.4143,2.3632,2.2905,2.2306,2.2231,2.1568,2.1205,2.1578,2.2116,2.2397,2.2273,2.1829,2.1068,1.975,2.0226,2.0177,1.9271,1.9578,1.9619,1.9085,1.8878,1.8868,1.9131,1.8433,1.7968,1.7843,1.7471,1.7015,1.6384,1.6384,1.6384,1.6384,1.6384,1.6384,1.6384,1.6384,1.6384,1.6394,1.6591,1.6674,1.6746,1.7338,1.7451,1.7358,1.7916,1.8114,1.8085,1.7341,1.6921,1.6655,1.5895,1.5409,1.5174,1.538,1.5227,1.5054,1.5539,1.5825,1.6047,1.6357,1.6587,1.673,1.673,1.673,1.673,1.673,1.673,1.673,1.673,1.673,1.673,1.673,1.673,1.673,1.673,1.673,1.673,1.673,1.673,1.673,1.673,1.673,1.673,1.673,1.673,1.6484,1.5982,1.5982,1.5726,1.522,1.3964,1.3288,1.3288,1.194,1.1262,1.1262,1.1262,1.1262,1.1262,1.1262,1.1262,1.1262,1.1262,1.1262,1.1262,1.1262,1.1262,1.1262,1.1262,1.1122,1.0751,1.0807,1.0593,1.0368]}]]